[[{"header":{"parameterUnit":"m.s-1","parameterCategory":1,"la1":31.0,"la2":29.5877,"lo1":-88.7671,"lo2":-86.6584,"dy":0.0162,"dx":0.0185,"nx":115,"ny":88,"refTime":"2024-09-03T12:00:00:Z","depth":0,"parameterNumber":2,"parameterNumberName":"U-component_of_WINDS"},"data":[0.0,0.0,0.0,0.0,0.0,0.0,0.0,0.0,0.0,0.0,0.0,0.0,0.0,0.0,0.0,0.0,0.0,0.0,0.0,0.0,0.0,0.0,0.0,0.0,0.0,0.0,0.0,0.0,0.0,0.0,0.0,0.0,0.0,0.0,0.0,0.0,0.0,0.0,0.0,0.0,0.0,0.0,0.0,0.0,0.0,0.0,0.0,0.0,0.0,0.0,0.0,0.0,0.0,0.0,0.0,0.0,0.0,0.0,0.0,0.0,0.0,0.0,0.0,0.0,0.0,0.0,0.0,0.0,0.0,0.0,0.0,0.0,0.0,0.0,0.0,0.0,0.0,0.0,0.0,0.0,0.0,0.0,0.0,0.0,0.0,0.0,0.0,0.0,0.0,0.0,0.0,0.0,0.0,0.0,0.0,0.0,0.0,0.0,0.0,0.0,0.0,0.0,0.0,0.0,0.0,0.0,0.0,0.0,0.0,0.0,0.0,0.0,0.0,0.0,0.0,0.0,0.0,0.0,0.0,0.0,0.0,0.0,0.0,0.0,0.0,0.0,0.0,0.0,0.0,0.0,0.0,0.0,0.0,0.0,0.0,0.0,0.0,0.0,0.0,0.0,0.0,0.0,0.0,0.0,0.0,0.0,0.0,0.0,0.0,0.0,0.0,0.0,0.0,0.0,0.0,0.0,0.0,0.0,0.0,0.0,0.0,0.0,0.0,0.0,0.0,0.0,0.0,0.0,0.0,0.0,0.0,0.0,0.0,0.0,0.0,0.0,0.0,0.0,0.0,0.0,0.0,0.0,0.0,0.0,0.0,0.0,0.0,0.0,0.0,0.0,0.0,0.0,0.0,0.0,0.0,0.0,0.0,0.0,0.0,0.0,0.0,0.0,0.0,0.0,0.0,0.0,0.0,0.0,0.0,0.0,0.0,0.0,0.0,0.0,0.0,0.0,0.0,0.0,0.0,0.0,0.0,0.0,0.0,0.0,0.0,0.0,0.0,0.0,0.0,0.0,0.0,0.0,0.0,0.0,0.0,0.0,0.0,0.0,0.0,0.0,0.0,0.0,0.0,0.0,0.0,0.0,0.0,0.0,0.0,0.0,0.0,0.0,0.0,0.0,0.0,0.0,0.0,0.0,0.0,0.0,0.0,0.0,0.0,0.0,0.0,0.0,0.0,0.0,0.0,0.0,0.0,0.0,0.0,0.0,0.0,0.0,0.0,0.0,0.0,0.0,0.0,0.0,0.0,0.0,0.0,0.0,0.0,0.0,0.0,0.0,0.0,0.0,0.0,0.0,0.0,0.0,0.0,0.0,0.0,0.0,0.0,0.0,0.0,0.0,0.0,0.0,0.0,0.0,0.0,0.0,0.0,0.0,0.0,0.0,0.0,0.0,0.0,0.0,0.0,0.0,0.0,0.0,0.0,0.0,0.0,0.0,0.0,0.0,0.0,0.0,0.0,0.0,0.0,0.0,0.0,0.0,0.0,0.0,0.0,0.0,0.0,0.0,0.0,0.0,0.0,0.0,0.0,0.0,0.0,0.0,0.0,0.0,0.0,0.0,0.0,0.0,0.0,0.0,0.0,0.0,0.0,0.0,0.0,0.0,0.0,0.0,0.0,0.0,0.0,0.0,0.0,0.0,0.0,0.0,0.0,0.0,0.0,0.0,0.0,0.0,0.0,0.0,0.0,0.0,0.0,0.0,0.0,0.0,0.0,0.0,0.0,0.0,0.0,0.0,0.0,0.0,0.0,0.0,0.0,0.0,0.0,0.0,0.0,0.0,0.0,0.0,0.0,0.0,0.0,0.0,0.0,0.0,0.0,0.0,0.0,0.0,0.0,0.0,0.0,0.0,0.0,0.0,0.0,0.0,0.0,0.0,0.0,0.0,0.0,0.0,0.0,0.0,0.0,0.0,0.0,0.0,0.0,0.0,0.0,0.0,0.0,0.0,0.0,0.0,0.0,0.0,0.0,0.0,0.0,0.0,0.0,0.0,0.0,0.0,0.0,0.0,0.0,0.0,0.0,0.0,0.0,0.0,0.0,0.0,0.0,0.0,0.0,0.0,0.0,0.0,0.0,0.0,0.0,0.0,0.0,0.0,0.0,0.0,0.0,0.0,0.0,0.0,0.0,0.0,0.0,0.0,0.0,0.0,0.0,0.0,0.0,0.0,0.0,0.0,0.0,0.0,0.0,0.0,0.0,0.0,0.0,0.0,0.0,0.0,0.0,0.0,0.0,0.0,0.0,0.0,0.0,0.0,0.0,0.0,0.0,0.0,0.0,0.0,0.0,0.0,0.0,0.0,0.0,0.0,0.0,0.0,0.0,0.0,0.0,0.0,0.0,0.0,0.0,0.0,0.0,0.0,0.0,0.0,0.0,0.0,0.0,0.0,0.0,0.0,0.0,0.0,0.0,0.0,0.0,0.0,0.0,0.0,0.0,0.0,0.0,0.0,0.0,0.0,0.0,0.0,0.0,0.0,0.0,0.0,0.0,0.0,0.0,0.0,0.0,0.0,0.0,0.0,0.0,0.0,0.0,0.0,0.0,0.0,0.0,0.0,0.0,0.0,0.0,0.0,0.0,0.0,0.0,0.0,0.0,0.0,0.0,0.0,0.0,0.0,0.0,0.0,0.0,0.0,0.0,0.0,0.0,0.0,0.0,0.0,0.0,0.0,0.0,0.0,0.0,0.0,0.0,0.0,0.0,0.0,0.0,0.0,0.0,0.0,0.0,0.0,0.0,0.0,0.0,0.0,0.0,0.0,0.0,0.0,0.0,0.0,0.0,0.0,0.0,0.0,0.0,0.0,0.0,0.0,0.0,0.0,0.0,0.0,0.0,0.0,0.0,0.0,0.0,0.0,0.0,0.0,0.0,0.0,0.0,0.0,0.0,0.0,0.0,0.0,0.0,0.0,0.0,0.0,0.0,0.0,0.0,0.0,0.0,0.0,0.0,0.0,0.0,0.0,0.0,0.0,0.0,0.0,0.0,0.0,0.0,0.0,0.0,0.0,0.0,0.0,0.0,0.0,0.0,0.0,0.0,0.0,0.0,0.0,0.0,0.0,0.0,0.0,0.0,0.0,0.0,0.0,0.0,0.0,0.0,0.0,0.0,0.0,0.0,0.0,0.0,0.0,0.0,0.0,0.0,0.0,0.0,0.0,0.0,0.0,0.0,0.0,0.0,0.0,0.0,0.0,0.0,0.0,0.0,0.0,0.0,0.0,0.0,0.0,0.0,0.0,0.0,0.0,0.0,0.0,0.0,0.0,0.0,0.0,0.0,0.0,0.0,0.0,0.0,0.0,0.0,0.0,0.0,0.0,0.0,0.0,0.0,0.0,0.0,0.0,0.0,0.0,0.0,0.0,0.0,0.0,0.0,0.0,0.0,0.0,0.0,0.0,0.0,0.0,0.0,0.0,0.0,0.0,0.0,0.0,0.0,0.0,0.0,0.0,0.0,0.0,0.0,0.0,0.0,0.0,0.0,0.0,0.0,0.0,0.0,0.0,0.0,0.0,0.0,0.0,0.0,0.0,0.0,0.0,0.0,0.0,0.0,0.0,0.0,0.0,0.0,0.0,0.0,0.0,0.0,0.0,0.0,0.0,0.0,0.0,0.0,0.0,0.0,0.0,0.0,0.0,0.0,0.0,0.0,0.0,0.0,0.0,0.0,0.0,0.0,0.0,0.0,0.0,0.0,0.0,0.0,0.0,0.0,0.0,0.0,0.0,0.0,0.0,0.0,0.0,0.0,0.0,0.0,0.0,0.0,0.0,0.0,0.0,0.0,0.0,0.0,0.0,0.0,0.0,0.0,0.0,0.0,0.0,0.0,0.0,0.0,0.0,0.0,0.0,0.0,0.0,0.0,0.0,0.0,0.0,0.0,0.0,0.0,0.0,0.0,0.0,0.0,0.0,0.0,0.0,0.0,0.0,0.0,0.0,0.0,0.0,0.0,0.0,0.0,0.0,0.0,0.0,0.0,0.0,0.0,0.0,0.0,0.0,0.0,0.0,0.0,0.0,0.0,0.0,0.0,0.0,0.0,0.0,0.0,0.0,0.0,0.0,0.0,0.0,0.0,0.0,0.0,0.0,0.0,0.0,0.0,0.0,0.0,0.0,0.0,0.0,0.0,0.0,0.0,0.0,0.0,0.0,0.0,0.0,0.0,0.0,0.0,0.0,0.0,0.0,0.0,0.0,0.0,0.0,0.0,0.0,0.0,0.0,0.0,0.0,0.0,0.0,0.0,0.0,0.0,0.0,0.0,0.0,2.3079,0.0,0.0,0.0,0.0,0.0,0.0,0.0,0.0,0.0,0.0,0.0,0.0,0.0,0.0,0.0,0.0,0.0,0.0,0.0,0.0,0.0,0.0,0.0,0.0,0.0,0.0,0.0,0.0,0.0,0.0,0.0,0.0,0.0,0.0,0.0,0.0,0.0,0.0,0.0,0.0,0.0,0.0,0.0,0.0,0.0,0.0,0.0,0.0,0.0,0.0,0.0,0.0,0.0,0.0,0.0,0.0,0.0,0.0,0.0,0.0,0.0,0.0,0.0,0.0,0.0,0.0,0.0,0.0,0.0,0.0,0.0,0.0,0.0,0.0,0.0,0.0,0.0,0.0,0.0,0.0,0.0,0.0,0.0,0.0,0.0,0.0,0.0,0.0,0.0,0.0,0.0,0.0,0.0,0.0,0.0,0.0,0.0,0.0,0.0,0.0,0.0,0.0,0.0,0.0,0.0,0.0,0.0,0.0,0.0,0.0,2.6429,2.6067,2.6062,2.5516,2.4341,0.0,0.0,0.0,0.0,0.0,0.0,0.0,0.0,0.0,0.0,0.0,0.0,0.0,0.0,0.0,0.0,0.0,0.0,0.0,0.0,0.0,0.0,0.0,0.0,0.0,0.0,0.0,0.0,0.0,0.0,0.0,0.0,0.0,0.0,0.0,0.0,0.0,0.0,0.0,0.0,0.0,0.0,0.0,0.0,0.0,0.0,0.0,0.0,0.0,0.0,0.0,0.0,0.0,0.0,0.0,0.0,0.0,0.0,0.0,0.0,0.0,0.0,0.0,0.0,0.0,0.0,0.0,0.0,0.0,0.0,0.0,0.0,0.0,0.0,0.0,0.0,0.0,0.0,0.0,0.0,0.0,0.0,0.0,0.0,0.0,0.0,0.0,0.0,0.0,0.0,0.0,0.0,0.0,0.0,0.0,0.0,0.0,0.0,0.0,0.0,0.0,0.0,0.0,0.0,0.0,0.0,0.0,0.0,0.0,0.0,0.0,0.0,2.6869,2.6397,2.5379,0.0,0.0,0.0,0.0,0.0,0.0,0.0,0.0,0.0,0.0,0.0,0.0,0.0,0.0,0.0,0.0,0.0,0.0,0.0,0.0,0.0,0.0,0.0,0.0,0.0,0.0,0.0,0.0,0.0,0.0,0.0,0.0,0.0,0.0,0.0,0.0,0.0,0.0,0.0,0.0,0.0,0.0,0.0,0.0,0.0,0.0,0.0,0.0,0.0,0.0,0.0,0.0,0.0,0.0,0.0,0.0,0.0,0.0,0.0,0.0,0.0,0.0,0.0,0.0,0.0,0.0,0.0,0.0,0.0,0.0,0.0,0.0,0.0,0.0,0.0,0.0,0.0,0.0,0.0,0.0,0.0,0.0,0.0,0.0,0.0,0.0,0.0,0.0,0.0,0.0,0.0,0.0,0.0,0.0,0.0,0.0,0.0,0.0,0.0,0.0,0.0,0.0,0.0,0.0,0.0,0.0,0.0,0.0,0.0,0.0,2.8442,2.7719,2.7719,0.0,2.5416,0.0,0.0,0.0,0.0,0.0,0.0,0.0,0.0,0.0,0.0,0.0,0.0,0.0,0.0,0.0,0.0,0.0,0.0,0.0,0.0,0.0,0.0,0.0,0.0,0.0,0.0,0.0,0.0,0.0,0.0,0.0,0.0,0.0,0.0,0.0,0.0,0.0,0.0,0.0,0.0,0.0,0.0,0.0,0.0,0.0,0.0,0.0,0.0,0.0,0.0,0.0,0.0,0.0,0.0,0.0,0.0,0.0,0.0,0.0,0.0,0.0,0.0,0.0,0.0,0.0,0.0,0.0,0.0,0.0,0.0,0.0,0.0,0.0,0.0,0.0,0.0,0.0,0.0,0.0,0.0,0.0,0.0,0.0,0.0,0.0,0.0,0.0,0.0,0.0,0.0,0.0,0.0,0.0,0.0,0.0,0.0,0.0,0.0,0.0,0.0,0.0,0.0,0.0,0.0,0.0,0.0,0.0,0.0,0.0,0.0,2.906,2.9219,2.8772,2.775,0.0,0.0,0.0,0.0,0.0,0.0,0.0,0.0,0.0,0.0,0.0,0.0,0.0,0.0,0.0,0.0,0.0,0.0,0.0,0.0,0.0,0.0,0.0,0.0,0.0,0.0,0.0,0.0,0.0,0.0,0.0,0.0,0.0,0.0,0.0,0.0,0.0,0.0,0.0,0.0,0.0,0.0,0.0,0.0,0.0,0.0,0.0,0.0,0.0,0.0,0.0,0.0,0.0,0.0,0.0,0.0,0.0,0.0,0.0,0.0,0.0,0.0,0.0,0.0,0.0,0.0,0.0,0.0,0.0,0.0,0.0,0.0,0.0,0.0,0.0,0.0,0.0,0.0,0.0,0.0,0.0,0.0,0.0,0.0,0.0,0.0,0.0,0.0,0.0,0.0,0.0,0.0,0.0,0.0,0.0,0.0,0.0,0.0,0.0,0.0,0.0,0.0,0.0,0.0,0.0,0.0,0.0,0.0,0.0,0.0,2.8919,2.9616,3.013,2.9427,2.8253,2.6638,0.0,0.0,0.0,0.0,0.0,0.0,0.0,0.0,0.0,0.0,0.0,0.0,0.0,0.0,0.0,0.0,0.0,0.0,0.0,0.0,0.0,0.0,0.0,0.0,0.0,0.0,0.0,0.0,0.0,0.0,0.0,0.0,0.0,0.0,0.0,0.0,0.0,0.0,0.0,0.0,0.0,0.0,0.0,0.0,0.0,0.0,0.0,0.0,0.0,0.0,0.0,0.0,0.0,0.0,0.0,0.0,0.0,0.0,0.0,0.0,0.0,0.0,0.0,0.0,0.0,0.0,0.0,0.0,0.0,0.0,0.0,0.0,0.0,0.0,0.0,0.0,0.0,0.0,0.0,0.0,0.0,0.0,0.0,0.0,0.0,0.0,0.0,0.0,0.0,0.0,0.0,0.0,0.0,0.0,0.0,0.0,0.0,0.0,0.0,0.0,0.0,0.0,0.0,0.0,0.0,0.0,0.0,0.0,2.8913,2.9721,3.0167,3.021,2.9427,2.8253,0.0,0.0,0.0,0.0,0.0,0.0,0.0,0.0,0.0,0.0,0.0,0.0,0.0,0.0,0.0,0.0,0.0,0.0,0.0,0.0,0.0,0.0,0.0,0.0,0.0,0.0,0.0,0.0,0.0,0.0,0.0,0.0,0.0,0.0,0.0,0.0,0.0,0.0,0.0,0.0,0.0,0.0,0.0,0.0,0.0,0.0,0.0,0.0,0.0,0.0,0.0,0.0,0.0,0.0,0.0,0.0,0.0,0.0,0.0,0.0,0.0,0.0,0.0,0.0,0.0,0.0,0.0,0.0,0.0,0.0,0.0,0.0,0.0,0.0,0.0,0.0,0.0,0.0,0.0,0.0,0.0,0.0,0.0,0.0,0.0,0.0,0.0,0.0,0.0,0.0,0.0,0.0,0.0,0.0,0.0,0.0,0.0,0.0,0.0,0.0,0.0,0.0,0.0,0.0,0.0,0.0,0.0,0.0,0.0,2.895,3.0283,3.0987,3.095,3.0687,2.9512,0.0,0.0,0.0,0.0,0.0,0.0,0.0,0.0,0.0,0.0,0.0,0.0,0.0,0.0,0.0,0.0,0.0,0.0,0.0,0.0,0.0,0.0,0.0,0.0,0.0,0.0,0.0,0.0,0.0,0.0,0.0,0.0,0.0,0.0,0.0,0.0,0.0,0.0,0.0,0.0,0.0,0.0,0.0,0.0,0.0,0.0,0.0,0.0,0.0,0.0,0.0,0.0,0.0,0.0,0.0,0.0,0.0,0.0,0.0,0.0,0.0,0.0,0.0,0.0,0.0,0.0,0.0,0.0,0.0,0.0,0.0,0.0,0.0,0.0,0.0,0.0,0.0,0.0,0.0,0.0,0.0,0.0,0.0,0.0,0.0,0.0,0.0,0.0,0.0,0.0,0.0,0.0,0.0,0.0,0.0,0.0,0.0,0.0,0.0,0.0,0.0,0.0,0.0,0.0,0.0,0.0,0.0,0.0,0.0,3.0087,0.0,3.2161,0.0,3.1885,3.0516,0.0,0.0,0.0,0.0,0.0,0.0,0.0,0.0,0.0,0.0,0.0,0.0,0.0,0.0,0.0,0.0,0.0,0.0,0.0,0.0,0.0,0.0,0.0,0.0,0.0,0.0,0.0,0.0,0.0,0.0,0.0,0.0,0.0,0.0,0.0,0.0,0.0,0.0,0.0,0.0,0.0,0.0,0.0,0.0,0.0,0.0,0.0,0.0,0.0,0.0,0.0,0.0,0.0,0.0,0.0,0.0,0.0,0.0,0.0,0.0,0.0,0.0,0.0,0.0,0.0,0.0,0.0,0.0,0.0,0.0,0.0,0.0,0.0,0.0,0.0,0.0,0.0,0.0,0.0,0.0,0.0,0.0,0.0,0.0,0.0,0.0,0.0,0.0,0.0,0.0,0.0,0.0,0.0,0.0,0.0,0.0,0.0,0.0,0.0,0.0,0.0,0.0,0.0,0.0,0.0,0.0,0.0,0.0,2.8656,3.2436,3.3396,3.3837,3.38,3.3013,3.1046,0.0,0.0,0.0,0.0,0.0,0.0,0.0,0.0,0.0,0.0,0.0,0.0,0.0,0.0,0.0,0.0,0.0,0.0,0.0,0.0,0.0,0.0,0.0,0.0,0.0,0.0,0.0,0.0,0.0,0.0,0.0,0.0,0.0,0.0,0.0,0.0,0.0,0.0,0.0,0.0,0.0,0.0,0.0,0.0,0.0,0.0,0.0,0.0,0.0,0.0,0.0,0.0,0.0,0.0,0.0,0.0,0.0,0.0,0.0,0.0,0.0,0.0,0.0,0.0,0.0,0.0,0.0,0.0,0.0,0.0,0.0,0.0,0.0,0.0,0.0,0.0,0.0,0.0,0.0,0.0,0.0,0.0,0.0,0.0,0.0,0.0,0.0,0.0,0.0,0.0,0.0,0.0,0.0,0.0,0.0,0.0,0.0,0.0,0.0,0.0,0.0,0.0,0.0,0.0,0.0,0.0,0.0,0.0,0.0,3.4115,3.4956,3.5623,3.6061,3.4797,3.2563,0.0,0.0,0.0,0.0,0.0,0.0,0.0,0.0,0.0,0.0,0.0,0.0,0.0,0.0,0.0,0.0,0.0,0.0,0.0,0.0,0.0,0.0,0.0,0.0,0.0,0.0,0.0,0.0,0.0,0.0,0.0,0.0,0.0,0.0,0.0,0.0,0.0,0.0,0.0,0.0,0.0,0.0,0.0,0.0,0.0,0.0,0.0,0.0,0.0,0.0,0.0,0.0,0.0,0.0,0.0,0.0,0.0,0.0,0.0,0.0,0.0,0.0,0.0,0.0,0.0,0.0,0.0,0.0,0.0,0.0,0.0,0.0,0.0,0.0,0.0,0.0,0.0,0.0,0.0,0.0,0.0,0.0,0.0,0.0,0.0,0.0,0.0,0.0,0.0,0.0,0.0,0.0,0.0,0.0,0.0,0.0,0.0,0.0,0.0,0.0,0.0,0.0,0.0,0.0,0.0,0.0,0.0,0.0,0.0,3.6861,3.747,3.7834,3.7996,3.6394,3.388,3.0437,0.0,0.0,0.0,0.0,0.0,0.0,0.0,0.0,0.0,0.0,0.0,0.0,0.0,0.0,0.0,0.0,0.0,0.0,0.0,0.0,0.0,0.0,0.0,0.0,0.0,0.0,0.0,0.0,0.0,0.0,0.0,0.0,0.0,0.0,0.0,0.0,0.0,0.0,0.0,0.0,0.0,0.0,0.0,0.0,0.0,0.0,0.0,0.0,0.0,0.0,0.0,0.0,0.0,0.0,0.0,0.0,0.0,0.0,0.0,0.0,0.0,0.0,0.0,0.0,0.0,0.0,0.0,0.0,0.0,0.0,0.0,0.0,0.0,0.0,0.0,0.0,0.0,0.0,0.0,0.0,0.0,0.0,0.0,0.0,0.0,0.0,0.0,0.0,0.0,0.0,0.0,0.0,0.0,0.0,0.0,0.0,0.0,0.0,0.0,0.0,0.0,0.0,0.0,0.0,0.0,0.0,0.0,0.0,4.0364,4.0745,4.0465,3.9471,3.7849,3.5111,0.0,0.0,0.0,0.0,0.0,0.0,0.0,0.0,0.0,0.0,0.0,0.0,0.0,0.0,0.0,0.0,0.0,0.0,0.0,0.0,0.0,0.0,0.0,0.0,0.0,0.0,0.0,0.0,0.0,0.0,0.0,0.0,0.0,0.0,0.0,0.0,0.0,0.0,0.0,0.0,0.0,0.0,0.0,0.0,0.0,0.0,0.0,0.0,0.0,0.0,0.0,0.0,0.0,0.0,0.0,0.0,0.0,0.0,0.0,0.0,0.0,0.0,0.0,0.0,0.0,0.0,0.0,0.0,0.0,0.0,0.0,0.0,0.0,0.0,0.0,0.0,0.0,0.0,0.0,0.0,0.0,0.0,0.0,0.0,0.0,0.0,0.0,0.0,0.0,0.0,0.0,0.0,0.0,0.0,0.0,0.0,0.0,0.0,0.0,0.0,0.0,0.0,0.0,0.0,0.0,0.0,0.0,0.0,0.0,4.1624,4.3829,4.385,4.1541,3.9911,3.697,0.0,0.0,0.0,0.0,0.0,0.0,0.0,0.0,0.0,0.0,0.0,0.0,0.0,0.0,0.0,0.0,0.0,0.0,0.0,0.0,0.0,0.0,0.0,0.0,0.0,0.0,0.0,0.0,0.0,0.0,0.0,0.0,0.0,0.0,0.0,0.0,0.0,0.0,0.0,0.0,0.0,0.0,0.0,0.0,0.0,0.0,0.0,0.0,0.0,0.0,0.0,0.0,0.0,0.0,0.0,0.0,0.0,0.0,0.0,0.0,0.0,0.0,0.0,0.0,0.0,0.0,0.0,0.0,0.0,0.0,0.0,0.0,0.0,0.0,0.0,0.0,0.0,0.0,0.0,0.0,0.0,0.0,0.0,0.0,0.0,0.0,0.0,0.0,0.0,0.0,0.0,0.0,0.0,0.0,0.0,0.0,0.0,0.0,0.0,0.0,0.0,0.0,0.0,0.0,0.0,0.0,0.0,0.0,3.9724,4.2927,4.5199,4.5517,4.3777,4.1686,3.8553,0.0,0.0,0.0,0.0,0.0,0.0,0.0,0.0,0.0,0.0,0.0,0.0,0.0,0.0,0.0,0.0,0.0,0.0,0.0,0.0,0.0,0.0,0.0,0.0,0.0,0.0,0.0,0.0,0.0,0.0,0.0,0.0,0.0,0.0,0.0,0.0,0.0,0.0,0.0,0.0,0.0,0.0,0.0,0.0,0.0,0.0,0.0,0.0,0.0,0.0,0.0,0.0,0.0,0.0,0.0,0.0,0.0,0.0,0.0,0.0,0.0,0.0,0.0,0.0,0.0,0.0,0.0,0.0,0.0,0.0,0.0,0.0,0.0,0.0,0.0,0.0,0.0,0.0,0.0,0.0,0.0,0.0,0.0,0.0,0.0,0.0,0.0,0.0,0.0,0.0,0.0,0.0,0.0,0.0,0.0,0.0,0.0,0.0,0.0,0.0,0.0,0.0,0.0,0.0,0.0,0.0,0.0,0.0,4.0587,4.4014,4.5605,4.625,4.5952,4.329,3.9947,0.0,0.0,0.0,0.0,0.0,0.0,0.0,0.0,0.0,0.0,0.0,0.0,0.0,0.0,0.0,0.0,0.0,0.0,0.0,0.0,0.0,0.0,0.0,0.0,0.0,0.0,0.0,0.0,0.0,0.0,0.0,0.0,0.0,0.0,0.0,0.0,0.0,0.0,0.0,0.0,0.0,0.0,0.0,0.0,0.0,0.0,0.0,0.0,0.0,0.0,0.0,0.0,0.0,0.0,0.0,0.0,0.0,0.0,0.0,0.0,0.0,0.0,0.0,0.0,0.0,0.0,0.0,0.0,0.0,0.0,0.0,0.0,0.0,0.0,0.0,0.0,0.0,0.0,0.0,0.0,0.0,0.0,0.0,0.0,0.0,0.0,0.0,0.0,0.0,0.0,0.0,0.0,0.0,0.0,0.0,0.0,0.0,0.0,0.0,0.0,0.0,0.0,0.0,0.0,0.0,0.0,0.0,0.0,4.1742,4.4705,4.6599,4.7515,4.7453,4.4642,4.0987,0.0,0.0,0.0,0.0,0.0,0.0,0.0,0.0,0.0,0.0,0.0,0.0,0.0,0.0,0.0,0.0,0.0,0.0,0.0,0.0,0.0,0.0,0.0,0.0,0.0,0.0,0.0,0.0,0.0,0.0,0.0,0.0,0.0,0.0,0.0,0.0,0.0,0.0,0.0,0.0,0.0,0.0,0.0,0.0,0.0,0.0,0.0,0.0,2.1715,0.0,0.0,0.0,0.0,0.0,0.0,0.0,0.0,0.0,0.0,0.0,0.0,0.0,0.0,0.0,0.0,0.0,0.0,0.0,0.0,0.0,0.0,0.0,0.0,0.0,0.0,0.0,0.0,0.0,0.0,0.0,0.0,0.0,0.0,0.0,0.0,0.0,0.0,0.0,0.0,0.0,0.0,0.0,0.0,0.0,0.0,0.0,0.0,0.0,0.0,0.0,0.0,0.0,0.0,0.0,0.0,0.0,0.0,0.0,4.2437,4.5217,4.7341,4.8211,4.7755,4.526,4.1891,0.0,0.0,0.0,0.0,0.0,0.0,0.0,0.0,0.0,0.0,0.0,0.0,0.0,0.0,0.0,0.0,0.0,0.0,0.0,0.0,0.0,0.0,0.0,0.0,0.0,0.0,0.0,0.0,0.0,0.0,0.0,0.0,0.0,0.0,0.0,0.0,0.0,0.0,0.0,0.0,0.0,0.0,0.0,0.0,0.0,0.0,0.0,0.0,0.0,0.0,0.0,0.0,0.0,0.0,0.0,0.0,0.0,0.0,0.0,0.0,0.0,0.0,0.0,0.0,0.0,0.0,0.0,0.0,0.0,0.0,0.0,0.0,0.0,0.0,0.0,0.0,0.0,0.0,0.0,0.0,0.0,0.0,0.0,0.0,0.0,0.0,0.0,0.0,0.0,0.0,0.0,0.0,0.0,0.0,0.0,0.0,0.0,0.0,0.0,0.0,0.0,0.0,0.0,0.0,0.0,0.0,0.0,3.969,4.2904,4.5511,4.7768,4.8515,4.7617,4.544,4.2492,3.8787,0.0,0.0,0.0,0.0,0.0,0.0,0.0,0.0,0.0,0.0,0.0,0.0,0.0,0.0,0.0,0.0,0.0,0.0,0.0,0.0,0.0,0.0,0.0,0.0,0.0,0.0,0.0,0.0,0.0,0.0,0.0,0.0,0.0,0.0,0.0,0.0,0.0,0.0,2.1214,2.3856,0.0,0.0,0.0,0.0,0.0,0.0,0.0,0.0,2.5989,0.0,0.0,0.0,0.0,0.0,0.0,0.0,0.0,0.0,0.0,0.0,0.0,0.0,0.0,0.0,0.0,0.0,0.0,0.0,0.0,0.0,0.0,0.0,0.0,0.0,0.0,0.0,0.0,0.0,0.0,0.0,0.0,0.0,0.0,0.0,0.0,0.0,0.0,0.0,0.0,0.0,0.0,0.0,0.0,0.0,0.0,0.0,0.0,0.0,0.0,0.0,0.0,0.0,0.0,0.0,0.0,3.5837,4.0021,4.3234,4.5402,4.7554,4.8218,4.7253,4.5145,4.2167,3.8345,0.0,0.0,0.0,0.0,0.0,0.0,0.0,0.0,0.0,0.0,0.0,0.0,0.0,0.0,0.0,0.0,0.0,0.0,0.0,0.0,0.0,0.0,0.0,0.0,0.0,0.0,0.0,0.0,0.0,0.0,0.0,0.0,0.0,0.0,0.0,0.0,0.0,0.0,0.0,2.6784,2.8409,0.0,0.0,0.0,0.0,0.0,0.0,0.0,0.0,2.6728,0.0,0.0,0.0,0.0,0.0,0.0,0.0,0.0,0.0,0.0,0.0,0.0,0.0,0.0,0.0,0.0,0.0,0.0,0.0,0.0,0.0,0.0,0.0,0.0,0.0,0.0,0.0,0.0,0.0,0.0,0.0,0.0,0.0,0.0,0.0,0.0,0.0,0.0,0.0,0.0,0.0,0.0,0.0,0.0,0.0,0.0,0.0,0.0,0.0,0.0,0.0,0.0,0.0,0.0,0.0,3.6103,4.0088,4.3138,4.5142,4.7009,4.7712,4.7133,4.4291,4.11,0.0,0.0,0.0,0.0,0.0,0.0,0.0,0.0,0.0,0.0,0.0,0.0,0.0,0.0,0.0,0.0,0.0,0.0,0.0,0.0,0.0,0.0,0.0,0.0,0.0,0.0,0.0,0.0,0.0,0.0,0.0,0.0,0.0,0.0,0.0,0.0,0.0,0.0,0.0,0.0,2.8284,2.9733,3.0476,0.0,0.0,0.0,0.0,0.0,0.0,2.8703,2.821,0.0,0.0,0.0,0.0,0.0,0.0,0.0,0.0,0.0,0.0,0.0,0.0,0.0,0.0,0.0,0.0,0.0,0.0,0.0,0.0,0.0,0.0,0.0,0.0,0.0,0.0,0.0,0.0,0.0,0.0,0.0,0.0,0.0,0.0,0.0,0.0,0.0,0.0,0.0,0.0,0.0,0.0,0.0,0.0,0.0,0.0,0.0,0.0,0.0,0.0,0.0,0.0,0.0,0.0,0.0,3.653,4.0238,4.3138,4.5104,4.6689,4.7343,4.7047,4.3481,4.0117,0.0,0.0,0.0,0.0,0.0,0.0,0.0,0.0,0.0,0.0,0.0,0.0,0.0,0.0,0.0,0.0,0.0,0.0,0.0,0.0,0.0,0.0,0.0,0.0,0.0,0.0,0.0,0.0,0.0,0.0,0.0,0.0,0.0,0.0,0.0,0.0,0.0,0.0,0.0,0.0,0.0,3.0685,3.1001,3.2216,0.0,0.0,0.0,0.0,3.1213,3.0508,0.0,0.0,0.0,0.0,0.0,0.0,0.0,0.0,0.0,0.0,0.0,0.0,0.0,0.0,0.0,0.0,0.0,0.0,0.0,0.0,0.0,0.0,0.0,0.0,0.0,0.0,0.0,0.0,0.0,0.0,0.0,0.0,0.0,0.0,0.0,0.0,0.0,0.0,0.0,0.0,0.0,0.0,0.0,0.0,0.0,0.0,0.0,0.0,0.0,0.0,0.0,0.0,0.0,0.0,0.0,0.0,3.7172,4.0825,4.3644,4.5722,4.7253,4.7636,4.6811,4.322,3.9867,0.0,0.0,0.0,0.0,0.0,0.0,0.0,0.0,0.0,0.0,0.0,0.0,0.0,0.0,0.0,0.0,0.0,0.0,0.0,0.0,0.0,0.0,0.0,0.0,0.0,0.0,0.0,0.0,0.0,0.0,0.0,0.0,0.0,0.0,0.0,0.0,0.0,0.0,0.0,0.0,0.0,3.169,3.2967,3.3817,3.418,0.0,0.0,3.3986,3.3195,3.2586,0.0,0.0,0.0,0.0,0.0,0.0,0.0,0.0,0.0,0.0,0.0,0.0,0.0,0.0,0.0,0.0,0.0,0.0,0.0,0.0,0.0,0.0,0.0,0.0,0.0,0.0,0.0,0.0,0.0,0.0,0.0,0.0,0.0,0.0,0.0,0.0,0.0,0.0,0.0,0.0,0.0,0.0,0.0,0.0,0.0,0.0,0.0,0.0,0.0,0.0,0.0,0.0,0.0,0.0,0.0,3.2464,3.7135,4.0356,4.3178,4.5702,4.6414,4.6757,4.6786,4.2773,3.9389,0.0,0.0,0.0,0.0,0.0,0.0,0.0,0.0,0.0,0.0,0.0,0.0,0.0,0.0,0.0,0.0,0.0,0.0,0.0,0.0,0.0,0.0,0.0,0.0,0.0,0.0,0.0,0.0,0.0,0.0,0.0,0.0,0.0,0.0,0.0,0.0,0.0,0.0,0.0,0.0,0.0,0.0,3.4387,3.5376,0.0,0.0,0.0,3.5912,3.5109,0.0,0.0,0.0,0.0,0.0,0.0,0.0,0.0,0.0,0.0,0.0,0.0,0.0,0.0,0.0,0.0,0.0,0.0,0.0,0.0,0.0,0.0,0.0,0.0,0.0,0.0,0.0,0.0,0.0,0.0,0.0,0.0,0.0,0.0,0.0,0.0,0.0,0.0,0.0,0.0,0.0,0.0,0.0,0.0,0.0,0.0,0.0,0.0,0.0,0.0,0.0,0.0,0.0,0.0,0.0,0.0,0.0,3.7251,4.0161,4.3057,4.5838,4.593,4.6152,4.664,4.2355,0.0,0.0,0.0,0.0,0.0,0.0,0.0,0.0,0.0,0.0,0.0,0.0,0.0,0.0,0.0,0.0,0.0,0.0,0.0,0.0,0.0,0.0,0.0,0.0,0.0,0.0,0.0,1.6522,0.0,0.0,0.0,0.0,0.0,0.0,0.0,0.0,0.0,0.0,0.0,0.0,0.0,0.0,3.4953,3.5918,3.7167,3.7786,0.0,0.0,3.7887,3.7076,3.6236,3.4973,0.0,0.0,0.0,0.0,0.0,0.0,0.0,0.0,0.0,0.0,0.0,0.0,0.0,0.0,0.0,0.0,0.0,0.0,0.0,0.0,0.0,0.0,0.0,0.0,0.0,0.0,0.0,0.0,0.0,0.0,0.0,0.0,0.0,0.0,0.0,0.0,0.0,0.0,0.0,0.0,0.0,0.0,0.0,0.0,0.0,0.0,0.0,0.0,0.0,0.0,0.0,0.0,0.0,0.0,3.2754,3.7839,4.076,4.3687,4.6583,4.6536,4.6447,4.6462,4.2111,3.8677,0.0,0.0,0.0,0.0,0.0,0.0,0.0,0.0,0.0,0.0,0.0,0.0,0.0,0.0,0.0,0.0,0.0,0.0,0.0,0.0,0.0,0.0,0.0,0.0,0.0,0.0,0.0,0.0,0.0,0.0,0.0,0.0,0.0,0.0,0.0,0.0,0.0,0.0,0.0,0.0,0.0,3.6462,3.782,3.9254,4.0102,0.0,4.0041,3.9912,3.91,3.7911,3.6289,3.4048,0.0,0.0,0.0,0.0,0.0,0.0,0.0,0.0,0.0,0.0,0.0,0.0,0.0,0.0,0.0,0.0,0.0,0.0,0.0,0.0,0.0,0.0,0.0,0.0,0.0,0.0,0.0,0.0,0.0,0.0,0.0,0.0,0.0,0.0,0.0,0.0,0.0,0.0,0.0,0.0,0.0,0.0,0.0,0.0,0.0,0.0,0.0,0.0,0.0,0.0,0.0,0.0,0.0,3.3643,3.7833,4.118,4.4018,4.6369,4.6864,4.6788,4.6213,4.276,3.9607,0.0,0.0,0.0,0.0,0.0,0.0,0.0,0.0,0.0,0.0,0.0,0.0,0.0,0.0,0.0,0.0,0.0,0.0,0.0,0.0,0.0,0.0,0.0,0.0,0.0,0.0,0.0,0.0,2.0682,2.1505,2.2644,0.0,0.0,0.0,0.0,0.0,0.0,0.0,0.0,0.0,0.0,3.7697,3.9589,4.0751,0.0,0.0,4.0777,4.0642,3.987,3.8948,3.7556,3.5268,3.4077,0.0,0.0,0.0,0.0,0.0,0.0,0.0,0.0,0.0,0.0,0.0,0.0,0.0,0.0,0.0,0.0,0.0,0.0,0.0,0.0,0.0,0.0,0.0,0.0,0.0,0.0,0.0,0.0,0.0,0.0,0.0,0.0,0.0,0.0,0.0,0.0,0.0,0.0,0.0,0.0,0.0,0.0,0.0,0.0,0.0,0.0,0.0,0.0,0.0,0.0,0.0,0.0,3.4384,3.7917,4.1298,4.4049,4.6103,4.6809,4.6764,4.5808,4.3131,4.037,0.0,0.0,0.0,0.0,0.0,0.0,0.0,0.0,0.0,0.0,0.0,0.0,0.0,0.0,0.0,0.0,0.0,0.0,0.0,0.0,0.0,0.0,0.0,0.0,0.0,0.0,0.0,0.0,2.1731,2.25,2.3726,0.0,0.0,0.0,0.0,0.0,0.0,0.0,0.0,0.0,0.0,3.9371,4.1124,4.2096,4.2439,4.1922,4.1944,4.1748,4.0783,4.0007,3.878,3.6543,0.0,0.0,0.0,0.0,0.0,0.0,0.0,0.0,0.0,0.0,0.0,0.0,0.0,0.0,0.0,0.0,0.0,0.0,0.0,0.0,0.0,0.0,0.0,0.0,0.0,0.0,0.0,2.8291,0.0,0.0,2.5665,0.0,0.0,0.0,0.0,0.0,0.0,0.0,0.0,0.0,0.0,0.0,0.0,0.0,0.0,0.0,0.0,0.0,0.0,0.0,0.0,0.0,0.0,3.4879,3.8284,4.1244,4.3761,4.5764,4.6351,4.6255,4.5481,4.3117,4.0782,3.8553,0.0,0.0,0.0,0.0,0.0,0.0,0.0,0.0,0.0,0.0,0.0,0.0,0.0,0.0,0.0,0.0,0.0,0.0,0.0,0.0,0.0,0.0,0.0,0.0,0.0,0.0,2.1284,2.2491,2.3646,0.0,0.0,0.0,0.0,0.0,0.0,0.0,0.0,0.0,3.7041,3.958,4.1598,4.2355,4.3215,4.3702,4.3668,4.3829,4.3494,4.2007,4.1231,4.0012,0.0,0.0,0.0,0.0,0.0,0.0,0.0,0.0,0.0,0.0,0.0,0.0,0.0,0.0,0.0,0.0,0.0,0.0,0.0,0.0,0.0,0.0,0.0,0.0,0.0,0.0,0.0,3.2181,3.1204,0.0,0.0,0.0,0.0,0.0,0.0,0.0,0.0,0.0,0.0,0.0,3.8357,3.8277,0.0,0.0,0.0,0.0,0.0,0.0,0.0,0.0,0.0,0.0,0.0,0.0,3.6551,3.941,4.2191,4.4322,4.5767,4.6451,4.6172,4.487,4.3573,4.1183,3.7635,0.0,0.0,0.0,0.0,0.0,0.0,0.0,0.0,0.0,0.0,0.0,0.0,0.0,0.0,0.0,0.0,0.0,0.0,0.0,0.0,0.0,0.0,0.0,0.0,0.0,2.2348,0.0,0.0,0.0,0.0,0.0,0.0,0.0,0.0,0.0,0.0,3.4433,3.6565,3.9776,4.0936,4.192,4.3124,4.3733,4.372,0.0,0.0,0.0,0.0,0.0,0.0,0.0,0.0,0.0,0.0,0.0,0.0,0.0,0.0,3.6535,3.5102,3.4426,3.4051,3.3978,0.0,0.0,0.0,0.0,0.0,0.0,0.0,0.0,0.0,0.0,0.0,0.0,0.0,0.0,3.6695,3.5492,3.4828,0.0,0.0,0.0,0.0,0.0,0.0,0.0,0.0,3.88,4.048,4.2364,4.2458,4.2392,4.21,4.1323,3.8534,0.0,0.0,0.0,0.0,0.0,0.0,0.0,0.0,3.7788,4.0148,4.2529,4.4334,4.5488,4.6191,4.5911,4.4588,4.3323,4.0991,3.7506,3.5299,3.2928,0.0,0.0,0.0,0.0,0.0,0.0,0.0,0.0,0.0,0.0,0.0,0.0,0.0,0.0,0.0,0.0,0.0,0.0,0.0,0.0,0.0,0.0,0.0,2.3814,0.0,0.0,0.0,0.0,0.0,0.0,0.0,0.0,0.0,3.5527,3.6612,3.8452,4.1255,4.1997,4.2591,4.3537,0.0,0.0,0.0,0.0,0.0,0.0,0.0,4.1898,4.1056,4.1111,4.0983,4.0067,4.0588,4.1294,4.1726,0.0,0.0,3.8339,3.7402,3.701,3.6901,3.6928,3.6928,3.6782,3.6954,3.7213,0.0,0.0,0.0,0.0,4.0397,0.0,0.0,0.0,4.2291,4.1807,0.0,3.9593,0.0,0.0,0.0,0.0,3.6325,3.7797,0.0,0.0,4.3056,4.4467,4.5776,4.6357,4.6234,4.5494,4.458,4.2988,4.0648,3.6882,0.0,0.0,0.0,0.0,0.0,0.0,3.8595,4.0488,4.2286,4.3782,4.4981,4.552,4.5412,4.465,4.2539,4.0411,3.8278,3.7168,3.5413,3.2907,3.1018,0.0,0.0,0.0,0.0,0.0,0.0,0.0,0.0,0.0,0.0,0.0,0.0,0.0,0.0,0.0,0.0,0.0,0.0,0.0,0.0,2.4119,0.0,0.0,0.0,0.0,0.0,0.0,0.0,0.0,0.0,3.7367,3.7458,3.9405,4.1071,4.1537,0.0,0.0,0.0,0.0,4.4203,4.4139,4.444,4.4397,4.3735,4.359,4.3364,4.2734,0.0,0.0,4.261,4.3738,4.4575,4.4651,4.4997,4.4346,4.0896,4.0035,3.9783,3.9768,3.969,3.9676,3.9645,3.9487,3.9597,4.9869,0.0,0.0,0.0,0.0,4.6217,4.6652,4.6804,4.6708,4.5911,4.4641,4.3623,0.0,0.0,0.0,0.0,0.0,0.0,4.3484,4.4625,4.6408,4.7754,4.8632,4.9214,4.9037,4.819,4.7893,4.6566,4.4254,4.2435,3.9282,3.4932,0.0,0.0,0.0,0.0,4.0293,4.2076,4.3381,4.44,4.5131,4.5295,4.5026,4.4288,4.2702,4.1372,4.0277,3.9094,3.7426,3.5201,3.3449,0.0,0.0,0.0,0.0,0.0,0.0,0.0,0.0,0.0,0.0,0.0,0.0,0.0,0.0,0.0,0.0,0.0,0.0,0.0,2.6385,2.7074,2.7859,0.0,0.0,0.0,0.0,0.0,0.0,0.0,0.0,0.0,4.197,4.1617,4.1838,0.0,0.0,4.3957,4.3957,4.4171,4.4173,4.37,4.3778,0.0,4.4262,4.4294,4.4421,4.4671,4.4559,4.4737,4.5678,4.5797,4.5834,4.615,4.6226,4.582,4.4687,4.3212,4.2314,4.2134,4.1792,4.1444,4.1225,4.1379,4.1608,5.5534,5.2438,5.0673,4.9915,5.0013,5.0777,5.1088,5.1027,5.0949,5.0221,4.9029,4.7992,4.6941,4.5886,4.4879,0.0,0.0,0.0,4.6838,4.789,4.9579,5.0575,5.0928,5.1392,5.0987,4.987,4.9682,4.8574,4.6569,4.593,4.3422,3.927,0.0,3.8777,3.8864,4.0318,4.1723,4.2945,4.3747,4.4468,4.5042,4.4924,4.4347,4.3315,4.2512,4.1617,4.0674,3.9727,3.8399,3.6675,3.4952,3.2639,0.0,0.0,0.0,0.0,0.0,0.0,0.0,0.0,0.0,0.0,0.0,2.0056,2.1081,0.0,0.0,0.0,2.4805,2.7055,2.9235,3.0095,0.0,0.0,0.0,0.0,0.0,0.0,0.0,3.9802,4.1912,4.3635,4.4409,4.3857,4.3793,4.4942,4.5098,4.506,4.4984,0.0,4.5111,4.4737,4.4822,4.5076,4.5544,4.5607,4.5708,4.5966,4.61,4.6342,4.6958,4.6949,4.7033,4.7251,4.7221,4.7099,4.6956,4.5627,4.4543,4.429,4.3945,4.3587,4.3174,4.3215,4.3229,5.9821,5.8942,5.5702,5.4245,5.416,5.4737,5.4923,5.4802,5.4735,5.4312,5.3551,5.2263,5.0869,4.9409,4.8071,0.0,4.8333,4.887,4.985,5.1161,5.2452,5.2913,5.27,5.2987,5.2284,5.0685,5.0339,4.9457,4.801,4.7748,4.6543,4.4388,4.2687,4.1581,4.1119,4.2079,4.2868,4.3335,4.3663,4.4168,4.4818,4.4427,4.3529,4.2124,4.1984,4.1365,4.015,3.9495,3.8655,3.7472,3.5781,3.3737,3.1394,0.0,0.0,0.0,0.0,0.0,0.0,0.0,0.0,0.0,0.0,0.0,0.0,0.0,0.0,2.5444,2.7924,0.0,3.1382,3.3259,0.0,0.0,0.0,3.7809,3.7572,3.9808,4.1476,4.1829,0.0,0.0,4.5308,4.5909,4.6437,4.6677,4.6605,4.6484,4.6284,4.6383,4.6544,4.6379,4.6652,4.686,4.6944,4.7107,4.7052,4.6797,4.7068,4.722,4.7156,4.7509,4.7925,4.7831,4.7901,4.7849,4.7849,4.7003,4.6446,4.5969,4.5808,4.5587,4.495,4.4599,4.4218,6.1213,6.0978,6.0158,5.893,5.7478,5.6927,5.6701,5.6597,5.6078,5.5389,5.4651,5.378,5.2891,5.2001,5.1648,5.1564,5.1749,5.2435,5.2851,5.3061,5.3799,5.3923,5.3518,5.3487,5.2752,5.1411,5.1263,5.0314,4.8631,4.844,4.7789,4.6736,4.6107,4.4531,4.2082,4.2598,4.3172,4.3663,4.4006,4.419,4.4208,4.3606,4.3134,4.2773,4.1771,4.1073,4.0739,3.9669,3.8699,3.7864,3.6105,3.4213,3.2284,2.9901,0.0,0.0,0.0,0.0,0.0,0.0,0.0,0.0,0.0,2.4116,2.5922,0.0,2.7361,0.0,3.0345,3.2955,3.5617,3.6221,0.0,0.0,3.9338,4.029,4.1179,4.2565,4.3688,4.4274,4.5593,4.6478,4.6548,4.7167,4.7614,4.7667,4.6742,4.6042,4.6001,4.6042,4.6062,4.6093,4.6163,4.6377,4.6977,4.7486,4.774,4.7688,4.7756,4.7752,4.7498,4.7597,4.7581,4.7258,4.7141,4.7076,4.6975,4.6717,4.6577,4.6405,4.5875,4.5286,4.4971,4.4542,4.4063,6.199,6.1669,6.1486,6.0798,5.9696,5.9039,5.8375,5.7773,5.7338,5.6769,5.6032,5.5187,5.4395,5.3638,5.3605,5.3605,5.3638,5.3932,5.4151,5.426,5.4486,5.4286,5.3745,5.3599,5.2865,5.162,5.1222,5.0492,4.9507,4.8894,4.8235,4.7562,4.7265,4.6046,4.4007,4.418,4.4205,4.4036,4.4121,4.4085,4.384,4.3216,4.2663,4.2285,4.1271,4.0589,4.0287,3.9297,3.8405,3.7741,3.6257,3.476,3.3267,3.153,2.9956,0.0,0.0,0.0,0.0,0.0,0.0,0.0,0.0,0.0,0.0,0.0,3.1101,3.2421,3.4149,3.6139,3.8607,3.9308,4.0094,4.1264,4.2135,4.2873,4.3438,4.4543,4.5395,4.5647,4.6427,4.6984,4.6984,4.7199,4.7366,4.7366,4.6693,4.6299,4.6571,4.6601,4.6518,4.6518,4.6404,4.6503,4.7081,4.734,4.7516,4.7516,4.7452,4.7322,4.7171,4.7149,4.704,4.669,4.6602,4.6484,4.6284,4.6158,4.6113,4.6025,4.5595,4.517,4.5041,4.4632,4.406,6.2261,6.164,6.1202,6.1035,6.099,6.0684,5.981,5.8489,5.8308,5.7807,5.7105,5.6283,5.5463,5.4731,5.4661,5.4642,5.4642,5.4434,5.4552,5.4907,5.4782,5.4362,5.3738,5.3542,5.2807,5.1633,5.0799,5.032,5.0144,4.9068,4.8265,4.7671,4.7301,4.676,4.6072,4.6043,4.5434,4.4239,4.4015,4.3851,4.3636,4.3003,4.2264,4.1422,4.0756,4.0079,3.9421,3.8751,3.814,3.7524,3.643,3.5389,3.4486,3.3464,3.2586,0.0,3.1314,0.0,0.0,0.0,0.0,0.0,0.0,0.0,0.0,3.3745,3.5338,3.7433,3.8279,3.9397,4.1001,4.2232,4.3088,4.3506,4.4563,4.5152,4.4919,4.5869,4.6547,4.6356,4.664,4.6866,4.6836,4.669,4.6631,4.6646,4.6638,4.6725,4.7228,4.7198,4.7103,4.7193,4.7019,4.6848,4.7068,4.6989,4.6887,4.6822,4.6712,4.6513,4.6469,4.6447,4.6358,4.6106,4.6016,4.5949,4.5747,4.5572,4.5413,4.5413,4.5173,4.4995,4.5074,4.4695,4.4062,6.1653,6.1455,6.0811,6.056,6.0527,6.048,5.9942,5.9054,5.7869,5.6981,5.6343,5.6119,5.5982,5.5811,5.5581,5.5469,5.5469,5.5283,5.5126,5.5032,5.4815,5.4441,5.4009,5.3753,5.3032,5.1915,5.1188,5.0408,4.9472,4.8712,4.8219,4.793,4.7845,4.7448,4.682,0.0,0.0,0.0,4.3773,4.3636,4.3369,4.2779,4.2119,4.1403,4.0756,0.0,3.9421,3.8751,3.8332,3.8182,3.7019,0.0,0.0,0.0,0.0,0.0,0.0,0.0,0.0,0.0,0.0,0.0,3.7126,3.7265,3.6205,3.7561,3.9046,4.0385,4.108,4.2163,4.3913,4.4152,4.4639,4.559,4.5783,4.596,4.6178,4.6452,4.6578,4.6534,4.6609,4.6646,4.6624,4.6631,4.6558,4.6535,4.6609,4.6558,4.6469,4.6624,4.6741,4.6712,4.6624,4.6646,4.6741,4.6675,4.6513,4.6403,4.6314,4.6135,4.5798,4.5708,4.5617,4.5367,4.5321,4.5293,4.5224,4.5069,4.4908,4.4959,4.4537,4.4392,4.4967,4.4493,4.3862,6.2048,6.1284,6.0794,6.0315,0.0,5.975,5.9512,5.9091,5.7969,5.6805,5.5604,5.5625,5.5564,5.5442,5.5319,5.5225,5.5225,5.5019,5.4811,5.4592,5.4348,5.3985,5.3606,5.3474,5.2949,5.2113,5.115,5.0309,4.9596,4.8514,4.7901,4.7794,4.7688,4.7494,4.715,4.6819,4.5845,4.4157,4.4058,4.3768,4.3309,4.272,4.2261,4.1901,4.0924,0.0,0.0,0.0,0.0,0.0,0.0,0.0,0.0,0.0,0.0,3.7186,3.698,3.6876,3.6985,3.7744,3.8531,3.9367,4.1056,4.1362,3.9683,4.0997,4.2163,4.2872,4.3125,4.3826,4.5239,4.5221,4.5471,4.6316,4.6377,4.6387,4.6543,4.6609,4.6609,4.6558,4.641,4.6225,4.6276,4.6001,4.5888,4.5866,4.5866,4.5814,4.5724,4.6001,4.618,4.5911,4.5866,4.5866,4.5866,4.5866,4.5843,4.5679,4.5656,4.552,4.5207,4.5138,4.5023,4.4653,4.456,4.4537,4.4392,4.4275,4.4233,4.4209,4.3997,4.3899,4.427,4.4023,4.3598,6.2519,6.1221,6.0837,6.0183,5.938,5.9059,5.8796,5.8559,5.8109,0.0,0.0,5.5182,5.5013,5.4729,5.4645,5.4624,5.4603,5.4327,5.4135,5.3974,5.3705,5.3409,5.3042,5.2966,5.2721,5.22,5.0986,5.0266,4.9871,4.8473,4.7701,4.7546,4.7396,4.7309,4.7279,4.6749,4.5936,4.493,4.4608,4.4147,4.3489,4.299,4.265,4.241,4.1313,4.0696,4.0576,4.0068,3.975,3.975,3.975,3.9823,3.9998,4.0016,3.9853,3.9538,3.953,3.9677,3.9908,4.0047,4.0863,4.2598,4.4026,4.4258,4.2841,4.3742,4.4476,4.4829,4.4665,4.4965,4.5997,4.5922,4.5976,4.6477,4.6513,4.6491,4.6403,4.6403,4.6336,4.6314,4.5978,4.5759,4.5759,4.5413,4.511,4.5087,4.5138,4.4972,4.5,4.539,4.5617,4.527,4.5224,4.5161,4.5069,4.5092,4.5023,4.4926,4.4931,4.4839,4.4653,4.4583,4.442,4.4044,4.3926,4.3851,4.3685,4.3638,4.3543,4.3543,4.3471,4.3399,4.3399,4.3375,4.3211,6.2169,6.1865,6.0633,6.0042,5.9836,5.9001,5.8055,5.7198,5.7675,5.7075,5.5698,5.5506,5.5102,5.4433,5.4028,5.3835,5.3835,5.364,5.3509,5.3487,5.3277,5.3011,5.2743,5.2541,5.2291,5.201,5.1258,5.0478,4.965,4.8859,4.8088,4.7434,4.7309,4.7309,4.7309,4.7219,4.68,4.6073,4.5475,4.4825,4.4177,4.4057,4.3529,4.244,4.2231,4.1822,4.1283,4.1164,4.1134,4.1134,4.1134,4.1134,4.1171,4.1201,4.113,4.1078,4.1257,4.1535,4.1964,4.262,4.3476,4.4493,4.5343,4.5517,4.4937,4.4874,4.5117,4.5709,4.5556,4.5701,4.6417,4.6432,4.6329,4.6262,4.6247,4.6113,4.573,4.5685,4.5617,4.5407,4.5247,4.523,4.5207,4.511,4.5018,4.5018,4.4839,4.4653,4.4397,4.4769,4.5161,4.511,4.511,4.5046,4.4815,4.4844,4.463,4.4209,4.4186,4.4139,4.3875,4.3851,4.3804,4.3662,4.3614,4.359,4.3515,4.3447,4.3331,4.3259,4.2994,4.2704,4.2704,4.2531,4.2552,6.2173,6.1647,6.0868,6.0028,5.9128,5.8341,5.7706,5.7214,5.7507,5.6911,5.5595,5.5128,5.4738,5.437,5.3796,5.3552,5.3509,5.3188,5.3033,5.2989,5.2653,5.2427,5.2322,5.22,5.2017,5.1757,5.1099,5.0502,4.9892,4.8931,4.8227,4.784,4.7489,4.7309,4.7309,4.7309,4.716,4.6839,4.6202,4.5493,4.4855,4.4855,4.4377,4.3469,4.309,4.2601,4.1991,4.1961,4.1961,4.1961,4.2611,4.297,4.297,4.3299,4.3529,4.3529,4.3588,4.3758,4.3948,4.4545,4.5028,4.5306,4.5935,4.6245,4.6027,4.5911,4.5994,4.629,4.6101,4.6035,4.6329,4.6158,4.5956,4.5843,4.5708,4.552,4.5344,4.5299,4.5201,4.5087,4.4885,4.4723,4.4723,4.449,4.4298,4.4275,4.4181,4.4068,4.3804,4.4064,4.4298,4.4298,4.4298,4.4252,4.4158,4.4162,4.4044,4.378,4.378,4.3685,4.3471,4.3451,4.3403,4.3235,4.3088,4.2991,4.2991,4.2825,4.2679,4.2631,4.2509,4.2289,4.2264,4.219,4.2264,6.2123,6.1428,6.1043,5.9951,5.8366,5.7868,5.7556,5.7353,5.7282,5.6644,5.562,5.5019,5.4575,5.4196,5.3646,5.3268,5.3055,5.2698,5.2549,5.2526,5.2185,5.1979,5.1933,5.1903,5.1764,5.1496,5.0991,5.0545,5.0122,4.9172,4.8566,4.8267,4.7638,4.7309,4.7309,4.7309,4.7309,4.7279,4.6779,4.6211,4.5574,4.5514,4.5214,4.4556,4.4027,4.3539,4.3099,4.3069,4.305,4.3099,4.3988,4.4526,4.4536,4.5005,4.5254,4.5242,4.5242,4.5281,4.5397,4.5854,4.6024,4.5756,4.6226,4.6447,4.6358,4.6336,4.6358,4.641,4.6151,4.5994,4.5911,4.5663,4.5413,4.539,4.523,4.5092,4.4977,4.4926,4.4908,4.4741,4.4443,4.4209,4.4162,4.3875,4.361,4.359,4.3543,4.3519,4.3471,4.3447,4.3447,4.3471,4.3519,4.3638,4.3566,4.3543,4.3519,4.3471,4.3423,4.3304,4.3163,4.3091,4.2994,4.2752,4.2557,4.246,4.2387,4.2289,4.219,4.2164,4.2065,4.1993,4.1919,4.1895,4.1993,6.1652,6.1502,6.089,5.9681,5.8224,5.8069,5.7576,5.6895,5.6616,5.6457,5.623,5.6075,5.5101,5.3852,5.3461,5.291,5.2216,5.2094,5.2071,5.2071,5.2025,5.1857,5.1672,5.1618,5.1509,5.1299,5.1186,5.0803,5.0255,5.0046,4.9411,4.8349,4.7638,4.7339,4.7309,4.7309,4.7309,4.7309,4.7228,4.689,4.6271,4.6211,4.5882,4.5244,4.5155,4.5095,4.4936,4.5035,4.5005,4.5035,4.5125,4.5214,4.5214,4.5274,4.5221,4.5063,4.5042,4.5175,4.5553,4.6181,4.6373,4.6203,4.6166,4.6046,4.5685,4.5617,4.5708,4.5821,4.5708,4.5481,4.5224,4.5132,4.5115,4.5115,4.5041,4.4954,4.4537,4.4467,4.428,4.3752,4.378,4.3685,4.3685,4.3614,4.3495,4.3283,4.3259,4.3187,4.2994,4.2946,4.2946,4.3018,4.328,4.3447,4.3331,4.3307,4.3163,4.2994,4.297,4.2849,4.2679,4.2609,4.2511,4.2411,4.219,4.2141,4.2141,4.209,4.2065,4.1942,4.1845,4.1672,4.1448,4.1398,4.1572,6.1359,6.1359,6.087,6.0017,5.8841,5.7837,5.7192,5.6818,5.6378,5.6176,5.617,5.6091,5.5418,5.4382,5.3495,5.2915,5.2548,5.2015,5.1764,5.1741,5.1602,5.1463,5.1393,5.1363,5.1269,5.1206,5.1206,5.1056,5.0787,5.0405,4.974,4.8917,4.8229,4.7878,4.787,4.7489,4.7309,4.7309,4.7309,4.7095,4.6726,4.6804,4.6591,4.5971,4.5882,4.5693,4.5313,4.518,4.5117,4.5147,4.5327,4.545,4.548,4.5836,4.6022,4.5965,4.5935,4.5945,4.5969,4.613,4.6097,4.5798,4.564,4.5452,4.5299,4.5276,4.5207,4.5046,4.5138,4.5201,4.5092,4.4862,4.4676,4.4653,4.4415,4.4134,4.3974,4.3922,4.3804,4.361,4.3495,4.3399,4.3403,4.3283,4.3091,4.29,4.2852,4.2728,4.2484,4.2435,4.2435,4.246,4.2604,4.2725,4.2776,4.2679,4.2531,4.2457,4.2435,4.2362,4.2313,4.2264,4.2215,4.209,4.1969,4.187,4.187,4.1696,4.1622,4.1622,4.1597,4.1398,4.1298,4.1299,4.1423,6.0954,6.085,6.0669,6.0088,5.9148,5.7968,5.7228,5.6864,5.6384,5.6056,5.588,5.5805,5.5508,5.4879,5.3892,5.3196,5.2732,5.2085,5.166,5.1486,5.1299,5.1206,5.1206,5.1206,5.1206,5.1206,5.1206,5.1206,5.1116,5.0548,4.9979,4.9494,4.8887,4.8544,4.8417,4.7947,4.7627,4.736,4.736,4.7183,4.6895,4.7026,4.6875,4.6437,4.6377,4.6139,4.5683,4.5505,4.545,4.545,4.5752,4.588,4.588,4.6344,4.6535,4.6432,4.6336,4.618,4.5933,4.5753,4.5595,4.5413,4.5201,4.5046,4.4954,4.4931,4.47,4.4303,4.4513,4.4671,4.4648,4.4397,4.4186,4.4139,4.3804,4.3563,4.3543,4.3519,4.3495,4.3399,4.3187,4.3043,4.297,4.2776,4.2606,4.246,4.2387,4.2313,4.2166,4.209,4.209,4.2065,4.2041,4.2117,4.2289,4.2289,4.209,4.2065,4.2115,4.2117,4.2043,4.1993,4.1919,4.1771,4.1672,4.1597,4.1597,4.1398,4.1324,4.1299,4.1324,4.1298,4.1299,4.1299,4.1299,6.0272,6.0096,6.0043,5.9648,5.8928,5.878,5.8052,5.694,5.6667,5.6234,5.5671,5.5355,5.5229,5.516,5.4663,5.3681,5.2438,5.2234,5.1851,5.1342,5.1259,5.1206,5.1206,5.1206,5.1206,5.1206,5.1206,5.1206,5.1122,5.0554,5.0219,5.0106,4.9508,4.9111,4.8885,4.8773,4.8363,4.765,4.7546,4.7258,4.6749,4.669,4.6712,4.6609,4.6594,4.6528,4.6476,4.6535,4.6484,4.6513,4.6469,4.6477,4.6528,4.6506,4.6365,4.5985,4.5685,4.5458,4.5224,4.5184,4.5138,4.5115,4.5018,4.4908,4.4467,4.442,4.4209,4.3709,4.3733,4.3757,4.3733,4.3733,4.3685,4.3685,4.3638,4.3471,4.3307,4.3259,4.3187,4.2946,4.2704,4.2509,4.2237,4.2139,4.219,4.2141,4.209,4.2092,4.2043,4.2041,4.2016,4.1967,4.1895,4.182,4.2016,4.2018,4.2018,4.1993,4.1895,4.1942,4.1845,4.1696,4.1572,4.1473,4.1398,4.1399,4.1323,4.1298,4.1324,4.1299,4.1299,4.1299,4.1299,4.1299,4.1299,6.043,5.999,5.9773,5.9512,5.9244,5.8636,5.8106,5.7621,5.6732,5.6226,5.593,5.5439,5.5234,5.5204,5.504,5.4441,5.3473,5.3025,5.2486,5.1864,5.1858,5.1624,5.1206,5.1206,5.1206,5.1206,5.1206,5.1105,5.0964,5.0702,5.0519,5.0312,4.9749,4.9377,4.9225,4.8847,4.8453,4.8178,4.8149,4.7962,4.7538,4.7568,4.743,4.7102,4.6798,4.6609,4.6609,4.6425,4.6358,4.6336,4.6068,4.5888,4.5888,4.573,4.5572,4.5413,4.5299,4.5207,4.5092,4.4839,4.4653,4.463,4.4322,4.4111,4.3922,4.3875,4.3733,4.3499,4.3403,4.3355,4.3235,4.3307,4.3427,4.3403,4.3259,4.3094,4.2849,4.2803,4.2706,4.2435,4.2289,4.2188,4.2117,4.2065,4.2016,4.1895,4.1845,4.1771,4.1622,4.1597,4.1622,4.1572,4.1522,4.1499,4.1547,4.1572,4.1572,4.1572,4.1547,4.1547,4.1448,4.1473,4.1373,4.1373,4.1324,4.1299,4.1324,4.1324,4.1299,4.1248,4.1248,4.1223,4.1299,4.1199,4.1224,6.0086,5.9697,5.9449,5.9369,5.9312,5.8701,5.8294,5.8025,5.7184,5.6581,5.6192,5.5688,5.5444,5.5209,5.5234,5.497,5.4461,5.3803,5.3144,5.2516,5.2306,5.1947,5.1535,5.1295,5.1182,5.1088,5.1017,5.0876,5.0704,5.0704,5.0638,5.0466,5.0029,4.9799,4.961,4.914,4.8776,4.8506,4.8325,4.8126,4.7782,4.7729,4.7617,4.7266,4.6917,4.6703,4.6732,4.6544,4.6475,4.6407,4.6183,4.597,4.5947,4.5808,4.5645,4.5481,4.5458,4.5359,4.5195,4.4724,4.4422,4.4394,4.3939,4.3563,4.3519,4.3495,4.3355,4.3142,4.3236,4.3221,4.3079,4.3264,4.3438,4.3324,4.3074,4.2962,4.2925,4.2927,4.2747,4.2387,4.21,4.1971,4.187,4.1845,4.1746,4.1572,4.1599,4.1473,4.1349,4.1299,4.1299,4.1299,4.1323,4.1324,4.1348,4.1424,4.1424,4.1399,4.1424,4.1349,4.1299,4.1299,4.1299,4.1299,4.1299,4.1299,4.1299,4.1299,4.1223,4.1173,4.1122,4.1072,4.1047,4.1023,4.0997,5.9186,5.9153,5.9099,5.9126,5.9126,5.9039,5.871,5.8205,5.8055,5.7334,5.6521,5.6222,5.5803,5.5329,5.5214,5.5124,5.4974,5.4386,5.3783,5.3174,5.2611,5.2312,5.2139,5.1494,5.1047,5.0822,5.0614,5.0525,5.0501,5.0501,5.0477,5.0453,5.0351,5.009,5.0033,4.9616,4.9141,4.8543,4.8181,4.7753,4.7114,4.7243,4.7224,4.7118,4.7057,4.7028,4.6976,4.6967,4.6924,4.6957,4.6886,4.6947,4.6761,4.6714,4.6626,4.6107,4.609,4.5874,4.5425,4.4881,4.4553,4.4474,4.398,4.3616,4.3506,4.3403,4.3209,4.2927,4.3127,4.3324,4.3204,4.3448,4.3656,4.3456,4.3224,4.3261,4.3558,4.372,4.3484,4.2697,4.2145,4.165,4.1424,4.1399,4.1399,4.1374,4.1323,4.1323,4.1324,4.1299,4.1299,4.1299,4.1299,4.1299,4.1299,4.1299,4.1299,4.1324,4.1324,4.1299,4.1299,4.1299,4.1299,4.1299,4.1173,4.1173,4.1147,4.1122,4.0997,4.0946,4.0921,4.0846,4.0795,4.0745,4.0669,5.9518,5.9129,5.9099,5.9099,5.9099,5.9099,5.8979,5.877,5.8351,5.7846,5.7393,5.6581,5.6072,5.5752,5.524,5.493,5.4875,5.4455,5.4115,5.3848,5.3451,5.2995,5.2524,5.173,5.1076,5.065,5.0548,5.0405,5.0231,5.0207,5.0038,4.9746,4.9702,4.9526,4.933,4.9178,4.8964,4.8747,4.8644,4.8481,4.8313,4.8112,4.7939,4.7765,4.7594,4.7418,4.724,4.7096,4.7004,4.7009,4.6639,4.63,4.6007,4.5881,4.5807,4.5687,4.5663,4.5585,4.5412,4.5128,4.4919,4.4839,4.4551,4.4221,4.3972,4.3893,4.3743,4.3417,4.3554,4.3609,4.3586,4.3512,4.3617,4.3687,4.3584,4.3536,4.3568,4.3439,4.3152,4.2891,4.2393,4.2053,4.1871,4.1638,4.135,4.1299,4.1299,4.1299,4.1299,4.1299,4.1299,4.1299,4.1299,4.1299,4.1299,4.1299,4.1299,4.1299,4.1299,4.1299,4.1299,4.1223,4.1223,4.1199,4.1072,4.1022,4.0997,4.0921,4.0795,4.0694,4.0618,4.0567,4.0542,4.044,4.0287,5.9847,5.9458,5.9219,5.9099,5.9099,5.9099,5.9099,5.9039,5.868,5.8271,5.7802,5.7116,5.6408,5.5857,5.523,5.4856,5.4594,5.4381,5.4276,5.4174,5.3802,5.3405,5.2877,5.1803,5.1097,5.0661,5.0252,4.9965,4.982,4.9698,4.9477,4.9207,4.9157,4.9083,4.8856,4.871,4.8581,4.8581,4.8409,4.8308,4.8255,4.8156,4.7979,4.7798,4.7647,4.7496,4.7284,4.7172,4.7126,4.7077,4.678,4.6456,4.6128,4.613,4.6052,4.5979,4.5979,4.5928,4.5799,4.5356,4.5093,4.5041,4.465,4.4259,4.4081,4.4055,4.3927,4.3696,4.3857,4.3937,4.3833,4.3914,4.3967,4.4098,4.3939,4.386,4.3783,4.3546,4.3389,4.3258,4.2866,4.25,4.216,4.1951,4.1533,4.1402,4.1299,4.1299,4.1299,4.1299,4.1299,4.1299,4.1299,4.1299,4.1299,4.1299,4.1299,4.1299,4.1299,4.1299,4.1299,4.1122,4.1072,4.0922,4.0796,4.077,4.0719,4.0669,4.0567,4.0491,4.0262,4.0185,4.0057,3.9955,3.9826,6.0144,6.0024,5.9368,5.9072,5.9045,5.9075,5.9018,5.9018,5.8988,5.8497,5.7862,5.7568,5.6841,5.5712,5.5365,5.4871,5.4373,5.4149,5.4042,5.3917,5.3594,5.3241,5.2922,5.1737,5.1116,5.0776,4.9931,4.9445,4.9449,4.919,4.8856,4.8834,4.8834,4.881,4.861,4.828,4.8052,4.803,4.7622,4.7416,4.7418,4.7313,4.7313,4.7288,4.7236,4.7184,4.7157,4.7098,4.7151,4.7234,4.7148,4.7096,4.7155,4.7236,4.6919,4.6631,4.6794,4.653,4.6266,4.5625,4.52,4.512,4.4564,4.388,4.4066,4.4119,4.3989,4.3729,4.4045,4.423,4.4149,4.4304,4.4592,4.459,4.4253,4.42,4.4565,4.4199,4.3964,4.3833,4.3415,4.2892,4.2474,4.2317,4.1898,4.1559,4.1377,4.1299,4.1299,4.1299,4.1299,4.1299,4.1299,4.1223,4.1198,4.1147,4.1122,4.0997,4.1022,4.1072,4.1122,4.0972,4.0871,4.0694,4.0491,4.044,4.0389,4.0262,4.0109,3.9878,3.9749,3.9698,3.9595,3.9465,3.9362,6.0535,6.0054,5.9368,5.8991,5.88,5.88,5.8664,5.8472,5.8443,5.8326,5.798,5.751,5.7102,5.6608,5.5454,5.4797,5.4349,5.3759,5.3292,5.3102,5.2989,5.2717,5.2422,5.184,5.1276,5.0816,5.0061,4.967,4.9613,4.9116,4.8713,4.8305,4.8333,4.8103,4.775,4.7622,4.7519,4.7519,4.7391,4.7262,4.7264,4.7108,4.7003,4.7005,4.6795,4.6744,4.6692,4.6481,4.6586,4.6951,4.7003,4.6901,4.6718,4.6508,4.6376,4.6271,4.6086,4.5954,4.5821,4.5608,4.5475,4.5475,4.5129,4.505,4.4838,4.4838,4.4652,4.4464,4.4541,4.4567,4.4513,4.459,4.4695,4.4695,4.4512,4.4486,4.4616,4.459,4.4513,4.4434,4.3964,4.3624,4.3284,4.2761,4.2212,4.1951,4.1611,4.1274,4.1274,4.1248,4.1223,4.1274,4.1274,4.1147,4.1072,4.1022,4.0921,4.0694,4.0694,4.0744,4.077,4.0719,4.0618,4.0542,4.0134,4.0006,3.9852,3.9698,3.9517,3.9311,3.9206,3.9128,3.905,3.8945,3.8919,6.074,6.0084,5.9402,5.8904,5.8529,5.8472,5.839,5.8223,5.8195,5.8112,5.7913,5.7511,5.7022,5.6563,5.5592,5.4763,5.4109,5.3575,5.3127,5.2707,5.2437,5.2316,5.2215,5.1935,5.1485,5.1116,5.0254,4.9867,4.9674,4.9011,4.8476,4.8161,4.7887,4.7596,4.7365,4.7186,4.7107,4.7107,4.7029,4.6951,4.6925,4.6665,4.6534,4.6455,4.6271,4.6113,4.6086,4.5954,4.606,4.6403,4.6403,4.6271,4.6139,4.5954,4.5848,4.5848,4.5662,4.5582,4.5582,4.5502,4.5421,4.5395,4.5341,4.518,4.4992,4.4991,4.4883,4.4723,4.4721,4.4721,4.4721,4.4721,4.4721,4.4695,4.4721,4.4721,4.4721,4.4695,4.4695,4.4616,4.446,4.4121,4.3964,4.3258,4.2735,4.2291,4.1924,4.1561,4.1226,4.1174,4.1097,4.1073,4.1023,4.0871,4.0795,4.0744,4.0669,4.0466,4.016,4.0262,4.0313,4.0313,4.016,3.9981,3.9724,3.9517,3.9336,3.9154,3.905,3.8867,3.8684,3.85,3.8421,3.8394,3.8368,6.079,6.0229,5.9493,5.8845,5.8317,5.8171,5.8029,5.8029,5.7918,5.7779,5.7556,5.7303,5.676,5.5932,5.5647,5.488,5.3798,5.3515,5.2976,5.2418,5.1977,5.1866,5.2133,5.1738,5.1513,5.1288,5.0407,4.9995,4.9693,4.885,4.8336,4.8225,4.7785,4.7486,4.7467,4.7202,4.704,4.6991,4.6726,4.662,4.6513,4.6247,4.6033,4.6007,4.5821,4.5688,4.5662,4.5582,4.5662,4.5928,4.5688,4.5689,4.5635,4.5609,4.5582,4.5555,4.5448,4.5448,4.5475,4.5234,4.5153,4.5099,4.4884,4.4695,4.4748,4.4775,4.4748,4.4695,4.4721,4.4721,4.4721,4.4721,4.4721,4.4721,4.4721,4.4721,4.4721,4.4721,4.4721,4.4721,4.4695,4.4434,4.4147,4.3807,4.3441,4.2398,4.2007,4.1438,4.1077,4.0897,4.077,4.0694,4.0618,4.0542,4.0466,4.044,4.0338,4.0185,3.9749,3.9646,3.9724,3.9698,3.9517,3.9336,3.918,3.8998,3.8762,3.8631,3.85,3.8289,3.8027,3.7865,3.7732,3.7759,3.7732,6.0997,6.0819,5.967,5.897,5.851,5.7817,5.736,5.7191,5.6908,5.6851,5.668,5.6623,5.6451,5.6223,5.568,5.5083,5.4177,5.3331,5.2349,5.1349,5.1183,5.1155,5.1293,5.1126,5.1098,5.0931,5.035,5.0019,4.9771,4.9276,4.8783,4.8541,4.8323,4.8243,4.792,4.7622,4.7595,4.746,4.6893,4.6544,4.6464,4.6062,4.5795,4.5769,4.5662,4.5582,4.5555,4.5395,4.5314,4.5395,4.5475,4.5502,4.5502,4.5368,4.5287,4.5234,4.5019,4.4937,4.4884,4.491,4.4803,4.4829,4.4802,4.4721,4.4721,4.4721,4.4721,4.4721,4.4721,4.4721,4.4721,4.4721,4.4694,4.4694,4.4694,4.4694,4.4694,4.4721,4.4721,4.4694,4.4668,4.4643,4.4512,4.3827,4.3307,4.2605,4.1983,4.1312,4.0952,4.067,4.044,4.0287,4.0236,4.0134,3.9981,3.9929,3.9852,3.9698,3.931,3.9024,3.9102,3.9024,3.8815,3.8736,3.871,3.8473,3.8183,3.7945,3.7785,3.7599,3.7388,3.7197,3.7062,3.7089,3.7036,6.0645,6.0149,5.9161,5.8523,5.8003,5.7224,5.6794,5.6652,5.648,5.6423,5.6336,5.6106,5.5962,5.5933,5.5333,5.4732,5.3942,5.2853,5.1961,5.1321,5.0988,5.0739,5.0683,5.06,5.0572,5.0768,5.0436,5.0243,5.0051,4.9502,4.8927,4.8681,4.8464,4.8001,4.7836,4.7698,4.7534,4.748,4.7129,4.686,4.678,4.6457,4.6135,4.5974,4.5788,4.5576,4.5575,4.5151,4.5018,4.5018,4.5126,4.5154,4.5154,4.5045,4.4991,4.4937,4.4829,4.4721,4.4721,4.4721,4.4721,4.4721,4.4721,4.4721,4.4721,4.4721,4.4721,4.4721,4.4721,4.4721,4.4721,4.4721,4.4694,4.4531,4.4505,4.4476,4.4395,4.4558,4.4639,4.4532,4.4504,4.4422,4.4157,4.379,4.3399,4.2806,4.2265,4.1619,4.09,4.0593,4.0108,3.9929,3.9878,3.9749,3.9517,3.9388,3.931,3.9076,3.8762,3.8552,3.85,3.8315,3.8077,3.8104,3.813,3.7838,3.7521,3.7304,3.7062,3.6874,3.6688,3.6499,3.6336,3.625,3.6196,6.0123,5.9306,5.8707,5.8108,5.745,5.6764,5.6364,5.6222,5.6135,5.599,5.602,5.5554,5.5349,5.5232,5.4878,5.4221,5.3442,5.2611,5.1921,5.1425,5.0813,5.0483,5.0289,5.0066,5.0038,5.0572,5.0348,5.0264,5.0044,4.9576,4.9026,4.8721,4.8317,4.8153,4.7742,4.755,4.7683,4.7709,4.7411,4.7223,4.717,4.6923,4.6596,4.6378,4.6086,4.5824,4.5746,4.5403,4.5036,4.4852,4.4852,4.4799,4.4721,4.4721,4.4721,4.4695,4.4695,4.4721,4.4721,4.4721,4.4721,4.4721,4.4721,4.4721,4.4721,4.4721,4.4721,4.4668,4.4641,4.4559,4.4585,4.4504,4.4422,4.4285,4.4231,4.4147,4.4064,4.4313,4.4367,4.4285,4.4231,4.4176,4.4011,4.3746,4.3437,4.3024,4.2434,4.1818,4.1048,4.0359,3.9823,3.9491,3.9413,3.9284,3.905,3.8815,3.8685,3.8473,3.8157,3.7998,3.7838,3.7545,3.7358,3.7521,3.7495,3.7173,3.6877,3.663,3.6386,3.6173,3.6059,3.595,3.5703,3.545,3.5478,6.0169,5.9965,5.9335,5.8707,5.799,5.6893,5.6093,5.561,5.5172,5.4906,5.4936,5.4788,5.4758,5.4699,5.4669,5.41,5.3282,5.2582,5.1947,5.1265,5.0653,5.0295,4.986,4.9526,4.9412,4.9413,4.9611,4.9754,4.9697,4.9333,4.903,4.8998,4.8862,4.8697,4.8558,4.8577,4.8301,4.814,4.7705,4.7433,4.73,4.7009,4.6769,4.663,4.6447,4.6369,4.6316,4.6212,4.5976,4.5505,4.5452,4.5191,4.4956,4.4825,4.4799,4.4721,4.4721,4.4721,4.4721,4.4721,4.4721,4.4721,4.4694,4.4694,4.4694,4.4694,4.4612,4.4585,4.4449,4.4285,4.4039,4.4094,4.4064,4.3982,4.3955,4.3927,4.3899,4.3955,4.4037,4.3927,4.3927,4.3927,4.3734,4.3545,4.3233,4.2692,4.2029,4.1388,4.0646,3.9964,3.9358,3.9102,3.8919,3.8762,3.8554,3.8265,3.808,3.7838,3.7572,3.7385,3.7143,3.6766,3.6657,3.6796,3.6769,3.6522,3.6223,3.5977,3.5785,3.5648,3.5538,3.545,3.5285,3.5146,3.5257,5.9485,5.9089,5.8469,5.7851,5.7232,5.6317,5.5553,5.5051,5.4756,5.4607,5.452,5.4431,5.4341,5.4311,5.4161,5.3703,5.3155,5.2419,5.1866,5.1242,5.0591,5.0131,4.9729,4.9314,4.9152,4.9125,4.9127,4.924,4.9326,4.9211,4.901,4.8895,4.8895,4.8808,4.8663,4.8466,4.846,4.8297,4.7998,4.7754,4.7725,4.744,4.739,4.7283,4.7048,4.6915,4.6865,4.6578,4.6369,4.6133,4.6053,4.5898,4.5715,4.5532,4.5322,4.485,4.472,4.4721,4.4721,4.4721,4.4721,4.4668,4.4586,4.4504,4.4449,4.4367,4.4313,4.4258,4.4203,4.4064,4.3927,4.3872,4.3817,4.3681,4.3653,4.357,4.3487,4.3432,4.3459,4.3515,4.357,4.3543,4.3404,4.3187,4.2975,4.2409,4.1643,4.0977,4.0288,3.9563,3.8867,3.85,3.8289,3.8024,3.7868,3.7681,3.7415,3.717,3.6955,3.6766,3.6549,3.6196,3.6032,3.6032,3.5922,3.584,3.573,3.5533,3.534,3.5146,3.5035,3.493,3.4924,3.4924,3.493,5.8672,5.817,5.7673,5.7066,5.6375,5.5728,5.5122,5.4601,5.4401,5.4341,5.4341,5.4071,5.3863,5.3803,5.3561,5.32,5.2926,5.2173,5.1873,5.1526,5.0797,5.0236,4.9754,4.9404,4.9025,4.8808,4.8721,4.875,4.8952,4.8895,4.8779,4.8635,4.8606,4.8489,4.826,4.826,4.8172,4.8172,4.8172,4.8172,4.8172,4.8172,4.8172,4.8172,4.7699,4.7464,4.7466,4.7179,4.6865,4.6734,4.663,4.6549,4.6417,4.6362,4.5917,4.5052,4.4924,4.49,4.4822,4.4711,4.4631,4.4475,4.4313,4.4231,4.4176,4.4066,4.3901,4.3844,4.3791,4.3736,4.3653,4.3681,4.357,4.3406,4.3323,4.3268,4.3154,4.3098,4.3126,4.3182,4.324,4.3212,4.3154,4.2933,4.2746,4.231,4.1571,4.0693,4.0008,3.9094,3.8421,3.7894,3.7548,3.7277,3.7093,3.7039,3.6769,3.6495,3.6305,3.6141,3.5922,3.5703,3.5566,3.5455,3.529,3.5207,3.5146,3.5091,3.4897,3.473,3.4562,3.4451,3.4367,3.4317,3.4317,5.8262,5.8198,5.8115,5.7452,5.6424,5.5953,5.5145,5.4186,5.3833,5.3713,5.3682,5.3379,5.3227,5.3166,5.2922,5.2738,5.2592,5.242,5.2036,5.1634,5.1168,5.0439,4.9666,4.9272,4.8799,4.8539,4.8344,4.846,4.8635,4.8489,4.8318,4.8315,4.8315,4.8257,4.8201,4.8172,4.8172,4.8172,4.8172,4.8172,4.8172,4.8172,4.8172,4.8175,4.8094,4.8015,4.7989,4.778,4.762,4.72,4.7174,4.6799,4.6238,4.6052,4.5856,4.5642,4.5595,4.5637,4.5195,4.4924,4.4658,4.4375,4.4085,4.398,4.3872,4.3819,4.3681,4.3489,4.3462,4.3379,4.3265,4.3154,4.3098,4.3126,4.3101,4.3073,4.3014,4.3014,4.3014,4.2958,4.3045,4.3017,4.2986,4.2762,4.2516,4.2032,4.1469,4.0538,3.9594,3.8607,3.7865,3.7334,3.6928,3.6603,3.644,3.6363,3.625,3.5895,3.573,3.5593,3.5478,3.534,3.5119,3.498,3.4785,3.4702,3.4702,3.4618,3.4451,3.4311,3.4199,3.3974,3.3749,3.3749,3.3812,5.7463,5.7651,5.7624,5.694,5.5839,5.5504,5.4642,5.3633,5.3166,5.3044,5.3014,5.2891,5.283,5.2738,5.2492,5.2311,5.2249,5.2125,5.1927,5.161,5.1198,5.0585,4.9816,4.9281,4.8803,4.8358,4.8201,4.8286,4.8344,4.8315,4.8172,4.8172,4.8172,4.8201,4.8172,4.8172,4.8172,4.8172,4.8172,4.8172,4.8172,4.8172,4.8172,4.8172,4.8172,4.8172,4.8143,4.7997,4.786,4.7487,4.7399,4.7121,4.6798,4.6663,4.6604,4.6517,4.6426,4.6103,4.5502,4.526,4.4973,4.4712,4.4347,4.3927,4.3586,4.3404,4.3376,4.3184,4.3156,4.3126,4.3042,4.3014,4.3014,4.3014,4.3014,4.3014,4.3014,4.3014,4.2986,4.293,4.2846,4.279,4.2681,4.2485,4.2178,4.1703,4.0968,3.9951,3.8926,3.7844,3.725,3.6742,3.6332,3.595,3.584,3.5758,3.5785,3.5533,3.534,3.5229,3.5119,3.498,3.473,3.4534,3.4395,3.4339,3.4311,3.4255,3.4171,3.4002,3.3833,3.3664,3.3494,3.3579,3.3643,5.6687,5.6888,5.6812,5.6104,5.5127,5.4719,5.3949,5.3033,5.2769,5.2646,5.2558,5.2496,5.2434,5.2311,5.2094,5.1996,5.1965,5.169,5.1627,5.1439,5.1152,5.0607,4.998,4.9457,4.896,4.8172,4.8172,4.8201,4.8201,4.8172,4.8172,4.8172,4.8172,4.8172,4.8172,4.8172,4.8172,4.8172,4.8172,4.8172,4.8172,4.8172,4.8172,4.8143,4.8114,4.8055,4.8026,4.7762,4.756,4.7475,4.7331,4.7132,4.6989,4.6933,4.687,4.6726,4.6603,4.6349,4.5832,4.5581,4.546,4.5097,4.4684,4.3872,4.3425,4.314,4.3014,4.3042,4.3042,4.3014,4.3014,4.3014,4.3014,4.3014,4.3014,4.3014,4.2986,4.2986,4.2902,4.2737,4.2597,4.24,4.2316,4.2174,4.187,4.1403,4.0511,3.936,3.819,3.702,3.6585,3.6114,3.5922,3.5561,3.5423,3.5312,3.5285,3.5146,3.4952,3.4785,3.4674,3.4479,3.4227,3.4058,3.4002,3.3861,3.3805,3.3861,3.3889,3.3692,3.3494,3.3438,3.3353,3.3409,3.3381,5.6164,5.6144,5.5643,5.5088,5.4474,5.385,5.3232,5.2646,5.2588,5.2527,5.2465,5.2249,5.197,5.1783,5.1721,5.169,5.1659,5.1627,5.1596,5.1596,5.1465,5.076,5.0132,4.961,4.9191,4.8329,4.8172,4.8172,4.8172,4.8172,4.8172,4.8172,4.8172,4.8172,4.8172,4.8172,4.8172,4.8172,4.8172,4.8172,4.8143,4.8143,4.8143,4.8055,4.788,4.7733,4.7707,4.7412,4.7261,4.7261,4.7116,4.7023,4.684,4.681,4.6721,4.6541,4.6451,4.63,4.6078,4.578,4.5288,4.4727,4.4249,4.3925,4.3614,4.3187,4.3037,4.3014,4.3014,4.3014,4.3014,4.3014,4.3014,4.3014,4.3014,4.3014,4.2986,4.293,4.2818,4.2597,4.2372,4.2118,4.183,4.1659,4.1573,4.1105,3.9755,3.8586,3.7224,3.6136,3.5816,3.5533,3.5505,3.5285,3.5063,3.4952,3.4841,3.4674,3.4479,3.4311,3.4199,3.3946,3.3833,3.372,3.3636,3.3466,3.3324,3.3409,3.3409,3.3296,3.3182,3.3126,3.304,3.3012,3.2955,5.567,5.5393,5.4504,5.4261,5.4347,5.354,5.2836,5.2328,5.2063,5.197,5.2001,5.1846,5.1721,5.1627,5.1596,5.1596,5.1596,5.1596,5.1596,5.1465,5.1204,5.0629,5.0028,4.9479,4.8986,4.8329,4.8172,4.8172,4.8172,4.8172,4.8172,4.8172,4.8172,4.8172,4.8172,4.8172,4.8172,4.8172,4.8143,4.8114,4.7909,4.788,4.7792,4.7586,4.7501,4.7383,4.7353,4.7112,4.7019,4.693,4.678,4.6661,4.6541,4.6511,4.6421,4.6301,4.6301,4.6296,4.6271,4.6075,4.5748,4.5196,4.4644,4.4138,4.3865,4.3313,4.3065,4.3014,4.3014,4.3014,4.3014,4.3014,4.3014,4.3014,4.3014,4.3014,4.2958,4.2874,4.2706,4.2457,4.2089,4.172,4.143,4.1115,4.1,4.0755,3.9259,3.778,3.6455,3.5478,3.5229,3.5035,3.5008,3.4897,3.4674,3.4534,3.4395,3.4227,3.4002,3.3889,3.3805,3.3777,3.3664,3.3494,3.3324,3.3182,3.3097,3.3012,3.2983,3.2983,3.2926,3.289,3.2755,3.2698,3.2698,5.5227,5.4733,5.3792,5.3664,5.3943,5.3013,5.2334,5.196,5.1721,5.1596,5.1596,5.1596,5.1596,5.1596,5.1596,5.1596,5.1596,5.1596,5.1596,5.1413,5.1073,5.0472,4.9897,4.9348,4.8855,4.8303,4.8172,4.8172,4.8172,4.8172,4.8172,4.8172,4.8172,4.8172,4.8172,4.8172,4.8169,4.8055,4.8026,4.788,4.7615,4.753,4.7501,4.7235,4.7146,4.7083,4.6993,4.684,4.6686,4.6571,4.6481,4.6331,4.6301,4.6296,4.6296,4.6296,4.6296,4.6296,4.6296,4.6276,4.615,4.5723,4.4945,4.4468,4.4016,4.3467,4.3039,4.3014,4.3014,4.3014,4.3014,4.3014,4.3014,4.3014,4.3014,4.2986,4.2902,4.2793,4.2594,4.234,4.1887,4.1402,4.0913,4.0519,3.9841,3.9493,3.8258,3.6957,3.5875,3.5119,3.4841,3.4674,3.4534,3.4395,3.4255,3.4114,3.4002,3.3918,3.372,3.3579,3.3494,3.3466,3.3353,3.3126,3.2983,3.2898,3.2869,3.2841,3.2784,3.2727,3.2698,3.2727,3.2727,3.2698,3.2698,5.4759,5.4184,5.3635,5.3432,5.3287,5.215,5.1654,5.1659,5.1627,5.1596,5.1596,5.1596,5.1596,5.1596,5.1596,5.1596,5.1596,5.1596,5.1596,5.1465,5.0917,5.0394,4.9871,4.93,4.8643,4.8303,4.8172,4.8172,4.8172,4.8114,4.8143,4.8114,4.8055,4.8084,4.8143,4.8172,4.7997,4.7736,4.7733,4.7527,4.732,4.7205,4.7176,4.7053,4.6874,4.678,4.6721,4.6571,4.6446,4.6386,4.6386,4.6296,4.6296,4.6296,4.6296,4.6296,4.6296,4.6296,4.6296,4.6296,4.625,4.605,4.5192,4.4564,4.4342,4.3714,4.3014,4.3014,4.3014,4.3014,4.3014,4.3014,4.3014,4.3014,4.3014,4.293,4.2793,4.2622,4.2369,4.2057,4.1545,4.1028,4.0479,3.9867,3.8891,3.8084,3.7065,3.6096,3.5195,3.4758,3.4479,3.4283,3.4142,3.4037,3.3896,3.372,3.3607,3.3551,3.3438,3.3268,3.3126,3.3069,3.2926,3.2755,3.2755,3.2784,3.2755,3.2698,3.2698,3.2698,3.2698,3.2698,3.2698,3.2698,3.2698,5.4759,5.4158,5.3609,5.3164,5.272,5.1962,5.1596,5.1596,5.1596,5.1596,5.1596,5.1596,5.1596,5.1596,5.1596,5.1596,5.1596,5.1596,5.1596,5.1465,5.0681,5.0211,4.9692,4.9038,4.8433,4.825,4.8172,4.8143,4.8172,4.7997,4.788,4.785,4.7703,4.7674,4.7733,4.7703,4.7442,4.7383,4.7324,4.7231,4.6989,4.693,4.684,4.6665,4.6541,4.6506,4.6536,4.6331,4.6301,4.6296,4.6296,4.6296,4.6296,4.6296,4.6296,4.6296,4.6296,4.6296,4.6296,4.6296,4.6296,4.5949,4.5292,4.4614,4.4489,4.3589,4.3137,4.3014,4.3014,4.3014,4.3014,4.3014,4.3014,4.3014,4.2958,4.2793,4.2653,4.2397,4.211,4.1716,4.1258,4.0508,3.9896,3.9275,3.8371,3.7508,3.6578,3.563,3.4703,3.441,3.4171,3.3946,3.3777,3.3699,3.3586,3.3409,3.3324,3.3268,3.3126,3.2898,3.2784,3.2755,3.2755,3.2727,3.2698,3.2698,3.2698,3.2698,3.2698,3.2698,3.2698,3.2698,3.2698,3.2698,3.2698,5.4445,5.387,5.3321,5.2746,5.2171,5.1753,5.1596,5.1596,5.1596,5.1596,5.1596,5.1596,5.1596,5.1596,5.1596,5.1596,5.1596,5.1596,5.1387,5.123,5.0368,4.9871,4.9322,4.8691,4.8215,4.8084,4.7997,4.7967,4.7792,4.7619,4.753,4.7468,4.7231,4.7231,4.729,4.7261,4.7201,4.7142,4.7023,4.693,4.6691,4.6596,4.6511,4.6391,4.6326,4.6326,4.6326,4.6296,4.6296,4.6296,4.6296,4.6296,4.6296,4.6296,4.6296,4.6296,4.6296,4.6296,4.6296,4.6024,4.5974,4.5899,4.5095,4.4564,4.4238,4.3463,4.3137,4.3014,4.3014,4.3014,4.3014,4.3014,4.3014,4.3014,4.293,4.2793,4.2513,4.2256,4.1911,4.1488,4.0831,4.0071,3.9285,3.8587,3.7859,3.7037,3.6193,3.5235,3.4358,3.4116,3.3861,3.3607,3.3438,3.3381,3.3268,3.3097,3.3012,3.3033,3.2869,3.2698,3.2698,3.2727,3.2698,3.2698,3.2698,3.2698,3.2698,3.2698,3.2698,3.2698,3.2698,3.2698,3.2698,3.2698,3.2698,5.3896,5.3347,5.2746,5.2171,5.1675,5.1622,5.1596,5.1596,5.1596,5.1596,5.1596,5.1596,5.1596,5.1596,5.1596,5.1596,5.1596,5.1596,5.1282,5.0781,5.0124,4.9628,4.9024,4.8394,4.7932,4.7762,4.7674,4.756,4.7265,4.7231,4.7231,4.7112,4.69,4.684,4.69,4.6934,4.6904,4.681,4.6751,4.6631,4.6476,4.6386,4.6356,4.6296,4.6296,4.6296,4.6296,4.6296,4.6296,4.6296,4.6296,4.6296,4.6296,4.6296,4.6296,4.6271,4.6271,4.62,4.61,4.5748,4.5372,4.5246,4.4844,4.4342,4.389,4.3388,4.3115,4.3014,4.3014,4.3014,4.3014,4.3014,4.3014,4.2986,4.2958,4.2734,4.2481,4.2142,4.1745,4.1201,4.0513,3.9755,3.896,3.8223,3.7532,3.6597,3.5787,3.5021,3.4239,3.3926,3.3636,3.3268,3.3126,3.304,3.2926,3.2841,3.2841,3.2869,3.2812,3.2698,3.2698,3.2698,3.2698,3.2698,3.2698,3.2698,3.2698,3.2698,3.2698,3.2698,3.2698,3.2698,3.2698,3.2698,3.2698,5.387,5.3347,5.2746,5.2145,5.1648,5.1596,5.1596,5.1596,5.1596,5.1596,5.1596,5.1596,5.1596,5.1596,5.1596,5.1596,5.1596,5.1544,5.123,5.0672,4.9858,4.9282,4.8647,4.7958,4.7549,4.7383,4.7324,4.7265,4.7146,4.7023,4.6751,4.6571,4.6541,4.6506,4.6481,4.6541,4.6511,4.6481,4.6481,4.6391,4.6331,4.6271,4.6296,4.6296,4.6296,4.6296,4.6296,4.6296,4.6296,4.6296,4.6296,4.6296,4.6296,4.6296,4.6271,4.625,4.5999,4.5698,4.5623,4.5196,4.4769,4.4468,4.4141,4.4066,4.3689,4.3338,4.3014,4.3014,4.3014,4.3014,4.3014,4.3014,4.2958,4.2902,4.2818,4.2566,4.2284,4.1915,4.1459,4.0711,4.0019,3.9344,3.8596,3.8045,3.7339,3.6296,3.5381,3.464,3.4097,3.3763,3.3438,3.3069,3.2898,3.2841,3.2812,3.2755,3.2727,3.2698,3.2698,3.2698,3.2698,3.2698,3.2698,3.2698,3.2698,3.2698,3.2698,3.2698,3.2698,3.2698,3.2698,3.2698,3.2698,3.2698,3.2698,5.3556,5.2981,5.238,5.1936,5.1648,5.1596,5.1596,5.1596,5.1596,5.1596,5.1596,5.1596,5.1596,5.1596,5.1596,5.1534,5.1403,5.132,5.0924,4.9903,4.9449,4.8717,4.803,4.7525,4.7253,4.7112,4.7023,4.6934,4.6874,4.6721,4.6451,4.6361,4.6296,4.6296,4.6301,4.6331,4.6331,4.6301,4.6301,4.6296,4.6296,4.6296,4.6296,4.6296,4.6296,4.6296,4.6296,4.6296,4.6296,4.6296,4.6296,4.6296,4.625,4.615,4.5974,4.5849,4.5447,4.5196,4.5045,4.4589,4.4163,4.384,4.3589,4.3463,4.3388,4.3137,4.3065,4.3014,4.3014,4.3014,4.3014,4.2986,4.2902,4.2793,4.2566,4.234,4.2001,4.1631,4.0971,4.0188,3.9485,3.8834,3.8253,3.7783,3.7072,3.5982,3.5099,3.4331,3.3812,3.3465,3.3182,3.2869,3.2784,3.2727,3.2698,3.2698,3.2698,3.2698,3.2698,3.2698,3.2698,3.2698,3.2698,3.2698,3.2698,3.2698,3.2698,3.2698,3.2698,3.2698,3.2698,3.2698,3.2698,3.2698,3.2698,5.3008,5.2485,5.1831,5.1622,5.1596,5.1596,5.1596,5.1596,5.1596,5.1596,5.1596,5.1596,5.1565,5.1502,5.1471,5.1283,5.1074,5.0902,5.0266,4.8917,4.8738,4.82,4.7504,4.7087,4.6874,4.678,4.6746,4.6661,4.6421,4.6331,4.6386,4.6296,4.6296,4.6296,4.6296,4.6296,4.6296,4.6296,4.6296,4.6296,4.6296,4.6296,4.6296,4.6296,4.6296,4.6296,4.6296,4.6296,4.6296,4.6296,4.6296,4.6296,4.605,4.5698,4.5497,4.5246,4.4869,4.4644,4.4418,4.4041,4.3815,4.3539,4.3316,4.319,4.3115,4.309,4.3039,4.3014,4.3014,4.3014,4.3014,4.2986,4.2877,4.2706,4.2453,4.2171,4.1806,4.1292,4.0542,3.9808,3.9101,3.8477,3.8022,3.7508,3.6622,3.5596,3.4781,3.4045,3.352,3.3167,3.2983,3.2727,3.2698,3.2698,3.2698,3.2698,3.2698,3.2698,3.2698,3.2698,3.2698,3.2698,3.2698,3.2698,3.2698,3.2698,3.2698,3.2698,3.2698,3.2698,3.2698,3.2698,3.2698,3.2698,3.2698,5.2642,5.2433,5.1858,5.1596,5.1596,5.1596,5.1596,5.1596,5.1596,5.1565,5.1596,5.1565,5.144,5.1246,5.1189,5.1031,5.0675,5.0304,4.9625,4.88,4.8263,4.7663,4.6967,4.6695,4.6541,4.6451,4.6416,4.6416,4.6326,4.6296,4.6296,4.6296,4.6296,4.6296,4.6296,4.6296,4.6296,4.6296,4.6296,4.6296,4.6296,4.6296,4.6296,4.6296,4.6296,4.6296,4.6296,4.6296,4.6296,4.6296,4.6296,4.61,4.5698,4.5116,4.484,4.4719,4.4317,4.4066,4.389,4.3564,4.3338,4.3266,4.309,4.3065,4.3014,4.3014,4.3014,4.3014,4.3014,4.3014,4.2986,4.2958,4.2874,4.2594,4.2284,4.1948,4.1606,4.086,4.0106,3.9455,3.8745,3.8201,3.7716,3.6997,3.6116,3.5259,3.4498,3.3786,3.3241,3.2841,3.2869,3.2698,3.2698,3.2698,3.2698,3.2698,3.2698,3.2698,3.2698,3.2698,3.2698,3.2698,3.2698,3.2698,3.2698,3.2698,3.2698,3.2698,3.2698,3.2698,3.2698,3.2698,3.2698,3.2698,3.2698,5.2328,5.2067,5.1727,5.1596,5.1596,5.1596,5.1596,5.1565,5.144,5.1403,5.1346,5.1346,5.1189,5.0931,5.0873,5.0504,5.0097,4.9759,4.8884,4.815,4.7683,4.7157,4.6653,4.6391,4.6361,4.6296,4.6296,4.6326,4.6296,4.6296,4.6296,4.6296,4.6296,4.6296,4.6296,4.6296,4.6296,4.6296,4.6296,4.6296,4.6296,4.6296,4.6296,4.6296,4.6296,4.6301,4.6296,4.6245,4.615,4.5899,4.5673,4.5422,4.502,4.4539,4.4292,4.4116,4.3815,4.3467,4.3363,4.3212,4.3014,4.3014,4.3014,4.3014,4.3014,4.3014,4.3014,4.3014,4.3014,4.3014,4.293,4.2849,4.2622,4.2312,4.1972,4.1606,4.0976,4.0194,3.9544,3.8923,3.8283,3.7731,3.7174,3.6396,3.5521,3.4641,3.392,3.3516,3.2965,3.2698,3.2698,3.2698,3.2698,3.2698,3.2698,3.2698,3.2698,3.2698,3.2698,3.2698,3.2698,3.2698,3.2698,3.2698,3.2698,3.2698,3.2698,3.2698,3.2698,3.2698,3.2698,3.2698,3.2698,3.2698,3.2698,5.2067,5.1648,5.1596,5.1596,5.1596,5.1534,5.1502,5.1471,5.1183,5.0994,5.0931,5.0931,5.0804,5.062,5.0499,4.9888,4.94,4.9083,4.8232,4.7529,4.7085,4.6738,4.6512,4.6301,4.6296,4.6296,4.6296,4.6296,4.6296,4.6296,4.6296,4.6296,4.6296,4.6296,4.6296,4.6296,4.6296,4.6296,4.6296,4.6296,4.6296,4.6296,4.6296,4.6296,4.6301,4.6276,4.625,4.6125,4.5899,4.5397,4.492,4.4669,4.4392,4.4016,4.379,4.3564,4.3391,4.3165,4.3065,4.3065,4.3014,4.3014,4.3014,4.3014,4.3014,4.2986,4.2986,4.2986,4.2986,4.293,4.2821,4.2681,4.2397,4.2001,4.1606,4.1177,4.0397,3.9691,3.9101,3.8477,3.7903,3.733,3.66,3.5827,3.4981,3.4078,3.3474,3.3093,3.2784,3.2727,3.2698,3.2698,3.2698,3.2698,3.2698,3.2698,3.2698,3.2698,3.2698,3.2698,3.2698,3.2698,3.2698,3.2698,3.2698,3.2698,3.2698,3.2698,3.2698,3.2698,3.2698,3.2698,3.2698,3.2698,3.2698,5.1701,5.1596,5.1596,5.1596,5.1534,5.1283,5.1214,5.1151,5.0867,5.055,5.0391,5.0295,5.02,5.02,5.02,4.9685,4.8857,4.8466,4.7875,4.7205,4.6722,4.6476,4.6351,4.6296,4.6296,4.6296,4.6296,4.6296,4.6296,4.6296,4.6296,4.6296,4.6296,4.6296,4.6296,4.6296,4.6296,4.6271,4.625,4.62,4.6225,4.625,4.6271,4.6296,4.6271,4.6024,4.5799,4.5673,4.5296,4.479,4.4263,4.4041,4.3815,4.3539,4.3313,4.3263,4.3065,4.3039,4.3014,4.3014,4.3014,4.3014,4.3014,4.3014,4.2986,4.2958,4.2958,4.293,4.2902,4.2765,4.2653,4.2513,4.2231,4.1688,4.1206,4.0653,3.9954,3.9485,3.896,3.8297,3.7621,3.6925,3.6159,3.5347,3.45,3.3723,3.3205,3.2846,3.2727,3.2698,3.2698,3.2698,3.2698,3.2698,3.2698,3.2698,3.2698,3.2698,3.2698,3.2698,3.2698,3.2698,3.2698,3.2698,3.2698,3.2698,3.2698,3.2698,3.2698,3.2698,3.2698,3.2698,3.2698,3.2698,3.2698]},{"header":{"parameterUnit":"m.s-1","parameterCategory":1,"la1":31.0,"la2":29.5877,"lo1":-88.7671,"lo2":-86.6584,"dy":0.0162,"dx":0.0185,"nx":115,"ny":88,"refTime":"2024-09-03T12:00:00:Z","depth":0,"parameterNumber":3,"parameterNumberName":"V-component_of_WINDS"},"data":[0.0,0.0,0.0,0.0,0.0,0.0,0.0,0.0,0.0,0.0,0.0,0.0,0.0,0.0,0.0,0.0,0.0,0.0,0.0,0.0,0.0,0.0,0.0,0.0,0.0,0.0,0.0,0.0,0.0,0.0,0.0,0.0,0.0,0.0,0.0,0.0,0.0,0.0,0.0,0.0,0.0,0.0,0.0,0.0,0.0,0.0,0.0,0.0,0.0,0.0,0.0,0.0,0.0,0.0,0.0,0.0,0.0,0.0,0.0,0.0,0.0,0.0,0.0,0.0,0.0,0.0,0.0,0.0,0.0,0.0,0.0,0.0,0.0,0.0,0.0,0.0,0.0,0.0,0.0,0.0,0.0,0.0,0.0,0.0,0.0,0.0,0.0,0.0,0.0,0.0,0.0,0.0,0.0,0.0,0.0,0.0,0.0,0.0,0.0,0.0,0.0,0.0,0.0,0.0,0.0,0.0,0.0,0.0,0.0,0.0,0.0,0.0,0.0,0.0,0.0,0.0,0.0,0.0,0.0,0.0,0.0,0.0,0.0,0.0,0.0,0.0,0.0,0.0,0.0,0.0,0.0,0.0,0.0,0.0,0.0,0.0,0.0,0.0,0.0,0.0,0.0,0.0,0.0,0.0,0.0,0.0,0.0,0.0,0.0,0.0,0.0,0.0,0.0,0.0,0.0,0.0,0.0,0.0,0.0,0.0,0.0,0.0,0.0,0.0,0.0,0.0,0.0,0.0,0.0,0.0,0.0,0.0,0.0,0.0,0.0,0.0,0.0,0.0,0.0,0.0,0.0,0.0,0.0,0.0,0.0,0.0,0.0,0.0,0.0,0.0,0.0,0.0,0.0,0.0,0.0,0.0,0.0,0.0,0.0,0.0,0.0,0.0,0.0,0.0,0.0,0.0,0.0,0.0,0.0,0.0,0.0,0.0,0.0,0.0,0.0,0.0,0.0,0.0,0.0,0.0,0.0,0.0,0.0,0.0,0.0,0.0,0.0,0.0,0.0,0.0,0.0,0.0,0.0,0.0,0.0,0.0,0.0,0.0,0.0,0.0,0.0,0.0,0.0,0.0,0.0,0.0,0.0,0.0,0.0,0.0,0.0,0.0,0.0,0.0,0.0,0.0,0.0,0.0,0.0,0.0,0.0,0.0,0.0,0.0,0.0,0.0,0.0,0.0,0.0,0.0,0.0,0.0,0.0,0.0,0.0,0.0,0.0,0.0,0.0,0.0,0.0,0.0,0.0,0.0,0.0,0.0,0.0,0.0,0.0,0.0,0.0,0.0,0.0,0.0,0.0,0.0,0.0,0.0,0.0,0.0,0.0,0.0,0.0,0.0,0.0,0.0,0.0,0.0,0.0,0.0,0.0,0.0,0.0,0.0,0.0,0.0,0.0,0.0,0.0,0.0,0.0,0.0,0.0,0.0,0.0,0.0,0.0,0.0,0.0,0.0,0.0,0.0,0.0,0.0,0.0,0.0,0.0,0.0,0.0,0.0,0.0,0.0,0.0,0.0,0.0,0.0,0.0,0.0,0.0,0.0,0.0,0.0,0.0,0.0,0.0,0.0,0.0,0.0,0.0,0.0,0.0,0.0,0.0,0.0,0.0,0.0,0.0,0.0,0.0,0.0,0.0,0.0,0.0,0.0,0.0,0.0,0.0,0.0,0.0,0.0,0.0,0.0,0.0,0.0,0.0,0.0,0.0,0.0,0.0,0.0,0.0,0.0,0.0,0.0,0.0,0.0,0.0,0.0,0.0,0.0,0.0,0.0,0.0,0.0,0.0,0.0,0.0,0.0,0.0,0.0,0.0,0.0,0.0,0.0,0.0,0.0,0.0,0.0,0.0,0.0,0.0,0.0,0.0,0.0,0.0,0.0,0.0,0.0,0.0,0.0,0.0,0.0,0.0,0.0,0.0,0.0,0.0,0.0,0.0,0.0,0.0,0.0,0.0,0.0,0.0,0.0,0.0,0.0,0.0,0.0,0.0,0.0,0.0,0.0,0.0,0.0,0.0,0.0,0.0,0.0,0.0,0.0,0.0,0.0,0.0,0.0,0.0,0.0,0.0,0.0,0.0,0.0,0.0,0.0,0.0,0.0,0.0,0.0,0.0,0.0,0.0,0.0,0.0,0.0,0.0,0.0,0.0,0.0,0.0,0.0,0.0,0.0,0.0,0.0,0.0,0.0,0.0,0.0,0.0,0.0,0.0,0.0,0.0,0.0,0.0,0.0,0.0,0.0,0.0,0.0,0.0,0.0,0.0,0.0,0.0,0.0,0.0,0.0,0.0,0.0,0.0,0.0,0.0,0.0,0.0,0.0,0.0,0.0,0.0,0.0,0.0,0.0,0.0,0.0,0.0,0.0,0.0,0.0,0.0,0.0,0.0,0.0,0.0,0.0,0.0,0.0,0.0,0.0,0.0,0.0,0.0,0.0,0.0,0.0,0.0,0.0,0.0,0.0,0.0,0.0,0.0,0.0,0.0,0.0,0.0,0.0,0.0,0.0,0.0,0.0,0.0,0.0,0.0,0.0,0.0,0.0,0.0,0.0,0.0,0.0,0.0,0.0,0.0,0.0,0.0,0.0,0.0,0.0,0.0,0.0,0.0,0.0,0.0,0.0,0.0,0.0,0.0,0.0,0.0,0.0,0.0,0.0,0.0,0.0,0.0,0.0,0.0,0.0,0.0,0.0,0.0,0.0,0.0,0.0,0.0,0.0,0.0,0.0,0.0,0.0,0.0,0.0,0.0,0.0,0.0,0.0,0.0,0.0,0.0,0.0,0.0,0.0,0.0,0.0,0.0,0.0,0.0,0.0,0.0,0.0,0.0,0.0,0.0,0.0,0.0,0.0,0.0,0.0,0.0,0.0,0.0,0.0,0.0,0.0,0.0,0.0,0.0,0.0,0.0,0.0,0.0,0.0,0.0,0.0,0.0,0.0,0.0,0.0,0.0,0.0,0.0,0.0,0.0,0.0,0.0,0.0,0.0,0.0,0.0,0.0,0.0,0.0,0.0,0.0,0.0,0.0,0.0,0.0,0.0,0.0,0.0,0.0,0.0,0.0,0.0,0.0,0.0,0.0,0.0,0.0,0.0,0.0,0.0,0.0,0.0,0.0,0.0,0.0,0.0,0.0,0.0,0.0,0.0,0.0,0.0,0.0,0.0,0.0,0.0,0.0,0.0,0.0,0.0,0.0,0.0,0.0,0.0,0.0,0.0,0.0,0.0,0.0,0.0,0.0,0.0,0.0,0.0,0.0,0.0,0.0,0.0,0.0,0.0,0.0,0.0,0.0,0.0,0.0,0.0,0.0,0.0,0.0,0.0,0.0,0.0,0.0,0.0,0.0,0.0,0.0,0.0,0.0,0.0,0.0,0.0,0.0,0.0,0.0,0.0,0.0,0.0,0.0,0.0,0.0,0.0,0.0,0.0,0.0,0.0,0.0,0.0,0.0,0.0,0.0,0.0,0.0,0.0,0.0,0.0,0.0,0.0,0.0,0.0,0.0,0.0,0.0,0.0,0.0,0.0,0.0,0.0,0.0,0.0,0.0,0.0,0.0,0.0,0.0,0.0,0.0,0.0,0.0,0.0,0.0,0.0,0.0,0.0,0.0,0.0,0.0,0.0,0.0,0.0,0.0,0.0,0.0,0.0,0.0,0.0,0.0,0.0,0.0,0.0,0.0,0.0,0.0,0.0,0.0,0.0,0.0,0.0,0.0,0.0,0.0,0.0,0.0,0.0,0.0,0.0,0.0,0.0,0.0,0.0,0.0,0.0,0.0,0.0,0.0,0.0,0.0,0.0,0.0,0.0,0.0,0.0,0.0,0.0,0.0,0.0,0.0,0.0,0.0,0.0,0.0,0.0,0.0,0.0,0.0,0.0,0.0,0.0,0.0,0.0,0.0,0.0,0.0,0.0,0.0,0.0,0.0,0.0,0.0,0.0,0.0,0.0,0.0,0.0,0.0,0.0,0.0,0.0,0.0,0.0,0.0,0.0,0.0,0.0,0.0,0.0,0.0,0.0,0.0,0.0,0.0,0.0,0.0,0.0,0.0,0.0,0.0,0.0,0.0,0.0,0.0,0.0,0.0,0.0,0.0,0.0,0.0,0.0,0.0,0.0,0.0,0.0,0.0,0.0,0.0,0.0,0.0,0.0,0.0,0.0,0.0,0.0,0.0,0.0,0.0,0.0,0.0,0.0,0.0,0.0,0.0,0.0,0.0,0.0,0.0,0.0,0.0,0.0,0.0,0.0,0.0,0.0,0.0,0.8429,0.0,0.0,0.0,0.0,0.0,0.0,0.0,0.0,0.0,0.0,0.0,0.0,0.0,0.0,0.0,0.0,0.0,0.0,0.0,0.0,0.0,0.0,0.0,0.0,0.0,0.0,0.0,0.0,0.0,0.0,0.0,0.0,0.0,0.0,0.0,0.0,0.0,0.0,0.0,0.0,0.0,0.0,0.0,0.0,0.0,0.0,0.0,0.0,0.0,0.0,0.0,0.0,0.0,0.0,0.0,0.0,0.0,0.0,0.0,0.0,0.0,0.0,0.0,0.0,0.0,0.0,0.0,0.0,0.0,0.0,0.0,0.0,0.0,0.0,0.0,0.0,0.0,0.0,0.0,0.0,0.0,0.0,0.0,0.0,0.0,0.0,0.0,0.0,0.0,0.0,0.0,0.0,0.0,0.0,0.0,0.0,0.0,0.0,0.0,0.0,0.0,0.0,0.0,0.0,0.0,0.0,0.0,0.0,0.0,0.0,0.9619,0.9471,0.9486,0.9271,0.8844,0.0,0.0,0.0,0.0,0.0,0.0,0.0,0.0,0.0,0.0,0.0,0.0,0.0,0.0,0.0,0.0,0.0,0.0,0.0,0.0,0.0,0.0,0.0,0.0,0.0,0.0,0.0,0.0,0.0,0.0,0.0,0.0,0.0,0.0,0.0,0.0,0.0,0.0,0.0,0.0,0.0,0.0,0.0,0.0,0.0,0.0,0.0,0.0,0.0,0.0,0.0,0.0,0.0,0.0,0.0,0.0,0.0,0.0,0.0,0.0,0.0,0.0,0.0,0.0,0.0,0.0,0.0,0.0,0.0,0.0,0.0,0.0,0.0,0.0,0.0,0.0,0.0,0.0,0.0,0.0,0.0,0.0,0.0,0.0,0.0,0.0,0.0,0.0,0.0,0.0,0.0,0.0,0.0,0.0,0.0,0.0,0.0,0.0,0.0,0.0,0.0,0.0,0.0,0.0,0.0,0.0,0.0,0.0,0.0,0.0,0.0,0.0,0.978,0.9592,0.919,0.0,0.0,0.0,0.0,0.0,0.0,0.0,0.0,0.0,0.0,0.0,0.0,0.0,0.0,0.0,0.0,0.0,0.0,0.0,0.0,0.0,0.0,0.0,0.0,0.0,0.0,0.0,0.0,0.0,0.0,0.0,0.0,0.0,0.0,0.0,0.0,0.0,0.0,0.0,0.0,0.0,0.0,0.0,0.0,0.0,0.0,0.0,0.0,0.0,0.0,0.0,0.0,0.0,0.0,0.0,0.0,0.0,0.0,0.0,0.0,0.0,0.0,0.0,0.0,0.0,0.0,0.0,0.0,0.0,0.0,0.0,0.0,0.0,0.0,0.0,0.0,0.0,0.0,0.0,0.0,0.0,0.0,0.0,0.0,0.0,0.0,0.0,0.0,0.0,0.0,0.0,0.0,0.0,0.0,0.0,0.0,0.0,0.0,0.0,0.0,0.0,0.0,0.0,0.0,0.0,0.0,0.0,0.0,0.0,0.0,1.037,1.0072,1.0072,0.0,0.9204,0.0,0.0,0.0,0.0,0.0,0.0,0.0,0.0,0.0,0.0,0.0,0.0,0.0,0.0,0.0,0.0,0.0,0.0,0.0,0.0,0.0,0.0,0.0,0.0,0.0,0.0,0.0,0.0,0.0,0.0,0.0,0.0,0.0,0.0,0.0,0.0,0.0,0.0,0.0,0.0,0.0,0.0,0.0,0.0,0.0,0.0,0.0,0.0,0.0,0.0,0.0,0.0,0.0,0.0,0.0,0.0,0.0,0.0,0.0,0.0,0.0,0.0,0.0,0.0,0.0,0.0,0.0,0.0,0.0,0.0,0.0,0.0,0.0,0.0,0.0,0.0,0.0,0.0,0.0,0.0,0.0,0.0,0.0,0.0,0.0,0.0,0.0,0.0,0.0,0.0,0.0,0.0,0.0,0.0,0.0,0.0,0.0,0.0,0.0,0.0,0.0,0.0,0.0,0.0,0.0,0.0,0.0,0.0,0.0,0.0,1.0613,1.0635,1.049,1.01,0.0,0.0,0.0,0.0,0.0,0.0,0.0,0.0,0.0,0.0,0.0,0.0,0.0,0.0,0.0,0.0,0.0,0.0,0.0,0.0,0.0,0.0,0.0,0.0,0.0,0.0,0.0,0.0,0.0,0.0,0.0,0.0,0.0,0.0,0.0,0.0,0.0,0.0,0.0,0.0,0.0,0.0,0.0,0.0,0.0,0.0,0.0,0.0,0.0,0.0,0.0,0.0,0.0,0.0,0.0,0.0,0.0,0.0,0.0,0.0,0.0,0.0,0.0,0.0,0.0,0.0,0.0,0.0,0.0,0.0,0.0,0.0,0.0,0.0,0.0,0.0,0.0,0.0,0.0,0.0,0.0,0.0,0.0,0.0,0.0,0.0,0.0,0.0,0.0,0.0,0.0,0.0,0.0,0.0,0.0,0.0,0.0,0.0,0.0,0.0,0.0,0.0,0.0,0.0,0.0,0.0,0.0,0.0,0.0,0.0,1.0544,1.0798,1.0985,1.0747,1.0318,0.9729,0.0,0.0,0.0,0.0,0.0,0.0,0.0,0.0,0.0,0.0,0.0,0.0,0.0,0.0,0.0,0.0,0.0,0.0,0.0,0.0,0.0,0.0,0.0,0.0,0.0,0.0,0.0,0.0,0.0,0.0,0.0,0.0,0.0,0.0,0.0,0.0,0.0,0.0,0.0,0.0,0.0,0.0,0.0,0.0,0.0,0.0,0.0,0.0,0.0,0.0,0.0,0.0,0.0,0.0,0.0,0.0,0.0,0.0,0.0,0.0,0.0,0.0,0.0,0.0,0.0,0.0,0.0,0.0,0.0,0.0,0.0,0.0,0.0,0.0,0.0,0.0,0.0,0.0,0.0,0.0,0.0,0.0,0.0,0.0,0.0,0.0,0.0,0.0,0.0,0.0,0.0,0.0,0.0,0.0,0.0,0.0,0.0,0.0,0.0,0.0,0.0,0.0,0.0,0.0,0.0,0.0,0.0,0.0,1.0559,1.0854,1.0998,1.0995,1.0747,1.0318,0.0,0.0,0.0,0.0,0.0,0.0,0.0,0.0,0.0,0.0,0.0,0.0,0.0,0.0,0.0,0.0,0.0,0.0,0.0,0.0,0.0,0.0,0.0,0.0,0.0,0.0,0.0,0.0,0.0,0.0,0.0,0.0,0.0,0.0,0.0,0.0,0.0,0.0,0.0,0.0,0.0,0.0,0.0,0.0,0.0,0.0,0.0,0.0,0.0,0.0,0.0,0.0,0.0,0.0,0.0,0.0,0.0,0.0,0.0,0.0,0.0,0.0,0.0,0.0,0.0,0.0,0.0,0.0,0.0,0.0,0.0,0.0,0.0,0.0,0.0,0.0,0.0,0.0,0.0,0.0,0.0,0.0,0.0,0.0,0.0,0.0,0.0,0.0,0.0,0.0,0.0,0.0,0.0,0.0,0.0,0.0,0.0,0.0,0.0,0.0,0.0,0.0,0.0,0.0,0.0,0.0,0.0,0.0,0.0,1.0573,1.1022,1.1259,1.1246,1.1169,1.0742,0.0,0.0,0.0,0.0,0.0,0.0,0.0,0.0,0.0,0.0,0.0,0.0,0.0,0.0,0.0,0.0,0.0,0.0,0.0,0.0,0.0,0.0,0.0,0.0,0.0,0.0,0.0,0.0,0.0,0.0,0.0,0.0,0.0,0.0,0.0,0.0,0.0,0.0,0.0,0.0,0.0,0.0,0.0,0.0,0.0,0.0,0.0,0.0,0.0,0.0,0.0,0.0,0.0,0.0,0.0,0.0,0.0,0.0,0.0,0.0,0.0,0.0,0.0,0.0,0.0,0.0,0.0,0.0,0.0,0.0,0.0,0.0,0.0,0.0,0.0,0.0,0.0,0.0,0.0,0.0,0.0,0.0,0.0,0.0,0.0,0.0,0.0,0.0,0.0,0.0,0.0,0.0,0.0,0.0,0.0,0.0,0.0,0.0,0.0,0.0,0.0,0.0,0.0,0.0,0.0,0.0,0.0,0.0,0.0,1.0988,0.0,1.1686,0.0,1.1645,1.1182,0.0,0.0,0.0,0.0,0.0,0.0,0.0,0.0,0.0,0.0,0.0,0.0,0.0,0.0,0.0,0.0,0.0,0.0,0.0,0.0,0.0,0.0,0.0,0.0,0.0,0.0,0.0,0.0,0.0,0.0,0.0,0.0,0.0,0.0,0.0,0.0,0.0,0.0,0.0,0.0,0.0,0.0,0.0,0.0,0.0,0.0,0.0,0.0,0.0,0.0,0.0,0.0,0.0,0.0,0.0,0.0,0.0,0.0,0.0,0.0,0.0,0.0,0.0,0.0,0.0,0.0,0.0,0.0,0.0,0.0,0.0,0.0,0.0,0.0,0.0,0.0,0.0,0.0,0.0,0.0,0.0,0.0,0.0,0.0,0.0,0.0,0.0,0.0,0.0,0.0,0.0,0.0,0.0,0.0,0.0,0.0,0.0,0.0,0.0,0.0,0.0,0.0,0.0,0.0,0.0,0.0,0.0,0.0,1.0466,1.1846,1.2176,1.2336,1.2323,1.22,1.155,0.0,0.0,0.0,0.0,0.0,0.0,0.0,0.0,0.0,0.0,0.0,0.0,0.0,0.0,0.0,0.0,0.0,0.0,0.0,0.0,0.0,0.0,0.0,0.0,0.0,0.0,0.0,0.0,0.0,0.0,0.0,0.0,0.0,0.0,0.0,0.0,0.0,0.0,0.0,0.0,0.0,0.0,0.0,0.0,0.0,0.0,0.0,0.0,0.0,0.0,0.0,0.0,0.0,0.0,0.0,0.0,0.0,0.0,0.0,0.0,0.0,0.0,0.0,0.0,0.0,0.0,0.0,0.0,0.0,0.0,0.0,0.0,0.0,0.0,0.0,0.0,0.0,0.0,0.0,0.0,0.0,0.0,0.0,0.0,0.0,0.0,0.0,0.0,0.0,0.0,0.0,0.0,0.0,0.0,0.0,0.0,0.0,0.0,0.0,0.0,0.0,0.0,0.0,0.0,0.0,0.0,0.0,0.0,0.0,1.2713,1.3026,1.3363,1.364,1.3227,1.2398,0.0,0.0,0.0,0.0,0.0,0.0,0.0,0.0,0.0,0.0,0.0,0.0,0.0,0.0,0.0,0.0,0.0,0.0,0.0,0.0,0.0,0.0,0.0,0.0,0.0,0.0,0.0,0.0,0.0,0.0,0.0,0.0,0.0,0.0,0.0,0.0,0.0,0.0,0.0,0.0,0.0,0.0,0.0,0.0,0.0,0.0,0.0,0.0,0.0,0.0,0.0,0.0,0.0,0.0,0.0,0.0,0.0,0.0,0.0,0.0,0.0,0.0,0.0,0.0,0.0,0.0,0.0,0.0,0.0,0.0,0.0,0.0,0.0,0.0,0.0,0.0,0.0,0.0,0.0,0.0,0.0,0.0,0.0,0.0,0.0,0.0,0.0,0.0,0.0,0.0,0.0,0.0,0.0,0.0,0.0,0.0,0.0,0.0,0.0,0.0,0.0,0.0,0.0,0.0,0.0,0.0,0.0,0.0,0.0,1.4497,1.4548,1.4689,1.4919,1.4405,1.3431,1.2047,0.0,0.0,0.0,0.0,0.0,0.0,0.0,0.0,0.0,0.0,0.0,0.0,0.0,0.0,0.0,0.0,0.0,0.0,0.0,0.0,0.0,0.0,0.0,0.0,0.0,0.0,0.0,0.0,0.0,0.0,0.0,0.0,0.0,0.0,0.0,0.0,0.0,0.0,0.0,0.0,0.0,0.0,0.0,0.0,0.0,0.0,0.0,0.0,0.0,0.0,0.0,0.0,0.0,0.0,0.0,0.0,0.0,0.0,0.0,0.0,0.0,0.0,0.0,0.0,0.0,0.0,0.0,0.0,0.0,0.0,0.0,0.0,0.0,0.0,0.0,0.0,0.0,0.0,0.0,0.0,0.0,0.0,0.0,0.0,0.0,0.0,0.0,0.0,0.0,0.0,0.0,0.0,0.0,0.0,0.0,0.0,0.0,0.0,0.0,0.0,0.0,0.0,0.0,0.0,0.0,0.0,0.0,0.0,1.6978,1.6669,1.6426,1.6173,1.5702,1.4656,0.0,0.0,0.0,0.0,0.0,0.0,0.0,0.0,0.0,0.0,0.0,0.0,0.0,0.0,0.0,0.0,0.0,0.0,0.0,0.0,0.0,0.0,0.0,0.0,0.0,0.0,0.0,0.0,0.0,0.0,0.0,0.0,0.0,0.0,0.0,0.0,0.0,0.0,0.0,0.0,0.0,0.0,0.0,0.0,0.0,0.0,0.0,0.0,0.0,0.0,0.0,0.0,0.0,0.0,0.0,0.0,0.0,0.0,0.0,0.0,0.0,0.0,0.0,0.0,0.0,0.0,0.0,0.0,0.0,0.0,0.0,0.0,0.0,0.0,0.0,0.0,0.0,0.0,0.0,0.0,0.0,0.0,0.0,0.0,0.0,0.0,0.0,0.0,0.0,0.0,0.0,0.0,0.0,0.0,0.0,0.0,0.0,0.0,0.0,0.0,0.0,0.0,0.0,0.0,0.0,0.0,0.0,0.0,0.0,1.8396,1.9686,1.9638,1.8197,1.7535,1.6267,0.0,0.0,0.0,0.0,0.0,0.0,0.0,0.0,0.0,0.0,0.0,0.0,0.0,0.0,0.0,0.0,0.0,0.0,0.0,0.0,0.0,0.0,0.0,0.0,0.0,0.0,0.0,0.0,0.0,0.0,0.0,0.0,0.0,0.0,0.0,0.0,0.0,0.0,0.0,0.0,0.0,0.0,0.0,0.0,0.0,0.0,0.0,0.0,0.0,0.0,0.0,0.0,0.0,0.0,0.0,0.0,0.0,0.0,0.0,0.0,0.0,0.0,0.0,0.0,0.0,0.0,0.0,0.0,0.0,0.0,0.0,0.0,0.0,0.0,0.0,0.0,0.0,0.0,0.0,0.0,0.0,0.0,0.0,0.0,0.0,0.0,0.0,0.0,0.0,0.0,0.0,0.0,0.0,0.0,0.0,0.0,0.0,0.0,0.0,0.0,0.0,0.0,0.0,0.0,0.0,0.0,0.0,0.0,1.7764,1.9875,2.1378,2.171,2.0822,1.9577,1.7978,0.0,0.0,0.0,0.0,0.0,0.0,0.0,0.0,0.0,0.0,0.0,0.0,0.0,0.0,0.0,0.0,0.0,0.0,0.0,0.0,0.0,0.0,0.0,0.0,0.0,0.0,0.0,0.0,0.0,0.0,0.0,0.0,0.0,0.0,0.0,0.0,0.0,0.0,0.0,0.0,0.0,0.0,0.0,0.0,0.0,0.0,0.0,0.0,0.0,0.0,0.0,0.0,0.0,0.0,0.0,0.0,0.0,0.0,0.0,0.0,0.0,0.0,0.0,0.0,0.0,0.0,0.0,0.0,0.0,0.0,0.0,0.0,0.0,0.0,0.0,0.0,0.0,0.0,0.0,0.0,0.0,0.0,0.0,0.0,0.0,0.0,0.0,0.0,0.0,0.0,0.0,0.0,0.0,0.0,0.0,0.0,0.0,0.0,0.0,0.0,0.0,0.0,0.0,0.0,0.0,0.0,0.0,0.0,1.8792,2.123,2.2336,2.3059,2.3477,2.1642,1.9591,0.0,0.0,0.0,0.0,0.0,0.0,0.0,0.0,0.0,0.0,0.0,0.0,0.0,0.0,0.0,0.0,0.0,0.0,0.0,0.0,0.0,0.0,0.0,0.0,0.0,0.0,0.0,0.0,0.0,0.0,0.0,0.0,0.0,0.0,0.0,0.0,0.0,0.0,0.0,0.0,0.0,0.0,0.0,0.0,0.0,0.0,0.0,0.0,0.0,0.0,0.0,0.0,0.0,0.0,0.0,0.0,0.0,0.0,0.0,0.0,0.0,0.0,0.0,0.0,0.0,0.0,0.0,0.0,0.0,0.0,0.0,0.0,0.0,0.0,0.0,0.0,0.0,0.0,0.0,0.0,0.0,0.0,0.0,0.0,0.0,0.0,0.0,0.0,0.0,0.0,0.0,0.0,0.0,0.0,0.0,0.0,0.0,0.0,0.0,0.0,0.0,0.0,0.0,0.0,0.0,0.0,0.0,0.0,1.9826,2.1865,2.3583,2.4537,2.4571,2.2777,2.0743,0.0,0.0,0.0,0.0,0.0,0.0,0.0,0.0,0.0,0.0,0.0,0.0,0.0,0.0,0.0,0.0,0.0,0.0,0.0,0.0,0.0,0.0,0.0,0.0,0.0,0.0,0.0,0.0,0.0,0.0,0.0,0.0,0.0,0.0,0.0,0.0,0.0,0.0,0.0,0.0,0.0,0.0,0.0,0.0,0.0,0.0,0.0,0.0,0.8065,0.0,0.0,0.0,0.0,0.0,0.0,0.0,0.0,0.0,0.0,0.0,0.0,0.0,0.0,0.0,0.0,0.0,0.0,0.0,0.0,0.0,0.0,0.0,0.0,0.0,0.0,0.0,0.0,0.0,0.0,0.0,0.0,0.0,0.0,0.0,0.0,0.0,0.0,0.0,0.0,0.0,0.0,0.0,0.0,0.0,0.0,0.0,0.0,0.0,0.0,0.0,0.0,0.0,0.0,0.0,0.0,0.0,0.0,0.0,2.0812,2.2853,2.4448,2.5231,2.5092,2.3624,2.172,0.0,0.0,0.0,0.0,0.0,0.0,0.0,0.0,0.0,0.0,0.0,0.0,0.0,0.0,0.0,0.0,0.0,0.0,0.0,0.0,0.0,0.0,0.0,0.0,0.0,0.0,0.0,0.0,0.0,0.0,0.0,0.0,0.0,0.0,0.0,0.0,0.0,0.0,0.0,0.0,0.0,0.0,0.0,0.0,0.0,0.0,0.0,0.0,0.0,0.0,0.0,0.0,0.0,0.0,0.0,0.0,0.0,0.0,0.0,0.0,0.0,0.0,0.0,0.0,0.0,0.0,0.0,0.0,0.0,0.0,0.0,0.0,0.0,0.0,0.0,0.0,0.0,0.0,0.0,0.0,0.0,0.0,0.0,0.0,0.0,0.0,0.0,0.0,0.0,0.0,0.0,0.0,0.0,0.0,0.0,0.0,0.0,0.0,0.0,0.0,0.0,0.0,0.0,0.0,0.0,0.0,0.0,1.9492,2.1714,2.3818,2.5066,2.566,2.5518,2.4288,2.2593,2.0407,0.0,0.0,0.0,0.0,0.0,0.0,0.0,0.0,0.0,0.0,0.0,0.0,0.0,0.0,0.0,0.0,0.0,0.0,0.0,0.0,0.0,0.0,0.0,0.0,0.0,0.0,0.0,0.0,0.0,0.0,0.0,0.0,0.0,0.0,0.0,0.0,0.0,0.0,0.8064,0.9247,0.0,0.0,0.0,0.0,0.0,0.0,0.0,0.0,1.0123,0.0,0.0,0.0,0.0,0.0,0.0,0.0,0.0,0.0,0.0,0.0,0.0,0.0,0.0,0.0,0.0,0.0,0.0,0.0,0.0,0.0,0.0,0.0,0.0,0.0,0.0,0.0,0.0,0.0,0.0,0.0,0.0,0.0,0.0,0.0,0.0,0.0,0.0,0.0,0.0,0.0,0.0,0.0,0.0,0.0,0.0,0.0,0.0,0.0,0.0,0.0,0.0,0.0,0.0,0.0,0.0,1.7503,2.0145,2.2356,2.4109,2.5552,2.6214,2.6024,2.4831,2.3194,2.1064,0.0,0.0,0.0,0.0,0.0,0.0,0.0,0.0,0.0,0.0,0.0,0.0,0.0,0.0,0.0,0.0,0.0,0.0,0.0,0.0,0.0,0.0,0.0,0.0,0.0,0.0,0.0,0.0,0.0,0.0,0.0,0.0,0.0,0.0,0.0,0.0,0.0,0.0,0.0,1.1077,1.195,0.0,0.0,0.0,0.0,0.0,0.0,0.0,0.0,1.0697,0.0,0.0,0.0,0.0,0.0,0.0,0.0,0.0,0.0,0.0,0.0,0.0,0.0,0.0,0.0,0.0,0.0,0.0,0.0,0.0,0.0,0.0,0.0,0.0,0.0,0.0,0.0,0.0,0.0,0.0,0.0,0.0,0.0,0.0,0.0,0.0,0.0,0.0,0.0,0.0,0.0,0.0,0.0,0.0,0.0,0.0,0.0,0.0,0.0,0.0,0.0,0.0,0.0,0.0,0.0,1.837,2.0785,2.2876,2.451,2.5657,2.6243,2.616,2.4519,2.2782,0.0,0.0,0.0,0.0,0.0,0.0,0.0,0.0,0.0,0.0,0.0,0.0,0.0,0.0,0.0,0.0,0.0,0.0,0.0,0.0,0.0,0.0,0.0,0.0,0.0,0.0,0.0,0.0,0.0,0.0,0.0,0.0,0.0,0.0,0.0,0.0,0.0,0.0,0.0,0.0,1.2243,1.3122,1.3469,0.0,0.0,0.0,0.0,0.0,0.0,1.2258,1.192,0.0,0.0,0.0,0.0,0.0,0.0,0.0,0.0,0.0,0.0,0.0,0.0,0.0,0.0,0.0,0.0,0.0,0.0,0.0,0.0,0.0,0.0,0.0,0.0,0.0,0.0,0.0,0.0,0.0,0.0,0.0,0.0,0.0,0.0,0.0,0.0,0.0,0.0,0.0,0.0,0.0,0.0,0.0,0.0,0.0,0.0,0.0,0.0,0.0,0.0,0.0,0.0,0.0,0.0,0.0,1.9245,2.1507,2.3453,2.5066,2.5913,2.6344,2.6314,2.4288,2.238,0.0,0.0,0.0,0.0,0.0,0.0,0.0,0.0,0.0,0.0,0.0,0.0,0.0,0.0,0.0,0.0,0.0,0.0,0.0,0.0,0.0,0.0,0.0,0.0,0.0,0.0,0.0,0.0,0.0,0.0,0.0,0.0,0.0,0.0,0.0,0.0,0.0,0.0,0.0,0.0,0.0,1.4146,1.4394,1.5023,0.0,0.0,0.0,0.0,1.4307,1.3783,0.0,0.0,0.0,0.0,0.0,0.0,0.0,0.0,0.0,0.0,0.0,0.0,0.0,0.0,0.0,0.0,0.0,0.0,0.0,0.0,0.0,0.0,0.0,0.0,0.0,0.0,0.0,0.0,0.0,0.0,0.0,0.0,0.0,0.0,0.0,0.0,0.0,0.0,0.0,0.0,0.0,0.0,0.0,0.0,0.0,0.0,0.0,0.0,0.0,0.0,0.0,0.0,0.0,0.0,0.0,0.0,1.9869,2.231,2.4317,2.5802,2.6666,2.702,2.689,2.4828,2.2901,0.0,0.0,0.0,0.0,0.0,0.0,0.0,0.0,0.0,0.0,0.0,0.0,0.0,0.0,0.0,0.0,0.0,0.0,0.0,0.0,0.0,0.0,0.0,0.0,0.0,0.0,0.0,0.0,0.0,0.0,0.0,0.0,0.0,0.0,0.0,0.0,0.0,0.0,0.0,0.0,0.0,1.5222,1.599,1.6654,1.7065,0.0,0.0,1.6576,1.6235,1.5521,0.0,0.0,0.0,0.0,0.0,0.0,0.0,0.0,0.0,0.0,0.0,0.0,0.0,0.0,0.0,0.0,0.0,0.0,0.0,0.0,0.0,0.0,0.0,0.0,0.0,0.0,0.0,0.0,0.0,0.0,0.0,0.0,0.0,0.0,0.0,0.0,0.0,0.0,0.0,0.0,0.0,0.0,0.0,0.0,0.0,0.0,0.0,0.0,0.0,0.0,0.0,0.0,0.0,0.0,0.0,1.7489,2.0347,2.2514,2.4429,2.6154,2.6561,2.6826,2.7012,2.4664,2.2713,0.0,0.0,0.0,0.0,0.0,0.0,0.0,0.0,0.0,0.0,0.0,0.0,0.0,0.0,0.0,0.0,0.0,0.0,0.0,0.0,0.0,0.0,0.0,0.0,0.0,0.0,0.0,0.0,0.0,0.0,0.0,0.0,0.0,0.0,0.0,0.0,0.0,0.0,0.0,0.0,0.0,0.0,1.7521,1.8416,0.0,0.0,0.0,1.857,1.8252,0.0,0.0,0.0,0.0,0.0,0.0,0.0,0.0,0.0,0.0,0.0,0.0,0.0,0.0,0.0,0.0,0.0,0.0,0.0,0.0,0.0,0.0,0.0,0.0,0.0,0.0,0.0,0.0,0.0,0.0,0.0,0.0,0.0,0.0,0.0,0.0,0.0,0.0,0.0,0.0,0.0,0.0,0.0,0.0,0.0,0.0,0.0,0.0,0.0,0.0,0.0,0.0,0.0,0.0,0.0,0.0,0.0,2.0862,2.278,2.464,2.6465,2.6618,2.678,2.7029,2.4608,0.0,0.0,0.0,0.0,0.0,0.0,0.0,0.0,0.0,0.0,0.0,0.0,0.0,0.0,0.0,0.0,0.0,0.0,0.0,0.0,0.0,0.0,0.0,0.0,0.0,0.0,0.0,0.8271,0.0,0.0,0.0,0.0,0.0,0.0,0.0,0.0,0.0,0.0,0.0,0.0,0.0,0.0,1.8634,1.9148,2.0206,2.0784,0.0,0.0,2.0517,2.0209,1.9547,1.8595,0.0,0.0,0.0,0.0,0.0,0.0,0.0,0.0,0.0,0.0,0.0,0.0,0.0,0.0,0.0,0.0,0.0,0.0,0.0,0.0,0.0,0.0,0.0,0.0,0.0,0.0,0.0,0.0,0.0,0.0,0.0,0.0,0.0,0.0,0.0,0.0,0.0,0.0,0.0,0.0,0.0,0.0,0.0,0.0,0.0,0.0,0.0,0.0,0.0,0.0,0.0,0.0,0.0,0.0,1.8579,2.149,2.3385,2.5191,2.6894,2.7207,2.7359,2.7334,2.5022,2.3154,0.0,0.0,0.0,0.0,0.0,0.0,0.0,0.0,0.0,0.0,0.0,0.0,0.0,0.0,0.0,0.0,0.0,0.0,0.0,0.0,0.0,0.0,0.0,0.0,0.0,0.0,0.0,0.0,0.0,0.0,0.0,0.0,0.0,0.0,0.0,0.0,0.0,0.0,0.0,0.0,0.0,2.003,2.0964,2.1843,2.2487,0.0,2.2596,2.2266,2.2037,2.1042,1.9858,1.8583,0.0,0.0,0.0,0.0,0.0,0.0,0.0,0.0,0.0,0.0,0.0,0.0,0.0,0.0,0.0,0.0,0.0,0.0,0.0,0.0,0.0,0.0,0.0,0.0,0.0,0.0,0.0,0.0,0.0,0.0,0.0,0.0,0.0,0.0,0.0,0.0,0.0,0.0,0.0,0.0,0.0,0.0,0.0,0.0,0.0,0.0,0.0,0.0,0.0,0.0,0.0,0.0,0.0,1.9228,2.1815,2.3985,2.5864,2.7416,2.7881,2.8009,2.7905,2.5915,2.4182,0.0,0.0,0.0,0.0,0.0,0.0,0.0,0.0,0.0,0.0,0.0,0.0,0.0,0.0,0.0,0.0,0.0,0.0,0.0,0.0,0.0,0.0,0.0,0.0,0.0,0.0,0.0,0.0,1.1273,1.1722,1.2407,0.0,0.0,0.0,0.0,0.0,0.0,0.0,0.0,0.0,0.0,2.1737,2.2914,2.3557,0.0,0.0,2.3513,2.3199,2.2817,2.2148,2.1275,2.0005,1.9255,0.0,0.0,0.0,0.0,0.0,0.0,0.0,0.0,0.0,0.0,0.0,0.0,0.0,0.0,0.0,0.0,0.0,0.0,0.0,0.0,0.0,0.0,0.0,0.0,0.0,0.0,0.0,0.0,0.0,0.0,0.0,0.0,0.0,0.0,0.0,0.0,0.0,0.0,0.0,0.0,0.0,0.0,0.0,0.0,0.0,0.0,0.0,0.0,0.0,0.0,0.0,0.0,1.9977,2.2446,2.4631,2.65,2.801,2.8579,2.8727,2.8416,2.6951,2.5472,0.0,0.0,0.0,0.0,0.0,0.0,0.0,0.0,0.0,0.0,0.0,0.0,0.0,0.0,0.0,0.0,0.0,0.0,0.0,0.0,0.0,0.0,0.0,0.0,0.0,0.0,0.0,0.0,1.2201,1.2665,1.3355,0.0,0.0,0.0,0.0,0.0,0.0,0.0,0.0,0.0,0.0,2.3744,2.4771,2.52,2.5311,2.5034,2.4768,2.4408,2.3814,2.3361,2.2673,2.1391,0.0,0.0,0.0,0.0,0.0,0.0,0.0,0.0,0.0,0.0,0.0,0.0,0.0,0.0,0.0,0.0,0.0,0.0,0.0,0.0,0.0,0.0,0.0,0.0,0.0,0.0,0.0,1.1827,0.0,0.0,1.131,0.0,0.0,0.0,0.0,0.0,0.0,0.0,0.0,0.0,0.0,0.0,0.0,0.0,0.0,0.0,0.0,0.0,0.0,0.0,0.0,0.0,0.0,2.0905,2.3576,2.5399,2.7047,2.8562,2.9316,2.9467,2.901,2.8134,2.6993,2.5548,0.0,0.0,0.0,0.0,0.0,0.0,0.0,0.0,0.0,0.0,0.0,0.0,0.0,0.0,0.0,0.0,0.0,0.0,0.0,0.0,0.0,0.0,0.0,0.0,0.0,0.0,1.2119,1.292,1.3652,0.0,0.0,0.0,0.0,0.0,0.0,0.0,0.0,0.0,2.2838,2.4673,2.6088,2.6498,2.6742,2.6846,2.6826,2.6563,2.6134,2.5272,2.4744,2.4042,0.0,0.0,0.0,0.0,0.0,0.0,0.0,0.0,0.0,0.0,0.0,0.0,0.0,0.0,0.0,0.0,0.0,0.0,0.0,0.0,0.0,0.0,0.0,0.0,0.0,0.0,0.0,1.4539,1.4138,0.0,0.0,0.0,0.0,0.0,0.0,0.0,0.0,0.0,0.0,0.0,2.088,2.1027,0.0,0.0,0.0,0.0,0.0,0.0,0.0,0.0,0.0,0.0,0.0,0.0,2.2591,2.5016,2.6976,2.8646,3.0077,3.0672,3.0669,3.0087,2.9425,2.8008,2.5654,0.0,0.0,0.0,0.0,0.0,0.0,0.0,0.0,0.0,0.0,0.0,0.0,0.0,0.0,0.0,0.0,0.0,0.0,0.0,0.0,0.0,0.0,0.0,0.0,0.0,1.2854,0.0,0.0,0.0,0.0,0.0,0.0,0.0,0.0,0.0,0.0,2.1778,2.352,2.5892,2.6902,2.768,2.8408,2.8333,2.792,0.0,0.0,0.0,0.0,0.0,0.0,0.0,0.0,0.0,0.0,0.0,0.0,0.0,0.0,2.4068,2.2255,2.1643,2.1432,2.162,0.0,0.0,0.0,0.0,0.0,0.0,0.0,0.0,0.0,0.0,0.0,0.0,0.0,0.0,1.7972,1.7407,1.7341,0.0,0.0,0.0,0.0,0.0,0.0,0.0,0.0,2.1452,2.2612,2.3725,2.4114,2.4229,2.4032,2.3738,2.2163,0.0,0.0,0.0,0.0,0.0,0.0,0.0,0.0,2.4219,2.6322,2.8317,2.9974,3.1263,3.1895,3.1887,3.1257,3.0476,2.897,2.666,2.4774,2.271,0.0,0.0,0.0,0.0,0.0,0.0,0.0,0.0,0.0,0.0,0.0,0.0,0.0,0.0,0.0,0.0,0.0,0.0,0.0,0.0,0.0,0.0,0.0,1.4063,0.0,0.0,0.0,0.0,0.0,0.0,0.0,0.0,0.0,2.3182,2.4376,2.612,2.8387,2.91,2.9615,3.0238,0.0,0.0,0.0,0.0,0.0,0.0,0.0,2.7144,2.679,2.7275,2.7676,2.7634,2.8321,2.8948,2.9284,0.0,0.0,2.5799,2.5021,2.4905,2.5066,2.5026,2.5026,2.5309,2.5815,2.633,0.0,0.0,0.0,0.0,2.0611,0.0,0.0,0.0,2.2221,2.1967,0.0,2.0721,0.0,0.0,0.0,0.0,1.9954,2.0763,0.0,0.0,2.4484,2.548,2.6495,2.7204,2.7336,2.6899,2.6754,2.599,2.4575,2.1509,0.0,0.0,0.0,0.0,0.0,0.0,2.5697,2.7502,2.9437,3.0978,3.2122,3.2845,3.2994,3.2515,3.1298,2.9971,2.8519,2.7128,2.5289,2.3015,2.1144,0.0,0.0,0.0,0.0,0.0,0.0,0.0,0.0,0.0,0.0,0.0,0.0,0.0,0.0,0.0,0.0,0.0,0.0,0.0,0.0,1.4618,0.0,0.0,0.0,0.0,0.0,0.0,0.0,0.0,0.0,2.5562,2.5774,2.7559,2.933,3.0352,0.0,0.0,0.0,0.0,3.1059,3.1014,3.065,3.0158,2.9743,2.9679,2.9525,2.9131,0.0,0.0,3.1136,3.2107,3.2684,3.2777,3.3296,3.2665,2.8969,2.836,2.8377,2.8399,2.8507,2.8661,2.8704,2.8854,2.9233,2.775,0.0,0.0,0.0,0.0,2.4574,2.4838,2.505,2.5229,2.4895,2.4206,2.387,0.0,0.0,0.0,0.0,0.0,0.0,2.4602,2.5441,2.6963,2.7989,2.8575,2.9279,2.9501,2.9315,2.9277,2.8676,2.7586,2.6517,2.4487,2.1643,0.0,0.0,0.0,0.0,2.7855,2.9736,3.1337,3.2592,3.3509,3.3747,3.3584,3.3071,3.1996,3.1035,3.0282,2.8994,2.7504,2.5781,2.3804,0.0,0.0,0.0,0.0,0.0,0.0,0.0,0.0,0.0,0.0,0.0,0.0,0.0,0.0,0.0,0.0,0.0,0.0,0.0,1.6228,1.6897,1.7557,0.0,0.0,0.0,0.0,0.0,0.0,0.0,0.0,0.0,3.095,3.0376,3.0537,0.0,0.0,3.2862,3.2862,3.2573,3.2241,3.1895,3.1588,0.0,3.1718,3.174,3.1831,3.2085,3.2374,3.2991,3.4148,3.4315,3.446,3.5014,3.543,3.5318,3.4484,3.2488,3.1275,3.132,3.0995,3.0807,3.1101,3.1608,3.2144,3.178,2.9479,2.8233,2.7668,2.7652,2.7965,2.821,2.8321,2.846,2.8161,2.7493,2.6946,2.6423,2.5829,2.523,0.0,0.0,0.0,2.7076,2.7754,2.9277,3.0201,3.06,3.1416,3.1628,3.1352,3.1575,3.1206,3.0278,3.0256,2.8808,2.6023,0.0,2.5635,2.6555,2.8231,2.9829,3.1273,3.2556,3.3547,3.4212,3.4432,3.4221,3.3576,3.2954,3.226,3.1564,3.0553,2.9332,2.792,2.5922,2.3659,0.0,0.0,0.0,0.0,0.0,0.0,0.0,0.0,0.0,0.0,0.0,1.1976,1.262,0.0,0.0,0.0,1.5219,1.6927,1.8669,1.9498,0.0,0.0,0.0,0.0,0.0,0.0,0.0,2.9284,3.1226,3.303,3.4269,3.3577,3.3339,3.4408,3.4526,3.4576,3.4674,0.0,3.4187,3.3904,3.3661,3.3583,3.3739,3.3786,3.3977,3.4481,3.5016,3.56,3.64,3.6475,3.6622,3.7041,3.7268,3.7422,3.7602,3.601,3.4606,3.4486,3.4102,3.3863,3.3883,3.4336,3.4695,3.4668,3.4159,3.1958,3.0964,3.0877,3.1206,3.151,3.172,3.1681,3.1476,3.0996,2.9946,2.9,2.8168,2.744,0.0,2.8081,2.8787,2.951,3.0362,3.1477,3.2148,3.2572,3.3513,3.367,3.3191,3.3715,3.3555,3.2765,3.3008,3.2552,3.1406,2.9682,2.8946,2.9262,3.0537,3.1576,3.2323,3.3315,3.4006,3.4506,3.4945,3.4819,3.4073,3.3998,3.3459,3.2477,3.1733,3.0782,2.9507,2.7611,2.5394,2.2914,0.0,0.0,0.0,0.0,0.0,0.0,0.0,0.0,0.0,0.0,0.0,0.0,0.0,0.0,1.5745,1.7747,0.0,2.1093,2.2433,0.0,0.0,0.0,2.7376,2.7897,2.993,3.161,3.2497,0.0,0.0,3.616,3.6722,3.6937,3.6633,3.6535,3.6563,3.6816,3.6565,3.6487,3.6317,3.6285,3.6079,3.5778,3.5821,3.6022,3.648,3.7273,3.7772,3.8101,3.8472,3.8765,3.8819,3.8919,3.8921,3.8921,3.866,3.8415,3.7642,3.7344,3.7122,3.6604,3.6601,3.6572,3.6463,3.6323,3.579,3.4799,3.3646,3.3658,3.3733,3.3755,3.3404,3.3035,3.2595,3.1996,3.1428,3.0937,3.0766,3.0754,3.0902,3.1428,3.1874,3.2357,3.317,3.3859,3.4424,3.4901,3.5165,3.5334,3.548,3.5271,3.4808,3.5073,3.484,3.4229,3.3962,3.2876,3.0997,3.1809,3.2606,3.3315,3.4342,3.4993,3.5283,3.5036,3.4812,3.4637,3.3826,3.326,3.299,3.2016,3.1164,3.0457,2.8655,2.67,2.4661,2.2176,0.0,0.0,0.0,0.0,0.0,0.0,0.0,0.0,0.0,1.4996,1.6454,0.0,1.7684,0.0,2.0396,2.2808,2.5406,2.6106,0.0,0.0,2.971,3.0846,3.1741,3.3331,3.4557,3.5138,3.6429,3.7386,3.761,3.8025,3.8342,3.8214,3.7556,3.7118,3.7168,3.7118,3.7093,3.7117,3.7092,3.7138,3.7451,3.7814,3.8059,3.8188,3.8414,3.8669,3.898,3.9105,3.931,3.9698,3.9776,3.9853,4.0032,4.0033,3.9956,3.9677,3.8793,3.7915,3.7986,3.7707,3.7426,3.7294,3.7146,3.7448,3.7075,3.618,3.5606,3.5119,3.4756,3.4494,3.4152,3.3709,3.3447,3.317,3.291,3.2889,3.2889,3.291,3.3252,3.3714,3.4277,3.4795,3.5465,3.6209,3.6494,3.6802,3.7075,3.6959,3.6769,3.6592,3.6761,3.6596,3.6126,3.6514,3.5854,3.415,3.3862,3.3958,3.4366,3.5017,3.55,3.574,3.5269,3.4896,3.4741,3.3945,3.3422,3.3173,3.2286,3.1588,3.1042,2.9525,2.7898,2.6197,2.4167,2.2166,0.0,0.0,0.0,0.0,0.0,0.0,0.0,0.0,0.0,0.0,0.0,2.13,2.2754,2.4302,2.6286,2.8928,2.9621,3.0523,3.195,3.2993,3.395,3.4746,3.599,3.6924,3.7295,3.8314,3.8989,3.8989,3.9342,3.9569,3.9569,3.9094,3.8592,3.8262,3.8287,3.8389,3.8389,3.8465,3.859,3.8811,3.9111,3.9388,3.9388,3.9465,3.962,3.9801,3.9826,3.9955,4.0364,4.0466,4.0542,4.0769,4.0972,4.1022,4.0944,4.0428,3.9788,3.9283,3.9098,3.8981,3.7827,3.7496,3.8058,3.8325,3.825,3.7187,3.6294,3.5535,3.5382,3.5078,3.4652,3.4575,3.4489,3.4408,3.4447,3.4476,3.4476,3.4804,3.5342,3.6084,3.6345,3.697,3.7803,3.8147,3.8367,3.8512,3.8193,3.8048,3.8087,3.8078,3.7836,3.7455,3.7921,3.7908,3.7392,3.6175,3.5497,3.5308,3.5524,3.5788,3.6051,3.5528,3.5073,3.468,3.4198,3.3668,3.3115,3.2516,3.1968,3.1486,3.0298,2.9043,2.774,2.6263,2.4779,0.0,2.2491,0.0,0.0,0.0,0.0,0.0,0.0,0.0,0.0,2.3656,2.5527,2.7953,2.8649,2.9891,3.2034,3.2996,3.393,3.5035,3.5965,3.6727,3.7318,3.8191,3.8842,3.907,3.9702,4.016,4.0134,4.0364,4.0491,4.0415,4.0364,4.0084,3.9673,3.9647,3.9699,3.9775,3.9981,3.988,3.9802,3.9955,4.0134,4.0211,4.0338,4.0567,4.0618,4.0643,4.0744,4.0971,4.1071,4.1147,4.1372,4.1622,4.1796,4.1796,4.194,4.173,4.0718,4.0554,4.0552,3.9467,3.934,3.9115,3.9,3.8979,3.8762,3.8371,3.7803,3.7045,3.6476,3.6024,3.6011,3.6009,3.5985,3.6267,3.6367,3.6367,3.6721,3.7096,3.7514,3.7761,3.8297,3.8971,3.9323,3.9511,3.9566,3.9101,3.8899,3.8957,3.8531,3.8398,3.8511,3.8615,3.8423,3.7957,0.0,0.0,0.0,3.5884,3.6051,3.631,3.5737,3.5186,3.4703,3.4198,0.0,3.3115,3.2516,3.2164,3.2039,3.0994,0.0,0.0,0.0,0.0,0.0,0.0,0.0,0.0,0.0,0.0,0.0,2.8167,2.8113,2.679,2.8304,3.0029,3.1553,3.2312,3.3463,3.5402,3.5914,3.6675,3.7917,3.8417,3.8994,3.9702,3.9982,4.0134,4.0185,4.0338,4.0415,4.044,4.0491,4.0516,4.0542,4.0517,4.0516,4.0618,4.044,4.0364,4.0338,4.044,4.0415,4.0364,4.044,4.0567,4.0694,4.0795,4.0997,4.1373,4.1473,4.1572,4.1845,4.1895,4.1868,4.1942,4.2166,4.2338,4.234,4.2728,4.2822,4.1932,4.1581,4.1397,4.0439,4.018,4.0143,4.0016,0.0,4.016,4.0094,3.981,3.8324,3.7465,3.7154,3.7123,3.7214,3.7396,3.7577,3.7646,3.7646,3.7946,3.8246,3.8626,3.8901,3.9403,3.9984,4.0159,4.04,4.0715,3.9918,3.9661,3.9805,3.9155,3.8919,3.905,3.918,3.9108,3.8911,3.8637,3.7792,3.64,3.6521,3.6563,3.6381,3.5807,3.5382,3.5082,3.4301,0.0,0.0,0.0,0.0,0.0,0.0,0.0,0.0,0.0,0.0,2.9679,2.9185,2.8875,2.8799,2.9159,2.9801,3.0826,3.2658,3.2901,3.0865,3.2102,3.3463,3.464,3.5195,3.6127,3.7667,3.8114,3.8665,3.9601,3.9829,4.0058,4.0414,4.0517,4.0517,4.0516,4.0745,4.0896,4.0897,4.1147,4.1273,4.1298,4.1298,4.1297,4.1397,4.1147,4.0946,4.1248,4.1298,4.1298,4.1298,4.1298,4.1323,4.1446,4.1471,4.162,4.2018,4.2092,4.2215,4.2606,4.2704,4.2728,4.2822,4.2943,4.3043,4.3067,4.3283,4.3328,4.2892,4.2698,4.2518,4.1429,4.1052,4.1132,4.1122,4.1049,4.1306,4.1409,4.1338,3.9518,0.0,0.0,3.8192,3.8298,3.85,3.8619,3.8649,3.8679,3.893,3.9197,3.9485,3.9785,4.0246,4.0792,4.0826,4.1144,4.1615,4.0693,4.0343,4.052,3.9825,3.9409,3.9413,3.9594,3.9697,3.9672,3.9271,3.8417,3.7244,3.7265,3.7085,3.6532,3.6033,3.5708,3.5508,3.4628,3.4148,3.4048,3.3621,3.3391,3.3391,3.3391,3.3305,3.3155,3.3134,3.2779,3.2053,3.1939,3.188,3.178,3.1855,3.265,3.4419,3.6252,3.6524,3.4615,3.5303,3.6258,3.7243,3.7561,3.8235,3.9372,3.97,4.0054,4.0491,4.0567,4.0593,4.0694,4.0694,4.077,4.0795,4.1173,4.1474,4.1474,4.1796,4.2065,4.209,4.2092,4.2213,4.2239,4.182,4.1572,4.1893,4.1942,4.2067,4.2166,4.2141,4.2215,4.2262,4.2313,4.2411,4.2606,4.2679,4.2849,4.3235,4.3355,4.3375,4.3543,4.359,4.3685,4.3685,4.3757,4.3828,4.3828,4.3851,4.3685,4.3128,4.3018,4.2259,4.1944,4.1898,4.1795,4.1842,4.1892,4.0761,3.9779,3.8955,3.9228,3.9123,3.8782,3.9344,3.9609,3.9609,3.9873,4.0048,4.0077,4.0421,4.0769,4.1115,4.1373,4.1688,4.1976,4.1415,4.1013,4.0792,4.0277,3.9861,3.967,3.9697,3.9697,3.9697,3.9622,3.927,3.8617,3.8116,3.7613,3.711,3.7009,3.6485,3.5533,3.5357,3.5054,3.4603,3.4502,3.4477,3.4477,3.4477,3.4477,3.4432,3.4457,3.436,3.424,3.4085,3.4239,3.4824,3.5133,3.5998,3.7583,3.8513,3.849,3.754,3.7737,3.8237,3.8867,3.9167,3.9596,4.0261,4.0363,4.054,4.0794,4.0871,4.1022,4.1448,4.1498,4.1572,4.1744,4.1918,4.1993,4.2018,4.2065,4.2164,4.2164,4.2411,4.2606,4.2873,4.2484,4.2067,4.2065,4.2065,4.219,4.2435,4.2462,4.2631,4.3067,4.3091,4.3139,4.3352,4.3375,4.3423,4.3566,4.3614,4.3638,4.3658,4.378,4.395,4.4021,4.428,4.456,4.456,4.4671,4.4597,4.4143,4.4074,4.3819,4.3513,4.3157,4.2777,4.2652,4.2724,4.2263,4.1491,4.0577,4.0421,4.0227,4.0002,3.9989,3.9989,4.0048,4.0537,4.074,4.0798,4.123,4.1516,4.1712,4.1802,4.2029,4.2287,4.1796,4.1538,4.1541,4.0741,4.0244,4.0098,3.9848,3.9697,3.9697,3.9697,3.9572,3.9346,3.8768,3.8215,3.7638,3.7638,3.7236,3.6434,3.6157,3.5707,3.5157,3.5132,3.5132,3.5132,3.5755,3.6056,3.6056,3.6332,3.6485,3.6485,3.6413,3.6515,3.6836,3.7461,3.8161,3.9038,3.9624,3.9803,3.9398,3.9472,3.9675,3.993,4.0208,4.0461,4.0719,4.0972,4.1198,4.1323,4.1473,4.162,4.187,4.1919,4.1967,4.209,4.2362,4.2533,4.2533,4.2776,4.2919,4.2943,4.3039,4.3211,4.3423,4.316,4.2919,4.2919,4.2919,4.2967,4.3063,4.3115,4.3235,4.3447,4.3447,4.3543,4.3757,4.3832,4.3879,4.4044,4.4134,4.4228,4.4228,4.4443,4.4583,4.463,4.4746,4.4954,4.4977,4.5046,4.4977,4.5083,4.5041,4.5169,4.487,4.4182,4.3805,4.3569,4.3514,4.3608,4.322,4.2438,4.1743,4.1359,4.1212,4.0839,4.069,4.0711,4.1172,4.1426,4.1455,4.1883,4.2139,4.2195,4.2171,4.234,4.2544,4.2174,4.2038,4.2057,4.1306,4.0752,4.0501,3.9973,3.9697,3.9697,3.9697,3.9697,3.9672,3.9296,3.8818,3.8241,3.8191,3.7939,3.7387,3.6984,3.6533,3.6085,3.606,3.6083,3.6085,3.691,3.7362,3.7411,3.7764,3.8014,3.8089,3.8089,3.8164,3.8389,3.9119,3.9701,3.995,4.0361,4.0643,4.0744,4.077,4.0744,4.0745,4.092,4.1096,4.1248,4.1522,4.1796,4.182,4.1993,4.2141,4.2264,4.2262,4.2338,4.2457,4.2825,4.3067,4.3115,4.3352,4.3563,4.3638,4.3685,4.3709,4.3757,4.378,4.378,4.3757,4.3709,4.359,4.3662,4.3685,4.3709,4.3757,4.3804,4.3922,4.4115,4.4186,4.428,4.4513,4.47,4.4792,4.4862,4.4954,4.5046,4.5018,4.511,4.523,4.5299,4.5321,4.523,4.6248,4.6187,4.5832,4.5228,4.4627,4.4508,4.438,4.4302,4.4532,4.4607,4.4328,4.332,4.2472,4.1979,4.2098,4.2039,4.1907,4.1997,4.2025,4.2025,4.2082,4.2227,4.2453,4.2457,4.265,4.2902,4.2855,4.2582,4.2263,4.2087,4.1507,4.0524,3.9973,3.9722,3.9697,3.9697,3.9697,3.9697,3.9673,3.9346,3.8869,3.8818,3.8542,3.7965,3.7889,3.7839,3.7664,3.7789,3.7764,3.7789,3.7864,3.7939,3.7939,3.799,3.8114,3.836,3.8385,3.8711,3.9468,4.0056,4.049,4.0743,4.0844,4.1097,4.1498,4.1572,4.1473,4.1348,4.1473,4.1721,4.1942,4.2041,4.2117,4.2117,4.2139,4.2289,4.2728,4.2801,4.2994,4.342,4.3447,4.3543,4.3543,4.3614,4.3733,4.3997,4.4021,4.4092,4.428,4.4326,4.4326,4.4256,4.3946,4.378,4.395,4.3974,4.4115,4.428,4.4303,4.442,4.4583,4.4705,4.4797,4.4839,4.5046,4.5092,4.5092,4.5087,4.511,4.5224,4.5367,4.5526,4.573,4.5776,4.5617,4.6764,4.6764,4.676,4.6523,4.6127,4.5697,4.5441,4.5347,4.5147,4.5086,4.5031,4.4567,4.4032,4.3451,4.2934,4.2659,4.2553,4.2404,4.234,4.2369,4.2538,4.2706,4.279,4.2765,4.2877,4.3014,4.3014,4.2889,4.2663,4.2389,4.1783,4.1001,4.0424,4.0174,4.0123,3.9848,3.9697,3.9697,3.9697,3.9649,3.96,3.9448,3.9094,3.8617,3.8542,3.8341,3.8065,3.8163,3.8237,3.8262,3.8713,3.899,3.9015,3.9321,3.9524,3.965,3.9624,3.9852,4.0358,4.0767,4.1098,4.1373,4.1547,4.1695,4.1919,4.1944,4.2018,4.219,4.2092,4.1967,4.2141,4.2387,4.2582,4.2606,4.2798,4.3088,4.3307,4.3304,4.3423,4.3563,4.3733,4.3828,4.3879,4.3997,4.4186,4.4425,4.4472,4.4537,4.4769,4.4815,4.4815,4.4792,4.4602,4.4485,4.449,4.4583,4.4671,4.4741,4.4815,4.4885,4.4931,4.4977,4.5023,4.5087,4.5253,4.5344,4.5344,4.5504,4.5572,4.5572,4.5595,4.5776,4.5866,4.5917,4.5753,4.7355,4.7488,4.772,4.7636,4.7312,4.6785,4.6394,4.6099,4.5761,4.5545,4.5453,4.5544,4.5352,4.4888,4.3934,4.3366,4.3132,4.2935,4.2775,4.2678,4.2902,4.3014,4.3014,4.3014,4.3014,4.3014,4.3014,4.3014,4.2939,4.2462,4.1984,4.153,4.0976,4.0778,4.0807,4.0456,4.023,4.0182,4.0182,4.0209,4.0185,4.0032,3.9727,3.9399,3.9348,3.9146,3.8717,3.8865,3.899,3.899,3.9597,3.9927,3.9927,4.0286,4.0542,4.072,4.077,4.0946,4.1223,4.1423,4.1597,4.1796,4.1967,4.219,4.2289,4.2313,4.2557,4.297,4.2752,4.2531,4.2555,4.2873,4.3091,4.3139,4.3423,4.361,4.3685,4.3709,4.3733,4.3828,4.4092,4.4233,4.4303,4.449,4.4653,4.4792,4.4862,4.4931,4.5069,4.5087,4.5087,4.511,4.5132,4.5115,4.4954,4.4954,4.5087,4.511,4.5064,4.5115,4.5184,4.523,4.5299,4.5435,4.5526,4.5595,4.5595,4.5776,4.5895,4.5917,4.5895,4.5866,4.5917,4.5917,4.5917,4.8158,4.8502,4.8567,4.8248,4.7772,4.7706,4.7115,4.6315,4.6402,4.6253,4.5892,4.609,4.624,4.608,4.5211,4.4498,4.3855,4.3733,4.346,4.3034,4.3011,4.3014,4.3014,4.3014,4.3014,4.3014,4.3014,4.3014,4.2992,4.2514,4.2185,4.2137,4.1634,4.1438,4.1705,4.1656,4.1534,4.1284,4.1285,4.108,4.0594,4.0542,4.0517,4.0517,4.0415,4.0312,4.0312,4.0363,4.0363,4.0389,4.044,4.0491,4.0491,4.0516,4.0796,4.1224,4.1498,4.1746,4.1942,4.2043,4.2092,4.2117,4.2164,4.2338,4.2801,4.2849,4.3067,4.3519,4.3495,4.3471,4.3495,4.3495,4.3543,4.3543,4.359,4.3757,4.3974,4.4021,4.4092,4.4326,4.456,4.4746,4.4949,4.5041,4.5046,4.5092,4.5087,4.5138,4.5184,4.5132,4.5155,4.5201,4.5321,4.539,4.5155,4.5207,4.5207,4.523,4.5321,4.5224,4.5367,4.5504,4.5617,4.5708,4.5776,4.5827,4.5843,4.5866,4.5895,4.5917,4.5917,4.5917,4.5917,4.5917,4.5917,4.8772,4.8633,4.8837,4.8786,4.862,4.8497,4.8219,4.7764,4.7183,4.6815,4.662,4.6416,4.6296,4.6271,4.598,4.5479,4.4869,4.4493,4.4041,4.3567,4.3514,4.3366,4.3014,4.3014,4.3014,4.3014,4.3014,4.3073,4.324,4.3065,4.31,4.3161,4.2678,4.2452,4.2509,4.2229,4.2027,4.1927,4.1901,4.1877,4.1828,4.1854,4.2009,4.2318,4.1131,4.0517,4.0517,4.0669,4.0744,4.077,4.1072,4.1273,4.1273,4.1448,4.1622,4.1796,4.1919,4.2018,4.2141,4.2411,4.2606,4.2631,4.2895,4.3112,4.3304,4.3352,4.3495,4.3784,4.3879,4.3926,4.4044,4.3974,4.3855,4.3879,4.4021,4.4237,4.442,4.4518,4.4612,4.4815,4.4954,4.4995,4.5115,4.511,4.5155,4.5321,4.5367,4.5435,4.5572,4.5595,4.5572,4.5617,4.5663,4.5737,4.564,4.5617,4.5617,4.5617,4.564,4.564,4.573,4.5708,4.5798,4.5798,4.5895,4.5917,4.5895,4.5895,4.5917,4.5911,4.5911,4.5933,4.5917,4.6007,4.5985,4.9257,4.8992,4.917,4.9267,4.9274,4.9092,4.8969,4.8743,4.7983,4.7425,4.7099,4.6728,4.6471,4.6326,4.6296,4.6125,4.5698,4.5146,4.4593,4.4066,4.389,4.3589,4.3291,4.309,4.3042,4.3154,4.3237,4.3404,4.3545,4.3545,4.3681,4.3821,4.3489,4.3337,4.3316,4.3142,4.2964,4.2915,4.2943,4.3049,4.3023,4.3023,4.3205,4.3358,4.2291,4.1593,4.1619,4.1771,4.1847,4.1923,4.2227,4.2401,4.2426,4.2577,4.2751,4.2925,4.295,4.2997,4.317,4.3378,4.3464,4.3436,4.3509,4.361,4.3709,4.3733,4.3926,4.419,4.448,4.4659,4.4903,4.4997,4.4883,4.4668,4.48,4.5124,4.5481,4.5533,4.5541,4.5504,4.5344,4.5304,4.5344,4.5367,4.5458,4.5617,4.5646,4.5708,4.5872,4.5917,4.5917,4.5917,4.5843,4.5895,4.5821,4.5805,4.5805,4.5827,4.5805,4.5872,4.5917,4.5917,4.5917,4.5917,4.5917,4.5917,4.5917,4.5917,4.5933,4.5978,4.6023,4.6068,4.609,4.6164,4.6187,4.9608,4.9525,4.959,4.9558,4.9558,4.954,4.9264,4.8894,4.8768,4.8109,4.7375,4.7124,4.6772,4.6426,4.6381,4.6306,4.618,4.5787,4.5229,4.4618,4.4195,4.3944,4.3847,4.34,4.3263,4.3406,4.3708,4.3872,4.3899,4.3899,4.3927,4.3955,4.4011,4.4073,4.4314,4.443,4.449,4.4335,4.4441,4.4385,4.3983,4.3959,4.4037,4.4035,4.3929,4.3903,4.3902,4.3797,4.3614,4.3693,4.3769,4.3875,4.3845,4.3896,4.4102,4.4476,4.4606,4.4884,4.5228,4.4833,4.4553,4.4522,4.4076,4.3998,4.4272,4.4263,4.4452,4.4941,4.5397,4.5803,4.6078,4.6491,4.651,4.5893,4.5898,4.6291,4.6762,4.7038,4.6938,4.6494,4.5993,4.5652,4.5805,4.5827,4.5827,4.585,4.5843,4.5843,4.5895,4.5917,4.5917,4.5917,4.5917,4.5917,4.5917,4.5917,4.5917,4.5895,4.5895,4.5917,4.5917,4.5917,4.5917,4.5917,4.5978,4.5978,4.6001,4.6023,4.6135,4.618,4.6202,4.6269,4.6314,4.641,4.6476,4.9941,4.9615,4.959,4.959,4.959,4.959,4.949,4.9314,4.8962,4.8592,4.8159,4.7425,4.6998,4.6833,4.6713,4.6656,4.6661,4.6612,4.6167,4.5334,4.5199,4.5012,4.4662,4.4328,4.401,4.3787,4.3844,4.401,4.4148,4.4176,4.4367,4.4694,4.4801,4.4937,4.5153,4.5261,4.5262,4.5209,4.5262,4.5209,4.5102,4.5259,4.5443,4.5625,4.5861,4.6042,4.617,4.4742,4.3928,4.3981,4.4259,4.4614,4.4916,4.4989,4.5064,4.5241,4.5266,4.5288,4.5462,4.5524,4.5511,4.548,4.5435,4.5593,4.5833,4.5801,4.5944,4.6305,4.6552,4.6714,4.6843,4.7071,4.7133,4.6695,4.6738,4.6943,4.7338,4.751,4.7507,4.7375,4.6824,4.65,4.6401,4.6243,4.5924,4.5917,4.5917,4.5917,4.5917,4.5917,4.5917,4.5917,4.5917,4.5917,4.5917,4.5917,4.5917,4.5917,4.5917,4.5917,4.5917,4.5933,4.5933,4.6007,4.6068,4.6113,4.6135,4.6202,4.6314,4.6403,4.6469,4.6513,4.6587,4.6675,4.6756,5.0218,4.9891,4.969,4.959,4.959,4.959,4.959,4.954,4.9238,4.9058,4.8825,4.8245,4.7752,4.7496,4.7328,4.7163,4.6989,4.7116,4.6819,4.6218,4.6053,4.5915,4.5511,4.5081,4.4761,4.4428,4.4361,4.4449,4.4612,4.4748,4.4991,4.5287,4.5341,4.5421,4.5609,4.5822,4.5901,4.5901,4.6139,4.6245,4.6244,4.6403,4.6586,4.6716,4.6925,4.7134,4.7181,4.5903,4.5163,4.5214,4.5522,4.5852,4.6128,4.618,4.6203,4.6331,4.6331,4.6381,4.6453,4.656,4.6543,4.6539,4.6591,4.6639,4.6808,4.6832,4.6952,4.7167,4.7444,4.7635,4.7731,4.8081,4.8192,4.8072,4.7846,4.7865,4.8148,4.8151,4.8135,4.799,4.7555,4.7149,4.6772,4.654,4.6127,4.5982,4.5917,4.5917,4.5917,4.5917,4.5917,4.5917,4.5917,4.5917,4.5917,4.5917,4.5917,4.5917,4.5917,4.5917,4.5917,4.6023,4.6068,4.6254,4.6365,4.6336,4.638,4.6425,4.6513,4.6631,4.6778,4.6844,4.6953,4.704,4.7149,5.0411,5.031,4.9816,4.9622,4.9654,4.968,4.9687,4.9687,4.9661,4.9576,4.9419,4.9222,4.8869,4.8323,4.8128,4.7803,4.7423,4.7383,4.7446,4.7232,4.6949,4.664,4.6412,4.5924,4.5623,4.5418,4.5305,4.5259,4.5312,4.5421,4.5609,4.5689,4.5689,4.5715,4.5928,4.6218,4.6454,4.6534,4.6951,4.7159,4.7212,4.7262,4.7262,4.7288,4.7339,4.7391,4.7363,4.7201,4.7203,4.7286,4.7096,4.7148,4.731,4.7339,4.7434,4.7608,4.7722,4.7816,4.7962,4.7765,4.7631,4.7599,4.7425,4.721,4.741,4.7467,4.7535,4.7774,4.8173,4.8533,4.8765,4.9151,4.947,4.9577,4.8987,4.8982,4.9494,4.9088,4.8827,4.8682,4.8217,4.7637,4.712,4.6946,4.6482,4.6156,4.6005,4.5917,4.5917,4.5917,4.5917,4.5917,4.5917,4.5933,4.5956,4.6001,4.6023,4.6135,4.6113,4.6068,4.6023,4.6158,4.6247,4.6454,4.6631,4.6624,4.6668,4.6778,4.6909,4.7106,4.7214,4.7258,4.7344,4.7452,4.7538,5.0795,5.0336,4.9816,4.9719,4.9944,4.9944,5.0104,5.0327,5.0302,5.0257,5.018,4.9828,4.9583,4.9317,4.8739,4.848,4.8455,4.8352,4.846,4.8553,4.8503,4.799,4.7617,4.7502,4.7192,4.6769,4.6377,4.6167,4.6114,4.5902,4.5875,4.6191,4.6218,4.6402,4.6821,4.6951,4.7055,4.7055,4.7184,4.7313,4.7367,4.7521,4.7571,4.7624,4.7775,4.788,4.7931,4.808,4.7979,4.7622,4.7571,4.7726,4.7905,4.8055,4.8182,4.8283,4.8459,4.8585,4.8603,4.8589,4.8553,4.8553,4.8395,4.8522,4.8718,4.8718,4.8836,4.9059,4.9306,4.9335,4.9436,4.9577,4.9693,4.9693,4.949,4.9461,4.9606,4.9577,4.9436,4.9349,4.8827,4.8397,4.8019,4.7439,4.683,4.654,4.6214,4.594,4.594,4.5911,4.5933,4.594,4.594,4.6001,4.6068,4.6113,4.6202,4.6403,4.6403,4.6358,4.6336,4.638,4.6469,4.6587,4.6887,4.6997,4.7127,4.7258,4.7409,4.7529,4.7666,4.773,4.7794,4.788,4.7901,5.1763,5.1147,5.0623,5.0364,5.0321,5.0327,5.0423,5.0556,5.0588,5.0683,5.0733,5.0658,5.0504,5.0374,5.011,4.9688,4.942,4.9308,4.9218,4.9096,4.9328,4.9,4.8478,4.8377,4.8116,4.7823,4.7429,4.727,4.719,4.6866,4.6915,4.7071,4.6904,4.6977,4.721,4.7444,4.7468,4.7468,4.7545,4.7622,4.7647,4.7903,4.803,4.8106,4.8283,4.8434,4.8459,4.8585,4.8484,4.8156,4.8156,4.8283,4.8409,4.8585,4.8685,4.8685,4.8806,4.8881,4.8934,4.9009,4.9083,4.9108,4.9157,4.9305,4.9424,4.9477,4.9575,4.9615,4.9722,4.9722,4.9722,4.9722,4.9722,4.9693,4.9722,4.9722,4.9722,4.9693,4.9693,4.9606,4.9378,4.9001,4.8774,4.799,4.741,4.6917,4.6511,4.626,4.6088,4.603,4.6046,4.612,4.6164,4.6247,4.6314,4.6358,4.6425,4.6602,4.6866,4.6778,4.6734,4.6734,4.6866,4.7019,4.7236,4.7409,4.7559,4.7709,4.7794,4.7943,4.8091,4.8239,4.8301,4.8322,4.8343,5.2902,5.2356,5.1774,5.121,5.0806,5.0735,5.0778,5.0778,5.0905,5.1063,5.1314,5.1596,5.1557,5.1477,5.1383,5.1176,5.0332,5.0177,4.9781,4.9689,4.9812,4.9759,4.9365,4.9044,4.8884,4.8724,4.8571,4.8491,4.8409,4.832,4.8283,4.8173,4.7785,4.7642,4.7936,4.8033,4.7973,4.8185,4.8333,4.8435,4.8376,4.8468,4.8456,4.8534,4.8656,4.8781,4.8806,4.8881,4.8806,4.861,4.8781,4.8834,4.8884,4.8909,4.8934,4.8959,4.9005,4.9058,4.9033,4.9256,4.933,4.9379,4.9522,4.9693,4.9698,4.9673,4.9698,4.9693,4.9722,4.9722,4.9722,4.9722,4.9722,4.9722,4.9722,4.9722,4.9722,4.9722,4.9722,4.9722,4.9693,4.9403,4.903,4.8653,4.8299,4.7398,4.6962,4.6683,4.6429,4.6276,4.6336,4.6454,4.6521,4.6587,4.6602,4.6624,4.6712,4.6844,4.7214,4.7301,4.7236,4.7258,4.7409,4.7559,4.7688,4.7837,4.8028,4.8133,4.8239,4.8406,4.8563,4.8738,4.8841,4.8821,4.8841,5.3141,5.2928,5.1928,5.1602,5.1652,5.1491,5.1534,5.1778,5.2032,5.2094,5.228,5.2342,5.2355,5.2314,5.2093,5.1874,5.1863,5.1165,5.0608,5.0571,5.0628,5.0656,5.046,5.0296,5.0324,5.016,4.9804,4.9638,4.9555,4.9222,4.8996,4.9181,4.9067,4.9146,4.9352,4.9476,4.9827,4.9794,4.9632,4.9478,4.9339,4.9073,4.8949,4.8974,4.8966,4.8934,4.8959,4.9108,4.9182,4.9108,4.898,4.8955,4.9009,4.9132,4.9207,4.9256,4.9399,4.9526,4.9522,4.9551,4.9595,4.9624,4.9649,4.9722,4.9722,4.9722,4.9722,4.9722,4.9722,4.9722,4.9722,4.9722,4.9746,4.9746,4.9746,4.9746,4.9746,4.9722,4.9722,4.9746,4.9717,4.9635,4.949,4.9212,4.8681,4.7946,4.7505,4.7159,4.6851,4.6579,4.6624,4.6756,4.68,4.6887,4.7019,4.7062,4.7127,4.7258,4.7581,4.7816,4.7752,4.7816,4.7986,4.8049,4.807,4.826,4.8489,4.8676,4.88,4.8944,4.9056,4.925,4.9351,4.9331,4.9372,5.4247,5.4099,5.3211,5.281,5.2628,5.2265,5.2156,5.2368,5.2496,5.2615,5.2707,5.2895,5.3048,5.3078,5.3085,5.3201,5.2836,5.1938,5.1341,5.1265,5.1211,5.1128,5.1183,5.1211,5.1238,5.0934,5.0768,5.0684,5.0545,5.0264,5.0116,5.0301,5.0076,5.0033,5.0353,5.0538,5.0531,5.0528,5.0429,5.0306,5.022,5.0147,5.0072,5.0062,4.9914,4.9737,4.9791,4.9544,4.9506,4.9453,4.9355,4.9277,4.9277,4.9428,4.9477,4.9526,4.9624,4.9722,4.9722,4.9722,4.9722,4.9722,4.9722,4.9722,4.9722,4.9722,4.9722,4.9722,4.9722,4.9722,4.9722,4.9722,4.9746,4.9892,4.9863,4.9941,5.0014,4.9868,4.9795,4.9839,4.9917,4.999,4.9911,4.9714,4.9433,4.8811,4.8194,4.7825,4.7362,4.7111,4.7012,4.7062,4.7106,4.7214,4.7409,4.7516,4.7581,4.7773,4.8028,4.8197,4.8239,4.8385,4.8573,4.8552,4.8531,4.8759,4.8954,4.9169,4.9351,4.9493,4.9582,4.9721,4.984,4.9951,4.9991,5.5577,5.5365,5.4805,5.4187,5.3632,5.3108,5.2849,5.2773,5.2865,5.3075,5.2987,5.3531,5.3743,5.3863,5.4224,5.4221,5.3618,5.2957,5.2376,5.1933,5.1877,5.1709,5.1679,5.1732,5.1759,5.1238,5.1403,5.1485,5.1427,5.1337,5.1269,5.1398,5.1027,5.1021,5.1085,5.1158,5.1301,5.133,5.1233,5.1141,5.1084,5.1152,5.1186,5.1226,5.1016,5.0726,5.0639,5.037,5.0017,4.9867,4.9867,4.9809,4.9722,4.9722,4.9722,4.9693,4.9693,4.9722,4.9722,4.9722,4.9722,4.9722,4.9722,4.9722,4.9722,4.9722,4.9722,4.9717,4.9742,4.9815,4.9844,4.9917,4.999,5.011,5.0159,5.0284,5.0357,5.0086,5.0038,5.011,5.0159,5.0207,5.0351,5.0324,5.0023,4.9657,4.9031,4.8479,4.8008,4.7568,4.7407,4.743,4.7495,4.7602,4.7794,4.7986,4.804,4.826,4.851,4.8635,4.8759,4.8985,4.9128,4.8954,4.8975,4.9219,4.9441,4.9673,4.9852,4.9959,5.0089,5.0168,5.0344,5.057,5.055,5.5986,5.5918,5.5391,5.4805,5.4313,5.4167,5.3873,5.3585,5.3981,5.4251,5.4221,5.4371,5.4401,5.446,5.449,5.4396,5.4161,5.3918,5.35,5.2855,5.274,5.2596,5.2255,5.2304,5.2411,5.2356,5.2222,5.2087,5.2141,5.2271,5.2234,5.2372,5.2284,5.2278,5.2301,5.255,5.2538,5.2421,5.2289,5.222,5.213,5.1866,5.1715,5.1788,5.1585,5.1497,5.1439,5.1323,5.1062,5.0593,5.0535,5.0245,4.9983,4.9838,4.9809,4.9722,4.9722,4.9722,4.9722,4.9722,4.9722,4.9722,4.9746,4.9746,4.9746,4.9746,4.982,4.9844,4.9965,5.011,5.0327,5.0279,5.0357,5.0429,5.0453,5.0477,5.0501,5.0453,5.0381,5.0477,5.0477,5.0477,5.0644,5.0704,5.0508,5.0097,4.9482,4.9052,4.8655,4.8104,4.7693,4.7752,4.7901,4.8028,4.8145,4.8375,4.8521,4.8759,4.8965,4.9108,4.9291,4.9573,4.9653,4.9501,4.9521,4.9753,4.9971,5.0148,5.0285,5.0383,5.046,5.057,5.0685,5.0781,5.0705,5.6882,5.7124,5.6586,5.5988,5.5449,5.5101,5.4652,5.4216,5.4458,5.4607,5.4639,5.4728,5.4817,5.4847,5.4995,5.5007,5.5103,5.4997,5.4715,5.4175,5.3662,5.329,5.2864,5.2825,5.2709,5.268,5.2625,5.2573,5.2492,5.26,5.2787,5.2894,5.2894,5.2974,5.3107,5.3182,5.3292,5.3229,5.3132,5.3036,5.3062,5.2688,5.2575,5.2514,5.2252,5.2162,5.2049,5.173,5.1497,5.1236,5.1203,5.0975,5.0772,5.0569,5.039,4.9921,4.9776,4.9722,4.9722,4.9722,4.9722,4.9717,4.979,4.9917,4.9965,5.0038,5.0086,5.0135,5.0183,5.0357,5.0477,5.0525,5.0572,5.0638,5.0662,5.0733,5.0805,5.0852,5.0828,5.0781,5.0733,5.0757,5.0876,5.0958,5.0933,5.0541,4.9959,4.9598,4.9255,4.8585,4.7943,4.8239,4.8406,4.8614,4.8687,4.8831,4.9036,4.927,4.9432,4.9573,4.9733,4.9991,5.0109,5.0109,5.0187,5.0246,5.0324,5.0512,5.0647,5.0781,5.0858,5.0883,5.0934,5.0934,5.0883,5.772,5.817,5.7673,5.7066,5.6375,5.5972,5.5363,5.478,5.4758,5.4817,5.4817,5.5083,5.5232,5.5291,5.5525,5.5817,5.6078,5.5766,5.5566,5.5195,5.4593,5.4048,5.3589,5.3328,5.3093,5.2974,5.3054,5.3027,5.2841,5.2894,5.3001,5.3133,5.316,5.3266,5.3422,5.3422,5.35,5.35,5.35,5.35,5.35,5.35,5.35,5.35,5.3033,5.2772,5.2717,5.2397,5.2049,5.1904,5.1788,5.1755,5.1664,5.1661,5.122,5.0422,5.0222,5.0086,4.9999,5.015,5.017,4.9994,5.0086,5.0159,5.0207,5.0303,5.0447,5.0548,5.0543,5.0591,5.0662,5.0638,5.0733,5.0822,5.0893,5.0941,5.1088,5.1135,5.1112,5.1065,5.0964,5.0988,5.1088,5.1223,5.1226,5.0929,5.0374,5.0084,4.9683,4.8764,4.8301,4.8666,4.8934,4.9189,4.928,4.932,4.9521,4.9773,4.9912,5.003,5.0187,5.0344,5.0441,5.0518,5.0634,5.0692,5.0781,5.082,5.0953,5.1067,5.1181,5.1256,5.1312,5.1298,5.1298,5.8135,5.8198,5.8115,5.7452,5.6547,5.6629,5.6055,5.508,5.5261,5.5379,5.5408,5.57,5.5845,5.5903,5.6135,5.6308,5.6337,5.6337,5.6108,5.5735,5.5474,5.4924,5.4201,5.4244,5.3724,5.3379,5.3398,5.3292,5.3133,5.3266,5.3369,5.3424,5.3424,5.3477,5.3474,5.35,5.35,5.35,5.35,5.35,5.35,5.35,5.35,5.3445,5.3413,5.3326,5.3297,5.3065,5.2946,5.2536,5.2507,5.2319,5.2033,5.1938,5.2059,5.1987,5.182,5.147,5.1027,5.1057,5.0979,5.0656,5.0546,5.0482,5.0525,5.0519,5.0638,5.0751,5.0775,5.0846,5.0994,5.1088,5.1135,5.1112,5.1082,5.1105,5.1206,5.1206,5.1206,5.1253,5.1129,5.1152,5.1229,5.1416,5.1519,5.1159,5.0812,5.051,5.0113,4.9249,4.8738,4.9097,4.9452,4.9693,4.9812,4.9821,4.9951,5.0207,5.0324,5.0421,5.055,5.0647,5.0801,5.0896,5.1029,5.1086,5.1086,5.1143,5.1256,5.135,5.1424,5.1573,5.1721,5.1721,5.1633,5.8924,5.8795,5.8767,5.8069,5.707,5.7288,5.6708,5.5782,5.5903,5.6019,5.6048,5.6164,5.6221,5.6308,5.6537,5.6652,5.6709,5.6822,5.6792,5.6446,5.6241,5.569,5.4963,5.4552,5.4142,5.3648,5.3474,5.3451,5.3398,5.3424,5.35,5.35,5.35,5.3474,5.35,5.35,5.35,5.35,5.35,5.35,5.35,5.35,5.35,5.35,5.35,5.35,5.3527,5.3658,5.3623,5.338,5.3458,5.3495,5.3363,5.3326,5.3377,5.3453,5.3584,5.3036,5.2057,5.2009,5.1793,5.1606,5.1354,5.1148,5.0977,5.0876,5.0899,5.1011,5.1035,5.1112,5.1182,5.1206,5.1206,5.1206,5.1206,5.1206,5.1206,5.1206,5.1229,5.1276,5.1346,5.1393,5.1433,5.1595,5.1796,5.1729,5.1216,5.0677,5.0387,4.9936,4.9601,4.9541,4.9892,5.0168,5.0246,5.0305,5.0285,5.0512,5.0647,5.0724,5.0801,5.0896,5.1067,5.1199,5.1293,5.1331,5.135,5.1387,5.1443,5.1555,5.1666,5.1776,5.1886,5.1831,5.1743,5.9671,5.9426,5.9282,5.8607,5.765,5.7661,5.7099,5.6191,5.6279,5.6394,5.6423,5.648,5.6537,5.6652,5.6851,5.6993,5.7022,5.7219,5.7275,5.7129,5.681,5.6144,5.5447,5.4867,5.4316,5.35,5.35,5.3474,5.3474,5.35,5.35,5.35,5.35,5.35,5.35,5.35,5.35,5.35,5.35,5.35,5.35,5.35,5.35,5.3527,5.3553,5.3605,5.3632,5.3867,5.3993,5.4016,5.409,5.416,5.4233,5.4229,5.4336,5.4408,5.4565,5.4268,5.3425,5.3074,5.2817,5.2511,5.2145,5.1709,5.1523,5.1355,5.1206,5.1182,5.1182,5.1206,5.1206,5.1206,5.1206,5.1206,5.1206,5.1206,5.1229,5.1229,5.1299,5.1386,5.1503,5.1665,5.1734,5.1849,5.1995,5.2168,5.1678,5.0891,5.0507,5.0259,5.0239,5.005,5.0187,5.0492,5.0589,5.0666,5.0685,5.0781,5.0915,5.1029,5.1105,5.1237,5.1406,5.1517,5.1555,5.1647,5.1684,5.1647,5.1629,5.1758,5.1886,5.1922,5.1977,5.1941,5.1959,6.0163,6.0075,5.9474,5.8817,5.8161,5.7621,5.7022,5.6394,5.6394,5.6451,5.6509,5.6709,5.6964,5.7134,5.7191,5.7219,5.7247,5.7275,5.7303,5.7303,5.7158,5.6374,5.5678,5.5097,5.4633,5.3675,5.35,5.35,5.35,5.35,5.35,5.35,5.35,5.35,5.35,5.35,5.35,5.35,5.35,5.35,5.3527,5.3527,5.3527,5.3605,5.3762,5.3893,5.3864,5.4123,5.4307,5.4307,5.4381,5.4513,5.4722,5.4747,5.4824,5.4976,5.5053,5.4873,5.455,5.4137,5.3734,5.3185,5.2617,5.2175,5.1977,5.1468,5.1289,5.1206,5.1206,5.1206,5.1206,5.1206,5.1206,5.1206,5.1206,5.1206,5.1229,5.1276,5.1369,5.1503,5.1688,5.1895,5.2177,5.2314,5.2382,5.2553,5.1868,5.1089,5.0594,5.037,5.0503,5.0512,5.0531,5.0685,5.0839,5.0915,5.0991,5.1105,5.1237,5.135,5.1424,5.1592,5.1666,5.1739,5.1794,5.1904,5.1995,5.1941,5.1941,5.2013,5.2086,5.2122,5.2176,5.2194,5.223,6.0621,6.0716,5.9676,5.8892,5.828,5.7856,5.7283,5.6795,5.6879,5.6964,5.6936,5.7078,5.7191,5.7275,5.7303,5.7303,5.7303,5.7303,5.7303,5.7158,5.6868,5.6229,5.5562,5.4952,5.4345,5.3675,5.35,5.35,5.35,5.35,5.35,5.35,5.35,5.35,5.35,5.35,5.35,5.35,5.3527,5.3553,5.3736,5.3762,5.3841,5.4023,5.4045,5.4149,5.4175,5.4436,5.4568,5.4645,5.4773,5.4875,5.4976,5.5002,5.5078,5.5179,5.5179,5.5234,5.5204,5.491,5.4521,5.3862,5.3204,5.266,5.2276,5.1618,5.1265,5.1206,5.1206,5.1206,5.1206,5.1206,5.1206,5.1206,5.1206,5.1206,5.1253,5.1323,5.1463,5.1618,5.1918,5.2215,5.2495,5.2743,5.2833,5.2874,5.2098,5.1349,5.0815,5.055,5.0724,5.0858,5.0877,5.0953,5.1105,5.1199,5.1293,5.1406,5.1555,5.1629,5.1684,5.1702,5.1776,5.1886,5.1995,5.2086,5.214,5.2194,5.2212,5.2212,5.2248,5.2317,5.2356,5.2391,5.2391,6.0867,6.0787,5.9742,5.9015,5.8547,5.7917,5.7426,5.7079,5.7191,5.7303,5.7303,5.7303,5.7303,5.7303,5.7303,5.7303,5.7303,5.7303,5.7303,5.71,5.6723,5.6055,5.5416,5.4807,5.42,5.3646,5.35,5.35,5.35,5.35,5.35,5.35,5.35,5.35,5.35,5.35,5.3556,5.3605,5.3632,5.3762,5.3997,5.4019,5.4045,5.4278,5.4355,5.4462,5.4539,5.4722,5.4905,5.4951,5.5027,5.5154,5.5179,5.5234,5.5234,5.5234,5.5234,5.5234,5.5234,5.5149,5.4999,5.4491,5.3563,5.2995,5.2456,5.1744,5.1236,5.1206,5.1206,5.1206,5.1206,5.1206,5.1206,5.1206,5.1206,5.1229,5.1299,5.1339,5.1556,5.1764,5.2132,5.2518,5.29,5.3104,5.2931,5.2948,5.2597,5.1752,5.0939,5.0801,5.0991,5.1105,5.1199,5.1293,5.1387,5.148,5.1555,5.161,5.1739,5.1831,5.1886,5.1904,5.1977,5.2122,5.2212,5.2266,5.2284,5.2302,5.2338,5.2373,5.2391,5.2373,5.2373,5.2391,5.2391,6.0816,6.0177,5.9568,5.9277,5.8987,5.7855,5.7304,5.7247,5.7275,5.7303,5.7303,5.7303,5.7303,5.7303,5.7303,5.7303,5.7303,5.7303,5.7303,5.7158,5.6549,5.5968,5.5387,5.4693,5.4023,5.3646,5.35,5.35,5.35,5.3553,5.3527,5.3553,5.3605,5.3579,5.3527,5.35,5.3658,5.3838,5.3893,5.4075,5.4256,5.4304,5.4329,5.4487,5.4641,5.4773,5.4824,5.4951,5.5108,5.5158,5.5158,5.5234,5.5234,5.5234,5.5234,5.5234,5.5234,5.5234,5.5234,5.5234,5.5119,5.488,5.3917,5.3169,5.2845,5.2097,5.1206,5.1206,5.1206,5.1206,5.1206,5.1206,5.1206,5.1206,5.1206,5.1276,5.1339,5.1533,5.1741,5.1994,5.2405,5.281,5.3233,5.3449,5.3102,5.2963,5.2873,5.2214,5.1269,5.1048,5.1237,5.1368,5.1462,5.1485,5.1577,5.1739,5.1813,5.1849,5.1922,5.2032,5.2122,5.2158,5.2248,5.2356,5.2356,5.2338,5.2356,5.2391,5.2391,5.2391,5.2391,5.2391,5.2391,5.2391,5.2391,6.0816,6.0148,5.9539,5.9045,5.8552,5.771,5.7303,5.7303,5.7303,5.7303,5.7303,5.7303,5.7303,5.7303,5.7303,5.7303,5.7303,5.7303,5.7303,5.7158,5.6287,5.5765,5.5128,5.4403,5.3791,5.3588,5.35,5.3527,5.35,5.3658,5.3762,5.3789,5.3919,5.3945,5.3893,5.3919,5.4097,5.4149,5.42,5.4333,5.4594,5.4645,5.4722,5.482,5.4976,5.5057,5.5032,5.5154,5.5179,5.5234,5.5234,5.5234,5.5234,5.5234,5.5234,5.5234,5.5234,5.5234,5.5234,5.5234,5.5234,5.476,5.4037,5.3228,5.3079,5.1947,5.1409,5.1206,5.1206,5.1206,5.1206,5.1206,5.1206,5.1206,5.1253,5.1339,5.1456,5.1718,5.2002,5.2269,5.2631,5.321,5.3671,5.3934,5.3671,5.3134,5.2973,5.2392,5.151,5.1377,5.1443,5.1592,5.1702,5.1707,5.178,5.1941,5.1995,5.2032,5.2122,5.2266,5.2338,5.2356,5.2356,5.2373,5.2391,5.2391,5.2391,5.2391,5.2391,5.2391,5.2391,5.2391,5.2391,5.2391,5.2391,6.0467,5.9829,5.9219,5.8581,5.7942,5.7477,5.7303,5.7303,5.7303,5.7303,5.7303,5.7303,5.7303,5.7303,5.7303,5.7303,5.7303,5.7303,5.7071,5.6897,5.5939,5.5387,5.4778,5.4137,5.3725,5.3579,5.3658,5.3684,5.3841,5.3942,5.4019,5.4126,5.4333,5.4333,5.4282,5.4307,5.4359,5.441,5.4513,5.4645,5.4849,5.4981,5.5002,5.5103,5.5209,5.5209,5.5209,5.5234,5.5234,5.5234,5.5234,5.5234,5.5234,5.5234,5.5234,5.5234,5.5234,5.5234,5.5234,5.485,5.479,5.47,5.3743,5.3169,5.2779,5.1798,5.1409,5.1206,5.1206,5.1206,5.1206,5.1206,5.1206,5.1206,5.1276,5.1339,5.1572,5.1834,5.2162,5.245,5.2913,5.354,5.4071,5.4284,5.4319,5.3701,5.3095,5.2423,5.1787,5.1666,5.1647,5.1813,5.1922,5.1959,5.2032,5.214,5.2194,5.2227,5.2284,5.2391,5.2391,5.2373,5.2391,5.2391,5.2391,5.2391,5.2391,5.2391,5.2391,5.2391,5.2391,5.2391,5.2391,5.2391,5.2391,5.9858,5.9248,5.8581,5.7942,5.739,5.7332,5.7303,5.7303,5.7303,5.7303,5.7303,5.7303,5.7303,5.7303,5.7303,5.7303,5.7303,5.7303,5.6955,5.646,5.579,5.5238,5.4626,5.3984,5.3821,5.3867,5.3945,5.3993,5.4252,5.4333,5.4333,5.4436,5.4671,5.4722,5.4671,5.459,5.4615,5.4747,5.4798,5.49,5.5082,5.5158,5.5184,5.5234,5.5234,5.5234,5.5234,5.5234,5.5234,5.5234,5.5234,5.5234,5.5234,5.5234,5.5234,5.5204,5.5204,5.5059,5.494,5.4521,5.4072,5.3922,5.3443,5.2845,5.2306,5.1708,5.1325,5.1206,5.1206,5.1206,5.1206,5.1206,5.1206,5.1229,5.1253,5.1439,5.1649,5.1926,5.2246,5.2676,5.3157,5.3726,5.4306,5.4589,5.4546,5.3813,5.3182,5.266,5.21,5.1745,5.1794,5.2032,5.2122,5.2176,5.2248,5.2302,5.2302,5.2284,5.232,5.2391,5.2391,5.2391,5.2391,5.2391,5.2391,5.2391,5.2391,5.2391,5.2391,5.2391,5.2391,5.2391,5.2391,5.2391,5.2391,5.9829,5.9248,5.8581,5.7913,5.7361,5.7303,5.7303,5.7303,5.7303,5.7303,5.7303,5.7303,5.7303,5.7303,5.7303,5.7303,5.7303,5.7245,5.6897,5.6401,5.5923,5.5338,5.4805,5.4267,5.4159,5.4149,5.42,5.4252,5.4355,5.4513,5.4798,5.4951,5.4976,5.5057,5.5027,5.4976,5.5002,5.5027,5.5027,5.5103,5.5154,5.5204,5.5234,5.5234,5.5234,5.5234,5.5234,5.5234,5.5234,5.5234,5.5234,5.5234,5.5234,5.5234,5.5204,5.5119,5.482,5.4461,5.4371,5.3862,5.3354,5.2995,5.2606,5.2516,5.2067,5.1648,5.1206,5.1206,5.1206,5.1206,5.1206,5.1206,5.1253,5.1299,5.1369,5.1579,5.181,5.2109,5.2473,5.3055,5.3531,5.4028,5.4613,5.4713,5.4583,5.3875,5.3265,5.2772,5.238,5.1991,5.1922,5.2158,5.2266,5.2302,5.232,5.2356,5.2373,5.2391,5.2391,5.2391,5.2391,5.2391,5.2391,5.2391,5.2391,5.2391,5.2391,5.2391,5.2391,5.2391,5.2391,5.2391,5.2391,5.2391,5.2391,5.948,5.8842,5.8174,5.7681,5.7361,5.7303,5.7303,5.7303,5.7303,5.7303,5.7303,5.7303,5.7303,5.7303,5.7303,5.736,5.7529,5.7499,5.7119,5.6406,5.6077,5.5368,5.4828,5.4491,5.4418,5.4436,5.4513,5.459,5.4641,5.4824,5.5053,5.5128,5.5234,5.5234,5.5179,5.5154,5.5154,5.5179,5.5179,5.5234,5.5234,5.5234,5.5234,5.5234,5.5234,5.5234,5.5234,5.5234,5.5234,5.5234,5.5234,5.5234,5.5119,5.4999,5.479,5.464,5.4162,5.3862,5.3683,5.3198,5.269,5.2247,5.1947,5.1798,5.1708,5.1409,5.1265,5.1206,5.1206,5.1206,5.1206,5.1229,5.1299,5.1339,5.1579,5.1764,5.204,5.2337,5.2855,5.3452,5.3974,5.4444,5.4758,5.4847,5.4576,5.3851,5.3218,5.274,5.2378,5.209,5.2086,5.2284,5.2338,5.2373,5.2391,5.2391,5.2391,5.2391,5.2391,5.2391,5.2391,5.2391,5.2391,5.2391,5.2391,5.2391,5.2391,5.2391,5.2391,5.2391,5.2391,5.2391,5.2391,5.2391,5.2391,5.8871,5.829,5.7565,5.7332,5.7303,5.7303,5.7303,5.7303,5.7303,5.7303,5.7303,5.7303,5.7331,5.7388,5.7416,5.7584,5.7665,5.7661,5.7128,5.6335,5.6129,5.5509,5.4768,5.4406,5.4641,5.4773,5.4854,5.4875,5.5078,5.5154,5.5158,5.5234,5.5234,5.5234,5.5234,5.5234,5.5234,5.5234,5.5234,5.5234,5.5234,5.5234,5.5234,5.5234,5.5234,5.5234,5.5234,5.5234,5.5234,5.5234,5.5234,5.5234,5.488,5.4461,5.4221,5.3922,5.3473,5.3204,5.2935,5.2486,5.2217,5.1887,5.1565,5.1415,5.1325,5.1295,5.1236,5.1206,5.1206,5.1206,5.1206,5.1229,5.1269,5.1463,5.1672,5.1903,5.2147,5.2555,5.3135,5.3736,5.4253,5.4697,5.4872,5.4894,5.455,5.3779,5.3239,5.2739,5.2426,5.2188,5.2212,5.2373,5.2391,5.2391,5.2391,5.2391,5.2391,5.2391,5.2391,5.2391,5.2391,5.2391,5.2391,5.2391,5.2391,5.2391,5.2391,5.2391,5.2391,5.2391,5.2391,5.2391,5.2391,5.2391,5.2391,5.8464,5.8232,5.7594,5.7303,5.7303,5.7303,5.7303,5.7303,5.7303,5.7331,5.7303,5.7331,5.7444,5.7669,5.7668,5.7807,5.7912,5.7614,5.6962,5.6385,5.6074,5.556,5.487,5.4794,5.4976,5.5053,5.5133,5.5133,5.5209,5.5234,5.5234,5.5234,5.5234,5.5234,5.5234,5.5234,5.5234,5.5234,5.5234,5.5234,5.5234,5.5234,5.5234,5.5234,5.5234,5.5234,5.5234,5.5234,5.5234,5.5234,5.5234,5.494,5.4461,5.3827,5.3498,5.3294,5.2815,5.2516,5.2306,5.1917,5.1648,5.1505,5.1295,5.1265,5.1206,5.1206,5.1206,5.1206,5.1206,5.1206,5.1229,5.1253,5.1323,5.1556,5.181,5.2033,5.2306,5.2891,5.3465,5.3995,5.4507,5.4747,5.4941,5.4721,5.4371,5.3907,5.3377,5.2906,5.2557,5.2302,5.2284,5.2391,5.2391,5.2391,5.2391,5.2391,5.2391,5.2391,5.2391,5.2391,5.2391,5.2391,5.2391,5.2391,5.2391,5.2391,5.2391,5.2391,5.2391,5.2391,5.2391,5.2391,5.2391,5.2391,5.2391,5.8116,5.7826,5.7448,5.7303,5.7303,5.7303,5.7303,5.7331,5.7444,5.7529,5.7528,5.7528,5.7668,5.7948,5.7946,5.7906,5.7949,5.7621,5.6983,5.6377,5.5954,5.5581,5.5291,5.5103,5.5128,5.5234,5.5234,5.5209,5.5234,5.5234,5.5234,5.5234,5.5234,5.5234,5.5234,5.5234,5.5234,5.5234,5.5234,5.5234,5.5234,5.5234,5.5234,5.5234,5.5234,5.5179,5.5234,5.5174,5.4999,5.47,5.4431,5.4132,5.3653,5.3139,5.2785,5.2576,5.2217,5.1744,5.1678,5.1498,5.1206,5.1206,5.1206,5.1206,5.1206,5.1206,5.1206,5.1206,5.1206,5.1206,5.1276,5.1293,5.1533,5.1787,5.2063,5.2306,5.2802,5.3399,5.3931,5.438,5.4738,5.4835,5.479,5.4278,5.3922,5.347,5.3052,5.28,5.25,5.2391,5.2391,5.2391,5.2391,5.2391,5.2391,5.2391,5.2391,5.2391,5.2391,5.2391,5.2391,5.2391,5.2391,5.2391,5.2391,5.2391,5.2391,5.2391,5.2391,5.2391,5.2391,5.2391,5.2391,5.2391,5.2391,5.7826,5.7361,5.7303,5.7303,5.7303,5.736,5.7388,5.7416,5.7725,5.7892,5.7948,5.7948,5.8059,5.8167,5.8221,5.8026,5.7776,5.7532,5.6974,5.6392,5.6051,5.5577,5.5308,5.5179,5.5234,5.5234,5.5234,5.5234,5.5234,5.5234,5.5234,5.5234,5.5234,5.5234,5.5234,5.5234,5.5234,5.5234,5.5234,5.5234,5.5234,5.5234,5.5234,5.5234,5.5179,5.5149,5.5119,5.497,5.47,5.4102,5.3533,5.3234,5.2905,5.2456,5.2187,5.1917,5.1654,5.1385,5.1265,5.1265,5.1206,5.1206,5.1206,5.1206,5.1206,5.1229,5.1229,5.1229,5.1229,5.1276,5.1316,5.1433,5.1718,5.204,5.2306,5.2645,5.3246,5.3823,5.4253,5.4697,5.4764,5.4826,5.4518,5.4001,5.3482,5.3043,5.2734,5.2513,5.2338,5.2373,5.2391,5.2391,5.2391,5.2391,5.2391,5.2391,5.2391,5.2391,5.2391,5.2391,5.2391,5.2391,5.2391,5.2391,5.2391,5.2391,5.2391,5.2391,5.2391,5.2391,5.2391,5.2391,5.2391,5.2391,5.2391,5.7419,5.7303,5.7303,5.7303,5.736,5.7584,5.7697,5.7753,5.8003,5.828,5.8417,5.85,5.8582,5.8582,5.8582,5.8302,5.7776,5.7441,5.6866,5.6256,5.5743,5.5388,5.5239,5.5234,5.5234,5.5234,5.5234,5.5234,5.5234,5.5234,5.5234,5.5234,5.5234,5.5234,5.5234,5.5234,5.5234,5.5204,5.5119,5.5059,5.5089,5.5119,5.5204,5.5234,5.5204,5.485,5.4581,5.4431,5.3982,5.3438,5.2809,5.2486,5.2217,5.1887,5.1618,5.1558,5.1265,5.1236,5.1206,5.1206,5.1206,5.1206,5.1206,5.1206,5.1229,5.1253,5.1253,5.1276,5.1299,5.1363,5.1456,5.1572,5.1803,5.2291,5.2622,5.31,5.3627,5.3974,5.4306,5.4441,5.4484,5.4487,5.4437,5.3849,5.3189,5.2807,5.2627,5.2437,5.2373,5.2391,5.2391,5.2391,5.2391,5.2391,5.2391,5.2391,5.2391,5.2391,5.2391,5.2391,5.2391,5.2391,5.2391,5.2391,5.2391,5.2391,5.2391,5.2391,5.2391,5.2391,5.2391,5.2391,5.2391,5.2391,5.2391]}]]